<?xml version="1.0" encoding="UTF-8" standalone="no" ?>
<gpx xmlns="http://www.topografix.com/GPX/1/1" xmlns:xsi="http://www.w3.org/2001/XMLSchema-instance" xsi:schemaLocation="http://www.topografix.com/GPX/1/1 http://www.topografix.com/GPX/1/1/gpx.xsd" version="1.1" creator="VisuGPX - https://www.visugpx.com">
  <metadata>
    <name>Randonnée Verneuil en Halatte</name>
    <desc><![CDATA[Rando BPM Verneuil en Halatte]]></desc>
  </metadata>
  <trk>
    <name><![CDATA[Randonnée Verneuil en Halatte_1]]></name>
    <trkseg>
      <trkpt lat="49.27534" lon="2.51956">
        <ele>-32.5</ele>
        <time>2015-02-01T09:19:56Z</time>
      </trkpt>
      <trkpt lat="49.27534" lon="2.51956">
        <ele>-32.5</ele>
        <time>2015-02-01T09:20:18Z</time>
      </trkpt>
      <trkpt lat="49.27538" lon="2.51966">
        <ele>-33</ele>
        <time>2015-02-01T09:20:22Z</time>
      </trkpt>
      <trkpt lat="49.27541" lon="2.51976">
        <ele>-28.5</ele>
        <time>2015-02-01T09:20:28Z</time>
      </trkpt>
      <trkpt lat="49.27545" lon="2.51986">
        <ele>-24.2</ele>
        <time>2015-02-01T09:20:33Z</time>
      </trkpt>
      <trkpt lat="49.27547" lon="2.51998">
        <ele>-17.6</ele>
        <time>2015-02-01T09:20:38Z</time>
      </trkpt>
      <trkpt lat="49.27551" lon="2.52009">
        <ele>-11.4</ele>
        <time>2015-02-01T09:20:43Z</time>
      </trkpt>
      <trkpt lat="49.27555" lon="2.52019">
        <ele>-3.1</ele>
        <time>2015-02-01T09:20:49Z</time>
      </trkpt>
      <trkpt lat="49.27558" lon="2.52033">
        <ele>-1.8</ele>
        <time>2015-02-01T09:20:54Z</time>
      </trkpt>
      <trkpt lat="49.27561" lon="2.52044">
        <ele>5.7</ele>
        <time>2015-02-01T09:21:01Z</time>
      </trkpt>
      <trkpt lat="49.27557" lon="2.52052">
        <ele>7.6</ele>
        <time>2015-02-01T09:21:08Z</time>
      </trkpt>
      <trkpt lat="49.2755" lon="2.52054">
        <ele>11.1</ele>
        <time>2015-02-01T09:21:15Z</time>
      </trkpt>
      <trkpt lat="49.27542" lon="2.52057">
        <ele>14.4</ele>
        <time>2015-02-01T09:21:22Z</time>
      </trkpt>
      <trkpt lat="49.27535" lon="2.52057">
        <ele>16.8</ele>
        <time>2015-02-01T09:21:27Z</time>
      </trkpt>
      <trkpt lat="49.27528" lon="2.52063">
        <ele>20.1</ele>
        <time>2015-02-01T09:21:32Z</time>
      </trkpt>
      <trkpt lat="49.2752" lon="2.52064">
        <ele>20.9</ele>
        <time>2015-02-01T09:21:36Z</time>
      </trkpt>
      <trkpt lat="49.27512" lon="2.52071">
        <ele>21.7</ele>
        <time>2015-02-01T09:21:39Z</time>
      </trkpt>
      <trkpt lat="49.27503" lon="2.52076">
        <ele>23.2</ele>
        <time>2015-02-01T09:21:42Z</time>
      </trkpt>
      <trkpt lat="49.27494" lon="2.52079">
        <ele>22.3</ele>
        <time>2015-02-01T09:21:45Z</time>
      </trkpt>
      <trkpt lat="49.27488" lon="2.52082">
        <ele>23.9</ele>
        <time>2015-02-01T09:21:52Z</time>
      </trkpt>
      <trkpt lat="49.27488" lon="2.52082">
        <ele>27.6</ele>
        <time>2015-02-01T09:21:59Z</time>
      </trkpt>
      <trkpt lat="49.27483" lon="2.52089">
        <ele>28.3</ele>
        <time>2015-02-01T09:22:03Z</time>
      </trkpt>
      <trkpt lat="49.27484" lon="2.52089">
        <ele>24.5</ele>
        <time>2015-02-01T09:22:10Z</time>
      </trkpt>
      <trkpt lat="49.2748" lon="2.52084">
        <ele>19.4</ele>
        <time>2015-02-01T09:22:17Z</time>
      </trkpt>
      <trkpt lat="49.27476" lon="2.52086">
        <ele>16.5</ele>
        <time>2015-02-01T09:22:24Z</time>
      </trkpt>
      <trkpt lat="49.27468" lon="2.52092">
        <ele>17</ele>
        <time>2015-02-01T09:22:31Z</time>
      </trkpt>
      <trkpt lat="49.27461" lon="2.52096">
        <ele>18.9</ele>
        <time>2015-02-01T09:22:37Z</time>
      </trkpt>
      <trkpt lat="49.27453" lon="2.52098">
        <ele>19.7</ele>
        <time>2015-02-01T09:22:44Z</time>
      </trkpt>
      <trkpt lat="49.27445" lon="2.52102">
        <ele>18.1</ele>
        <time>2015-02-01T09:22:50Z</time>
      </trkpt>
      <trkpt lat="49.27437" lon="2.52106">
        <ele>18.1</ele>
        <time>2015-02-01T09:22:55Z</time>
      </trkpt>
      <trkpt lat="49.27429" lon="2.52109">
        <ele>17.5</ele>
        <time>2015-02-01T09:23:01Z</time>
      </trkpt>
      <trkpt lat="49.27423" lon="2.52112">
        <ele>16.3</ele>
        <time>2015-02-01T09:23:08Z</time>
      </trkpt>
      <trkpt lat="49.27416" lon="2.52117">
        <ele>17.3</ele>
        <time>2015-02-01T09:23:13Z</time>
      </trkpt>
      <trkpt lat="49.27408" lon="2.52118">
        <ele>17.8</ele>
        <time>2015-02-01T09:23:18Z</time>
      </trkpt>
      <trkpt lat="49.274" lon="2.52117">
        <ele>18.2</ele>
        <time>2015-02-01T09:23:23Z</time>
      </trkpt>
      <trkpt lat="49.27392" lon="2.52114">
        <ele>21.1</ele>
        <time>2015-02-01T09:23:27Z</time>
      </trkpt>
      <trkpt lat="49.27385" lon="2.52111">
        <ele>22.4</ele>
        <time>2015-02-01T09:23:32Z</time>
      </trkpt>
      <trkpt lat="49.27377" lon="2.52107">
        <ele>24.1</ele>
        <time>2015-02-01T09:23:38Z</time>
      </trkpt>
      <trkpt lat="49.27369" lon="2.52103">
        <ele>27.9</ele>
        <time>2015-02-01T09:23:42Z</time>
      </trkpt>
      <trkpt lat="49.27364" lon="2.521">
        <ele>26.5</ele>
        <time>2015-02-01T09:23:49Z</time>
      </trkpt>
      <trkpt lat="49.27356" lon="2.52099">
        <ele>25.6</ele>
        <time>2015-02-01T09:23:55Z</time>
      </trkpt>
      <trkpt lat="49.27348" lon="2.52099">
        <ele>24.9</ele>
        <time>2015-02-01T09:24:00Z</time>
      </trkpt>
      <trkpt lat="49.27343" lon="2.52105">
        <ele>46.3</ele>
        <time>2015-02-01T09:24:07Z</time>
      </trkpt>
      <trkpt lat="49.27336" lon="2.521">
        <ele>43.9</ele>
        <time>2015-02-01T09:24:12Z</time>
      </trkpt>
      <trkpt lat="49.27329" lon="2.521">
        <ele>39.7</ele>
        <time>2015-02-01T09:24:17Z</time>
      </trkpt>
      <trkpt lat="49.27322" lon="2.52098">
        <ele>40.3</ele>
        <time>2015-02-01T09:24:23Z</time>
      </trkpt>
      <trkpt lat="49.27314" lon="2.52101">
        <ele>40.1</ele>
        <time>2015-02-01T09:24:29Z</time>
      </trkpt>
      <trkpt lat="49.27306" lon="2.52107">
        <ele>39.9</ele>
        <time>2015-02-01T09:24:36Z</time>
      </trkpt>
      <trkpt lat="49.27299" lon="2.52113">
        <ele>39.3</ele>
        <time>2015-02-01T09:24:41Z</time>
      </trkpt>
      <trkpt lat="49.27291" lon="2.52117">
        <ele>42.2</ele>
        <time>2015-02-01T09:24:48Z</time>
      </trkpt>
      <trkpt lat="49.27284" lon="2.52121">
        <ele>44.8</ele>
        <time>2015-02-01T09:24:54Z</time>
      </trkpt>
      <trkpt lat="49.27276" lon="2.52122">
        <ele>46.1</ele>
        <time>2015-02-01T09:25:01Z</time>
      </trkpt>
      <trkpt lat="49.2727" lon="2.52122">
        <ele>48.8</ele>
        <time>2015-02-01T09:25:08Z</time>
      </trkpt>
      <trkpt lat="49.27262" lon="2.52123">
        <ele>50.5</ele>
        <time>2015-02-01T09:25:14Z</time>
      </trkpt>
      <trkpt lat="49.27256" lon="2.52128">
        <ele>53.5</ele>
        <time>2015-02-01T09:25:20Z</time>
      </trkpt>
      <trkpt lat="49.27249" lon="2.52134">
        <ele>52.9</ele>
        <time>2015-02-01T09:25:25Z</time>
      </trkpt>
      <trkpt lat="49.27245" lon="2.5214">
        <ele>47.8</ele>
        <time>2015-02-01T09:25:32Z</time>
      </trkpt>
      <trkpt lat="49.27244" lon="2.52152">
        <ele>46.4</ele>
        <time>2015-02-01T09:25:38Z</time>
      </trkpt>
      <trkpt lat="49.27246" lon="2.52156">
        <ele>44.6</ele>
        <time>2015-02-01T09:25:45Z</time>
      </trkpt>
      <trkpt lat="49.27252" lon="2.52161">
        <ele>38.9</ele>
        <time>2015-02-01T09:25:52Z</time>
      </trkpt>
      <trkpt lat="49.27257" lon="2.5217">
        <ele>37.7</ele>
        <time>2015-02-01T09:25:59Z</time>
      </trkpt>
      <trkpt lat="49.2726" lon="2.5218">
        <ele>34.8</ele>
        <time>2015-02-01T09:26:06Z</time>
      </trkpt>
      <trkpt lat="49.27264" lon="2.5219">
        <ele>33.9</ele>
        <time>2015-02-01T09:26:12Z</time>
      </trkpt>
      <trkpt lat="49.27268" lon="2.522">
        <ele>34.3</ele>
        <time>2015-02-01T09:26:19Z</time>
      </trkpt>
      <trkpt lat="49.27273" lon="2.52209">
        <ele>34.1</ele>
        <time>2015-02-01T09:26:26Z</time>
      </trkpt>
      <trkpt lat="49.27281" lon="2.52215">
        <ele>35</ele>
        <time>2015-02-01T09:26:33Z</time>
      </trkpt>
      <trkpt lat="49.27288" lon="2.5222">
        <ele>34.2</ele>
        <time>2015-02-01T09:26:39Z</time>
      </trkpt>
      <trkpt lat="49.27295" lon="2.52225">
        <ele>33.6</ele>
        <time>2015-02-01T09:26:43Z</time>
      </trkpt>
      <trkpt lat="49.27303" lon="2.5223">
        <ele>33.8</ele>
        <time>2015-02-01T09:26:48Z</time>
      </trkpt>
      <trkpt lat="49.2731" lon="2.52236">
        <ele>34.9</ele>
        <time>2015-02-01T09:26:53Z</time>
      </trkpt>
      <trkpt lat="49.27317" lon="2.52241">
        <ele>37.9</ele>
        <time>2015-02-01T09:26:59Z</time>
      </trkpt>
      <trkpt lat="49.27324" lon="2.52247">
        <ele>38.4</ele>
        <time>2015-02-01T09:27:06Z</time>
      </trkpt>
      <trkpt lat="49.27331" lon="2.52252">
        <ele>37.5</ele>
        <time>2015-02-01T09:27:11Z</time>
      </trkpt>
      <trkpt lat="49.27337" lon="2.52257">
        <ele>36.5</ele>
        <time>2015-02-01T09:27:17Z</time>
      </trkpt>
      <trkpt lat="49.27344" lon="2.52265">
        <ele>33.5</ele>
        <time>2015-02-01T09:27:24Z</time>
      </trkpt>
      <trkpt lat="49.2735" lon="2.5227">
        <ele>33</ele>
        <time>2015-02-01T09:27:29Z</time>
      </trkpt>
      <trkpt lat="49.27355" lon="2.52279">
        <ele>33.6</ele>
        <time>2015-02-01T09:27:34Z</time>
      </trkpt>
      <trkpt lat="49.2736" lon="2.52289">
        <ele>33.5</ele>
        <time>2015-02-01T09:27:39Z</time>
      </trkpt>
      <trkpt lat="49.27365" lon="2.523">
        <ele>31.5</ele>
        <time>2015-02-01T09:27:46Z</time>
      </trkpt>
      <trkpt lat="49.27368" lon="2.52312">
        <ele>33.5</ele>
        <time>2015-02-01T09:27:52Z</time>
      </trkpt>
      <trkpt lat="49.27373" lon="2.52321">
        <ele>36</ele>
        <time>2015-02-01T09:27:57Z</time>
      </trkpt>
      <trkpt lat="49.27377" lon="2.52331">
        <ele>35.1</ele>
        <time>2015-02-01T09:28:04Z</time>
      </trkpt>
      <trkpt lat="49.27381" lon="2.52342">
        <ele>35.8</ele>
        <time>2015-02-01T09:28:11Z</time>
      </trkpt>
      <trkpt lat="49.27386" lon="2.52352">
        <ele>32.9</ele>
        <time>2015-02-01T09:28:16Z</time>
      </trkpt>
      <trkpt lat="49.27391" lon="2.52361">
        <ele>30.4</ele>
        <time>2015-02-01T09:28:22Z</time>
      </trkpt>
      <trkpt lat="49.27396" lon="2.52371">
        <ele>31.7</ele>
        <time>2015-02-01T09:28:28Z</time>
      </trkpt>
      <trkpt lat="49.274" lon="2.5238">
        <ele>33.5</ele>
        <time>2015-02-01T09:28:33Z</time>
      </trkpt>
      <trkpt lat="49.27405" lon="2.52389">
        <ele>35.7</ele>
        <time>2015-02-01T09:28:38Z</time>
      </trkpt>
      <trkpt lat="49.27412" lon="2.52397">
        <ele>36.6</ele>
        <time>2015-02-01T09:28:45Z</time>
      </trkpt>
      <trkpt lat="49.27416" lon="2.52405">
        <ele>30.4</ele>
        <time>2015-02-01T09:28:52Z</time>
      </trkpt>
      <trkpt lat="49.27421" lon="2.52416">
        <ele>29.1</ele>
        <time>2015-02-01T09:28:57Z</time>
      </trkpt>
      <trkpt lat="49.27427" lon="2.52424">
        <ele>29.6</ele>
        <time>2015-02-01T09:29:02Z</time>
      </trkpt>
      <trkpt lat="49.27432" lon="2.5243">
        <ele>31</ele>
        <time>2015-02-01T09:29:09Z</time>
      </trkpt>
      <trkpt lat="49.27429" lon="2.52437">
        <ele>37</ele>
        <time>2015-02-01T09:29:22Z</time>
      </trkpt>
      <trkpt lat="49.27427" lon="2.52445">
        <ele>37</ele>
        <time>2015-02-01T09:29:29Z</time>
      </trkpt>
      <trkpt lat="49.27425" lon="2.52456">
        <ele>37.1</ele>
        <time>2015-02-01T09:29:36Z</time>
      </trkpt>
      <trkpt lat="49.27425" lon="2.52466">
        <ele>37.7</ele>
        <time>2015-02-01T09:29:43Z</time>
      </trkpt>
      <trkpt lat="49.27424" lon="2.52478">
        <ele>38.6</ele>
        <time>2015-02-01T09:29:48Z</time>
      </trkpt>
      <trkpt lat="49.27424" lon="2.5249">
        <ele>38.1</ele>
        <time>2015-02-01T09:29:54Z</time>
      </trkpt>
      <trkpt lat="49.27423" lon="2.52502">
        <ele>40.7</ele>
        <time>2015-02-01T09:30:01Z</time>
      </trkpt>
      <trkpt lat="49.27419" lon="2.52513">
        <ele>40.3</ele>
        <time>2015-02-01T09:30:07Z</time>
      </trkpt>
      <trkpt lat="49.27418" lon="2.52522">
        <ele>41.8</ele>
        <time>2015-02-01T09:30:14Z</time>
      </trkpt>
      <trkpt lat="49.27416" lon="2.52534">
        <ele>42.8</ele>
        <time>2015-02-01T09:30:20Z</time>
      </trkpt>
      <trkpt lat="49.27415" lon="2.52545">
        <ele>42.6</ele>
        <time>2015-02-01T09:30:25Z</time>
      </trkpt>
      <trkpt lat="49.27412" lon="2.52555">
        <ele>44.4</ele>
        <time>2015-02-01T09:30:29Z</time>
      </trkpt>
      <trkpt lat="49.27409" lon="2.52567">
        <ele>43.9</ele>
        <time>2015-02-01T09:30:33Z</time>
      </trkpt>
      <trkpt lat="49.27407" lon="2.5258">
        <ele>45.5</ele>
        <time>2015-02-01T09:30:40Z</time>
      </trkpt>
      <trkpt lat="49.27404" lon="2.52589">
        <ele>43.1</ele>
        <time>2015-02-01T09:30:47Z</time>
      </trkpt>
      <trkpt lat="49.27399" lon="2.52597">
        <ele>42.5</ele>
        <time>2015-02-01T09:30:54Z</time>
      </trkpt>
      <trkpt lat="49.27394" lon="2.52606">
        <ele>41.2</ele>
        <time>2015-02-01T09:30:59Z</time>
      </trkpt>
      <trkpt lat="49.27391" lon="2.52616">
        <ele>41.4</ele>
        <time>2015-02-01T09:31:04Z</time>
      </trkpt>
      <trkpt lat="49.27389" lon="2.52627">
        <ele>40</ele>
        <time>2015-02-01T09:31:10Z</time>
      </trkpt>
      <trkpt lat="49.27387" lon="2.52638">
        <ele>39.6</ele>
        <time>2015-02-01T09:31:17Z</time>
      </trkpt>
      <trkpt lat="49.27386" lon="2.52649">
        <ele>40.1</ele>
        <time>2015-02-01T09:31:22Z</time>
      </trkpt>
      <trkpt lat="49.27386" lon="2.52661">
        <ele>43</ele>
        <time>2015-02-01T09:31:28Z</time>
      </trkpt>
      <trkpt lat="49.27394" lon="2.52667">
        <ele>44.7</ele>
        <time>2015-02-01T09:31:34Z</time>
      </trkpt>
      <trkpt lat="49.27401" lon="2.5267">
        <ele>47.5</ele>
        <time>2015-02-01T09:31:39Z</time>
      </trkpt>
      <trkpt lat="49.27405" lon="2.52677">
        <ele>48.3</ele>
        <time>2015-02-01T09:31:46Z</time>
      </trkpt>
      <trkpt lat="49.27408" lon="2.52681">
        <ele>45.7</ele>
        <time>2015-02-01T09:31:53Z</time>
      </trkpt>
      <trkpt lat="49.27405" lon="2.52685">
        <ele>41.8</ele>
        <time>2015-02-01T09:32:08Z</time>
      </trkpt>
      <trkpt lat="49.27404" lon="2.52681">
        <ele>41.9</ele>
        <time>2015-02-01T09:32:15Z</time>
      </trkpt>
      <trkpt lat="49.2741" lon="2.52676">
        <ele>41.7</ele>
        <time>2015-02-01T09:32:22Z</time>
      </trkpt>
      <trkpt lat="49.2741" lon="2.52675">
        <ele>41.5</ele>
        <time>2015-02-01T09:32:29Z</time>
      </trkpt>
      <trkpt lat="49.27414" lon="2.52679">
        <ele>35.1</ele>
        <time>2015-02-01T09:32:39Z</time>
      </trkpt>
      <trkpt lat="49.27418" lon="2.52688">
        <ele>33.6</ele>
        <time>2015-02-01T09:32:46Z</time>
      </trkpt>
      <trkpt lat="49.27424" lon="2.52695">
        <ele>32.1</ele>
        <time>2015-02-01T09:32:51Z</time>
      </trkpt>
      <trkpt lat="49.27432" lon="2.52698">
        <ele>30.7</ele>
        <time>2015-02-01T09:32:58Z</time>
      </trkpt>
      <trkpt lat="49.27439" lon="2.52703">
        <ele>29.1</ele>
        <time>2015-02-01T09:33:03Z</time>
      </trkpt>
      <trkpt lat="49.27446" lon="2.52709">
        <ele>28.1</ele>
        <time>2015-02-01T09:33:09Z</time>
      </trkpt>
      <trkpt lat="49.27454" lon="2.52712">
        <ele>27.4</ele>
        <time>2015-02-01T09:33:15Z</time>
      </trkpt>
      <trkpt lat="49.27456" lon="2.52724">
        <ele>27.1</ele>
        <time>2015-02-01T09:33:22Z</time>
      </trkpt>
      <trkpt lat="49.27453" lon="2.52735">
        <ele>28.2</ele>
        <time>2015-02-01T09:33:27Z</time>
      </trkpt>
      <trkpt lat="49.27451" lon="2.52746">
        <ele>31.8</ele>
        <time>2015-02-01T09:33:34Z</time>
      </trkpt>
      <trkpt lat="49.27449" lon="2.52756">
        <ele>35.3</ele>
        <time>2015-02-01T09:33:40Z</time>
      </trkpt>
      <trkpt lat="49.27446" lon="2.52766">
        <ele>35.7</ele>
        <time>2015-02-01T09:33:44Z</time>
      </trkpt>
      <trkpt lat="49.27443" lon="2.52777">
        <ele>36</ele>
        <time>2015-02-01T09:33:49Z</time>
      </trkpt>
      <trkpt lat="49.27441" lon="2.52788">
        <ele>35.5</ele>
        <time>2015-02-01T09:33:54Z</time>
      </trkpt>
      <trkpt lat="49.27438" lon="2.528">
        <ele>37.8</ele>
        <time>2015-02-01T09:33:59Z</time>
      </trkpt>
      <trkpt lat="49.27435" lon="2.5281">
        <ele>39.2</ele>
        <time>2015-02-01T09:34:05Z</time>
      </trkpt>
      <trkpt lat="49.27431" lon="2.5282">
        <ele>39.8</ele>
        <time>2015-02-01T09:34:12Z</time>
      </trkpt>
      <trkpt lat="49.27426" lon="2.52832">
        <ele>39</ele>
        <time>2015-02-01T09:34:17Z</time>
      </trkpt>
      <trkpt lat="49.27424" lon="2.52842">
        <ele>39.1</ele>
        <time>2015-02-01T09:34:22Z</time>
      </trkpt>
      <trkpt lat="49.27419" lon="2.52853">
        <ele>37.1</ele>
        <time>2015-02-01T09:34:27Z</time>
      </trkpt>
      <trkpt lat="49.27416" lon="2.52864">
        <ele>38.9</ele>
        <time>2015-02-01T09:34:34Z</time>
      </trkpt>
      <trkpt lat="49.27412" lon="2.52875">
        <ele>39.7</ele>
        <time>2015-02-01T09:34:41Z</time>
      </trkpt>
      <trkpt lat="49.27408" lon="2.52886">
        <ele>39.4</ele>
        <time>2015-02-01T09:34:46Z</time>
      </trkpt>
      <trkpt lat="49.27405" lon="2.52898">
        <ele>41.9</ele>
        <time>2015-02-01T09:34:51Z</time>
      </trkpt>
      <trkpt lat="49.27401" lon="2.52907">
        <ele>43.6</ele>
        <time>2015-02-01T09:34:58Z</time>
      </trkpt>
      <trkpt lat="49.27397" lon="2.52916">
        <ele>45.9</ele>
        <time>2015-02-01T09:35:05Z</time>
      </trkpt>
      <trkpt lat="49.27394" lon="2.52921">
        <ele>45.6</ele>
        <time>2015-02-01T09:35:12Z</time>
      </trkpt>
      <trkpt lat="49.27393" lon="2.52929">
        <ele>44.4</ele>
        <time>2015-02-01T09:35:19Z</time>
      </trkpt>
      <trkpt lat="49.27389" lon="2.52938">
        <ele>38.2</ele>
        <time>2015-02-01T09:35:33Z</time>
      </trkpt>
      <trkpt lat="49.27385" lon="2.52947">
        <ele>39.8</ele>
        <time>2015-02-01T09:35:40Z</time>
      </trkpt>
      <trkpt lat="49.27381" lon="2.52957">
        <ele>40.8</ele>
        <time>2015-02-01T09:35:47Z</time>
      </trkpt>
      <trkpt lat="49.27377" lon="2.52967">
        <ele>42.2</ele>
        <time>2015-02-01T09:35:53Z</time>
      </trkpt>
      <trkpt lat="49.27373" lon="2.52976">
        <ele>43.8</ele>
        <time>2015-02-01T09:35:59Z</time>
      </trkpt>
      <trkpt lat="49.27368" lon="2.52985">
        <ele>45.1</ele>
        <time>2015-02-01T09:36:04Z</time>
      </trkpt>
      <trkpt lat="49.27364" lon="2.52994">
        <ele>47.6</ele>
        <time>2015-02-01T09:36:09Z</time>
      </trkpt>
      <trkpt lat="49.27359" lon="2.53005">
        <ele>48.1</ele>
        <time>2015-02-01T09:36:16Z</time>
      </trkpt>
      <trkpt lat="49.27356" lon="2.53016">
        <ele>48</ele>
        <time>2015-02-01T09:36:21Z</time>
      </trkpt>
      <trkpt lat="49.27353" lon="2.53025">
        <ele>47.4</ele>
        <time>2015-02-01T09:36:28Z</time>
      </trkpt>
      <trkpt lat="49.27349" lon="2.53034">
        <ele>47.7</ele>
        <time>2015-02-01T09:36:33Z</time>
      </trkpt>
      <trkpt lat="49.27344" lon="2.53043">
        <ele>47.7</ele>
        <time>2015-02-01T09:36:40Z</time>
      </trkpt>
      <trkpt lat="49.27339" lon="2.53053">
        <ele>47.3</ele>
        <time>2015-02-01T09:36:46Z</time>
      </trkpt>
      <trkpt lat="49.27333" lon="2.53062">
        <ele>51.4</ele>
        <time>2015-02-01T09:36:52Z</time>
      </trkpt>
      <trkpt lat="49.27329" lon="2.53072">
        <ele>52.2</ele>
        <time>2015-02-01T09:36:58Z</time>
      </trkpt>
      <trkpt lat="49.27327" lon="2.53083">
        <ele>53.6</ele>
        <time>2015-02-01T09:37:03Z</time>
      </trkpt>
      <trkpt lat="49.27324" lon="2.53093">
        <ele>52.2</ele>
        <time>2015-02-01T09:37:10Z</time>
      </trkpt>
      <trkpt lat="49.27323" lon="2.53105">
        <ele>51</ele>
        <time>2015-02-01T09:37:16Z</time>
      </trkpt>
      <trkpt lat="49.27322" lon="2.53116">
        <ele>52.4</ele>
        <time>2015-02-01T09:37:22Z</time>
      </trkpt>
      <trkpt lat="49.27321" lon="2.53128">
        <ele>53.8</ele>
        <time>2015-02-01T09:37:27Z</time>
      </trkpt>
      <trkpt lat="49.2732" lon="2.53137">
        <ele>54.8</ele>
        <time>2015-02-01T09:37:34Z</time>
      </trkpt>
      <trkpt lat="49.27319" lon="2.53147">
        <ele>59.7</ele>
        <time>2015-02-01T09:37:49Z</time>
      </trkpt>
      <trkpt lat="49.27315" lon="2.53157">
        <ele>59.9</ele>
        <time>2015-02-01T09:37:55Z</time>
      </trkpt>
      <trkpt lat="49.27311" lon="2.53165">
        <ele>59.4</ele>
        <time>2015-02-01T09:38:02Z</time>
      </trkpt>
      <trkpt lat="49.27308" lon="2.53177">
        <ele>61</ele>
        <time>2015-02-01T09:38:09Z</time>
      </trkpt>
      <trkpt lat="49.27308" lon="2.53188">
        <ele>60.1</ele>
        <time>2015-02-01T09:38:16Z</time>
      </trkpt>
      <trkpt lat="49.27304" lon="2.53197">
        <ele>58.6</ele>
        <time>2015-02-01T09:38:23Z</time>
      </trkpt>
      <trkpt lat="49.273" lon="2.53208">
        <ele>56.5</ele>
        <time>2015-02-01T09:38:29Z</time>
      </trkpt>
      <trkpt lat="49.27297" lon="2.53218">
        <ele>56.5</ele>
        <time>2015-02-01T09:38:33Z</time>
      </trkpt>
      <trkpt lat="49.27295" lon="2.53221">
        <ele>56.8</ele>
        <time>2015-02-01T09:38:40Z</time>
      </trkpt>
      <trkpt lat="49.27294" lon="2.53221">
        <ele>55.9</ele>
        <time>2015-02-01T09:38:47Z</time>
      </trkpt>
      <trkpt lat="49.27293" lon="2.53224">
        <ele>54.6</ele>
        <time>2015-02-01T09:39:08Z</time>
      </trkpt>
      <trkpt lat="49.27294" lon="2.53226">
        <ele>54.4</ele>
        <time>2015-02-01T09:39:15Z</time>
      </trkpt>
      <trkpt lat="49.27291" lon="2.53219">
        <ele>50.4</ele>
        <time>2015-02-01T09:40:37Z</time>
      </trkpt>
      <trkpt lat="49.27288" lon="2.53223">
        <ele>50.5</ele>
        <time>2015-02-01T09:41:44Z</time>
      </trkpt>
      <trkpt lat="49.27283" lon="2.53231">
        <ele>53.9</ele>
        <time>2015-02-01T09:41:36Z</time>
      </trkpt>
      <trkpt lat="49.2728" lon="2.53243">
        <ele>54.5</ele>
        <time>2015-02-01T09:42:48Z</time>
      </trkpt>
      <trkpt lat="49.27275" lon="2.53252">
        <ele>55.1</ele>
        <time>2015-02-01T09:42:54Z</time>
      </trkpt>
      <trkpt lat="49.2727" lon="2.53261">
        <ele>56.2</ele>
        <time>2015-02-01T09:43:01Z</time>
      </trkpt>
      <trkpt lat="49.27265" lon="2.5327">
        <ele>57.4</ele>
        <time>2015-02-01T09:43:08Z</time>
      </trkpt>
      <trkpt lat="49.27261" lon="2.53279">
        <ele>58.5</ele>
        <time>2015-02-01T09:43:13Z</time>
      </trkpt>
      <trkpt lat="49.27256" lon="2.53287">
        <ele>59.3</ele>
        <time>2015-02-01T09:43:19Z</time>
      </trkpt>
      <trkpt lat="49.2725" lon="2.53294">
        <ele>59.3</ele>
        <time>2015-02-01T09:43:26Z</time>
      </trkpt>
      <trkpt lat="49.27245" lon="2.53306">
        <ele>59.1</ele>
        <time>2015-02-01T09:43:32Z</time>
      </trkpt>
      <trkpt lat="49.27239" lon="2.53313">
        <ele>59.9</ele>
        <time>2015-02-01T09:43:38Z</time>
      </trkpt>
      <trkpt lat="49.27234" lon="2.53323">
        <ele>60.3</ele>
        <time>2015-02-01T09:43:45Z</time>
      </trkpt>
      <trkpt lat="49.27228" lon="2.53331">
        <ele>60.6</ele>
        <time>2015-02-01T09:43:50Z</time>
      </trkpt>
      <trkpt lat="49.27221" lon="2.53337">
        <ele>61.8</ele>
        <time>2015-02-01T09:43:55Z</time>
      </trkpt>
      <trkpt lat="49.27217" lon="2.53344">
        <ele>62.3</ele>
        <time>2015-02-01T09:44:02Z</time>
      </trkpt>
      <trkpt lat="49.2721" lon="2.53352">
        <ele>62.6</ele>
        <time>2015-02-01T09:44:08Z</time>
      </trkpt>
      <trkpt lat="49.27204" lon="2.53356">
        <ele>63.2</ele>
        <time>2015-02-01T09:44:15Z</time>
      </trkpt>
      <trkpt lat="49.27198" lon="2.53364">
        <ele>63.6</ele>
        <time>2015-02-01T09:44:21Z</time>
      </trkpt>
      <trkpt lat="49.27192" lon="2.53371">
        <ele>64.6</ele>
        <time>2015-02-01T09:44:26Z</time>
      </trkpt>
      <trkpt lat="49.27185" lon="2.53375">
        <ele>65.9</ele>
        <time>2015-02-01T09:44:33Z</time>
      </trkpt>
      <trkpt lat="49.27178" lon="2.53382">
        <ele>67.1</ele>
        <time>2015-02-01T09:44:39Z</time>
      </trkpt>
      <trkpt lat="49.27171" lon="2.53387">
        <ele>68.6</ele>
        <time>2015-02-01T09:44:46Z</time>
      </trkpt>
      <trkpt lat="49.27165" lon="2.53394">
        <ele>69.7</ele>
        <time>2015-02-01T09:44:52Z</time>
      </trkpt>
      <trkpt lat="49.27158" lon="2.53398">
        <ele>70.7</ele>
        <time>2015-02-01T09:44:57Z</time>
      </trkpt>
      <trkpt lat="49.2715" lon="2.53398">
        <ele>71.7</ele>
        <time>2015-02-01T09:45:03Z</time>
      </trkpt>
      <trkpt lat="49.27145" lon="2.534">
        <ele>72.9</ele>
        <time>2015-02-01T09:45:10Z</time>
      </trkpt>
      <trkpt lat="49.27138" lon="2.53402">
        <ele>73.6</ele>
        <time>2015-02-01T09:45:16Z</time>
      </trkpt>
      <trkpt lat="49.27131" lon="2.53401">
        <ele>74.2</ele>
        <time>2015-02-01T09:45:23Z</time>
      </trkpt>
      <trkpt lat="49.27124" lon="2.53404">
        <ele>74.5</ele>
        <time>2015-02-01T09:45:28Z</time>
      </trkpt>
      <trkpt lat="49.27116" lon="2.53409">
        <ele>74.7</ele>
        <time>2015-02-01T09:45:33Z</time>
      </trkpt>
      <trkpt lat="49.27108" lon="2.5341">
        <ele>74.6</ele>
        <time>2015-02-01T09:45:39Z</time>
      </trkpt>
      <trkpt lat="49.27101" lon="2.53414">
        <ele>75</ele>
        <time>2015-02-01T09:45:45Z</time>
      </trkpt>
      <trkpt lat="49.27094" lon="2.53421">
        <ele>74.7</ele>
        <time>2015-02-01T09:45:51Z</time>
      </trkpt>
      <trkpt lat="49.27087" lon="2.53424">
        <ele>74.7</ele>
        <time>2015-02-01T09:45:57Z</time>
      </trkpt>
      <trkpt lat="49.2708" lon="2.53429">
        <ele>74.2</ele>
        <time>2015-02-01T09:46:02Z</time>
      </trkpt>
      <trkpt lat="49.27072" lon="2.53436">
        <ele>74.4</ele>
        <time>2015-02-01T09:46:09Z</time>
      </trkpt>
      <trkpt lat="49.27066" lon="2.53439">
        <ele>74.4</ele>
        <time>2015-02-01T09:46:16Z</time>
      </trkpt>
      <trkpt lat="49.27059" lon="2.53446">
        <ele>73.2</ele>
        <time>2015-02-01T09:46:22Z</time>
      </trkpt>
      <trkpt lat="49.27051" lon="2.5345">
        <ele>71.9</ele>
        <time>2015-02-01T09:46:27Z</time>
      </trkpt>
      <trkpt lat="49.27044" lon="2.53456">
        <ele>69.7</ele>
        <time>2015-02-01T09:46:33Z</time>
      </trkpt>
      <trkpt lat="49.27037" lon="2.53459">
        <ele>68</ele>
        <time>2015-02-01T09:46:39Z</time>
      </trkpt>
      <trkpt lat="49.27032" lon="2.53467">
        <ele>65.3</ele>
        <time>2015-02-01T09:46:46Z</time>
      </trkpt>
      <trkpt lat="49.27027" lon="2.53475">
        <ele>63.9</ele>
        <time>2015-02-01T09:46:51Z</time>
      </trkpt>
      <trkpt lat="49.27025" lon="2.53485">
        <ele>63.2</ele>
        <time>2015-02-01T09:46:58Z</time>
      </trkpt>
      <trkpt lat="49.27021" lon="2.5349">
        <ele>61.9</ele>
        <time>2015-02-01T09:47:05Z</time>
      </trkpt>
      <trkpt lat="49.27015" lon="2.53496">
        <ele>60.1</ele>
        <time>2015-02-01T09:47:12Z</time>
      </trkpt>
      <trkpt lat="49.27009" lon="2.53502">
        <ele>58.9</ele>
        <time>2015-02-01T09:47:19Z</time>
      </trkpt>
      <trkpt lat="49.27003" lon="2.53508">
        <ele>57.5</ele>
        <time>2015-02-01T09:47:26Z</time>
      </trkpt>
      <trkpt lat="49.26999" lon="2.53517">
        <ele>56.5</ele>
        <time>2015-02-01T09:47:33Z</time>
      </trkpt>
      <trkpt lat="49.26994" lon="2.53527">
        <ele>56.2</ele>
        <time>2015-02-01T09:47:39Z</time>
      </trkpt>
      <trkpt lat="49.26992" lon="2.53538">
        <ele>55.9</ele>
        <time>2015-02-01T09:47:45Z</time>
      </trkpt>
      <trkpt lat="49.2699" lon="2.53549">
        <ele>55.5</ele>
        <time>2015-02-01T09:47:50Z</time>
      </trkpt>
      <trkpt lat="49.2699" lon="2.53558">
        <ele>54.9</ele>
        <time>2015-02-01T09:47:57Z</time>
      </trkpt>
      <trkpt lat="49.26992" lon="2.53569">
        <ele>54.9</ele>
        <time>2015-02-01T09:48:03Z</time>
      </trkpt>
      <trkpt lat="49.26993" lon="2.5358">
        <ele>54.9</ele>
        <time>2015-02-01T09:48:09Z</time>
      </trkpt>
      <trkpt lat="49.26997" lon="2.53587">
        <ele>55</ele>
        <time>2015-02-01T09:48:16Z</time>
      </trkpt>
      <trkpt lat="49.27001" lon="2.53598">
        <ele>54.9</ele>
        <time>2015-02-01T09:48:22Z</time>
      </trkpt>
      <trkpt lat="49.27008" lon="2.53605">
        <ele>55.2</ele>
        <time>2015-02-01T09:48:29Z</time>
      </trkpt>
      <trkpt lat="49.27015" lon="2.53612">
        <ele>55.4</ele>
        <time>2015-02-01T09:48:35Z</time>
      </trkpt>
      <trkpt lat="49.27018" lon="2.53622">
        <ele>55.4</ele>
        <time>2015-02-01T09:48:41Z</time>
      </trkpt>
      <trkpt lat="49.27024" lon="2.5363">
        <ele>55.7</ele>
        <time>2015-02-01T09:48:48Z</time>
      </trkpt>
      <trkpt lat="49.27032" lon="2.53641">
        <ele>56.4</ele>
        <time>2015-02-01T09:48:56Z</time>
      </trkpt>
      <trkpt lat="49.27037" lon="2.5365">
        <ele>56.8</ele>
        <time>2015-02-01T09:49:02Z</time>
      </trkpt>
      <trkpt lat="49.27042" lon="2.53659">
        <ele>57.2</ele>
        <time>2015-02-01T09:49:08Z</time>
      </trkpt>
      <trkpt lat="49.27047" lon="2.53669">
        <ele>57.5</ele>
        <time>2015-02-01T09:49:14Z</time>
      </trkpt>
      <trkpt lat="49.27052" lon="2.53677">
        <ele>58.1</ele>
        <time>2015-02-01T09:49:20Z</time>
      </trkpt>
      <trkpt lat="49.27056" lon="2.53686">
        <ele>58.5</ele>
        <time>2015-02-01T09:49:27Z</time>
      </trkpt>
      <trkpt lat="49.27061" lon="2.53693">
        <ele>59</ele>
        <time>2015-02-01T09:49:34Z</time>
      </trkpt>
      <trkpt lat="49.27065" lon="2.53702">
        <ele>59.5</ele>
        <time>2015-02-01T09:49:40Z</time>
      </trkpt>
      <trkpt lat="49.27071" lon="2.53709">
        <ele>59.6</ele>
        <time>2015-02-01T09:49:47Z</time>
      </trkpt>
      <trkpt lat="49.27077" lon="2.53717">
        <ele>60.1</ele>
        <time>2015-02-01T09:49:53Z</time>
      </trkpt>
      <trkpt lat="49.27081" lon="2.53727">
        <ele>60.6</ele>
        <time>2015-02-01T09:49:58Z</time>
      </trkpt>
      <trkpt lat="49.27084" lon="2.53738">
        <ele>61</ele>
        <time>2015-02-01T09:50:03Z</time>
      </trkpt>
      <trkpt lat="49.27089" lon="2.53749">
        <ele>61.7</ele>
        <time>2015-02-01T09:50:09Z</time>
      </trkpt>
      <trkpt lat="49.27093" lon="2.53755">
        <ele>62.3</ele>
        <time>2015-02-01T09:50:16Z</time>
      </trkpt>
      <trkpt lat="49.27099" lon="2.53762">
        <ele>63.1</ele>
        <time>2015-02-01T09:50:22Z</time>
      </trkpt>
      <trkpt lat="49.27102" lon="2.53769">
        <ele>64.2</ele>
        <time>2015-02-01T09:50:29Z</time>
      </trkpt>
      <trkpt lat="49.27106" lon="2.53779">
        <ele>65.2</ele>
        <time>2015-02-01T09:50:36Z</time>
      </trkpt>
      <trkpt lat="49.27111" lon="2.53788">
        <ele>65.7</ele>
        <time>2015-02-01T09:50:43Z</time>
      </trkpt>
      <trkpt lat="49.27114" lon="2.53796">
        <ele>65.9</ele>
        <time>2015-02-01T09:50:50Z</time>
      </trkpt>
      <trkpt lat="49.27116" lon="2.53807">
        <ele>65.8</ele>
        <time>2015-02-01T09:50:57Z</time>
      </trkpt>
      <trkpt lat="49.27121" lon="2.53815">
        <ele>66.5</ele>
        <time>2015-02-01T09:51:02Z</time>
      </trkpt>
      <trkpt lat="49.27123" lon="2.53829">
        <ele>67.9</ele>
        <time>2015-02-01T09:51:09Z</time>
      </trkpt>
      <trkpt lat="49.27125" lon="2.53841">
        <ele>68.8</ele>
        <time>2015-02-01T09:51:16Z</time>
      </trkpt>
      <trkpt lat="49.27125" lon="2.53853">
        <ele>69</ele>
        <time>2015-02-01T09:51:23Z</time>
      </trkpt>
      <trkpt lat="49.27125" lon="2.53865">
        <ele>69.2</ele>
        <time>2015-02-01T09:51:30Z</time>
      </trkpt>
      <trkpt lat="49.27125" lon="2.53874">
        <ele>69.3</ele>
        <time>2015-02-01T09:51:37Z</time>
      </trkpt>
      <trkpt lat="49.27125" lon="2.53883">
        <ele>69.6</ele>
        <time>2015-02-01T09:51:44Z</time>
      </trkpt>
      <trkpt lat="49.27124" lon="2.53895">
        <ele>69.8</ele>
        <time>2015-02-01T09:51:51Z</time>
      </trkpt>
      <trkpt lat="49.27118" lon="2.53904">
        <ele>69.9</ele>
        <time>2015-02-01T09:51:58Z</time>
      </trkpt>
      <trkpt lat="49.27116" lon="2.53915">
        <ele>70</ele>
        <time>2015-02-01T09:52:04Z</time>
      </trkpt>
      <trkpt lat="49.27114" lon="2.53924">
        <ele>70.6</ele>
        <time>2015-02-01T09:52:11Z</time>
      </trkpt>
      <trkpt lat="49.27114" lon="2.53933">
        <ele>70.5</ele>
        <time>2015-02-01T09:52:18Z</time>
      </trkpt>
      <trkpt lat="49.27113" lon="2.53941">
        <ele>70.5</ele>
        <time>2015-02-01T09:52:25Z</time>
      </trkpt>
      <trkpt lat="49.27113" lon="2.5395">
        <ele>70.6</ele>
        <time>2015-02-01T09:52:32Z</time>
      </trkpt>
      <trkpt lat="49.27112" lon="2.5396">
        <ele>70.5</ele>
        <time>2015-02-01T09:52:39Z</time>
      </trkpt>
      <trkpt lat="49.27109" lon="2.53966">
        <ele>70.5</ele>
        <time>2015-02-01T09:52:46Z</time>
      </trkpt>
      <trkpt lat="49.27107" lon="2.53977">
        <ele>70.4</ele>
        <time>2015-02-01T09:52:53Z</time>
      </trkpt>
      <trkpt lat="49.27103" lon="2.53988">
        <ele>70.2</ele>
        <time>2015-02-01T09:52:56Z</time>
      </trkpt>
      <trkpt lat="49.27101" lon="2.54">
        <ele>70.8</ele>
        <time>2015-02-01T09:53:00Z</time>
      </trkpt>
      <trkpt lat="49.27102" lon="2.54012">
        <ele>72</ele>
        <time>2015-02-01T09:53:07Z</time>
      </trkpt>
      <trkpt lat="49.27101" lon="2.5402">
        <ele>73</ele>
        <time>2015-02-01T09:53:14Z</time>
      </trkpt>
      <trkpt lat="49.27103" lon="2.5403">
        <ele>73.7</ele>
        <time>2015-02-01T09:53:21Z</time>
      </trkpt>
      <trkpt lat="49.27104" lon="2.54041">
        <ele>75</ele>
        <time>2015-02-01T09:53:27Z</time>
      </trkpt>
      <trkpt lat="49.27106" lon="2.54053">
        <ele>76.1</ele>
        <time>2015-02-01T09:53:31Z</time>
      </trkpt>
      <trkpt lat="49.27106" lon="2.54064">
        <ele>76.8</ele>
        <time>2015-02-01T09:53:37Z</time>
      </trkpt>
      <trkpt lat="49.27107" lon="2.54074">
        <ele>78.3</ele>
        <time>2015-02-01T09:53:44Z</time>
      </trkpt>
      <trkpt lat="49.27107" lon="2.54082">
        <ele>78.7</ele>
        <time>2015-02-01T09:53:51Z</time>
      </trkpt>
      <trkpt lat="49.27105" lon="2.54093">
        <ele>79</ele>
        <time>2015-02-01T09:53:58Z</time>
      </trkpt>
      <trkpt lat="49.27105" lon="2.54105">
        <ele>79.7</ele>
        <time>2015-02-01T09:54:04Z</time>
      </trkpt>
      <trkpt lat="49.27105" lon="2.54117">
        <ele>80.4</ele>
        <time>2015-02-01T09:54:09Z</time>
      </trkpt>
      <trkpt lat="49.27106" lon="2.54127">
        <ele>80.9</ele>
        <time>2015-02-01T09:54:14Z</time>
      </trkpt>
      <trkpt lat="49.27107" lon="2.54136">
        <ele>81.6</ele>
        <time>2015-02-01T09:54:21Z</time>
      </trkpt>
      <trkpt lat="49.27105" lon="2.54149">
        <ele>83.5</ele>
        <time>2015-02-01T09:54:28Z</time>
      </trkpt>
      <trkpt lat="49.27109" lon="2.54159">
        <ele>84.6</ele>
        <time>2015-02-01T09:54:34Z</time>
      </trkpt>
      <trkpt lat="49.27109" lon="2.5417">
        <ele>85.8</ele>
        <time>2015-02-01T09:54:41Z</time>
      </trkpt>
      <trkpt lat="49.27109" lon="2.5418">
        <ele>86.9</ele>
        <time>2015-02-01T09:54:48Z</time>
      </trkpt>
      <trkpt lat="49.27109" lon="2.54188">
        <ele>87.4</ele>
        <time>2015-02-01T09:54:55Z</time>
      </trkpt>
      <trkpt lat="49.27107" lon="2.54201">
        <ele>87.9</ele>
        <time>2015-02-01T09:55:02Z</time>
      </trkpt>
      <trkpt lat="49.27108" lon="2.54212">
        <ele>88</ele>
        <time>2015-02-01T09:55:07Z</time>
      </trkpt>
      <trkpt lat="49.27103" lon="2.54221">
        <ele>88.3</ele>
        <time>2015-02-01T09:55:14Z</time>
      </trkpt>
      <trkpt lat="49.27104" lon="2.54231">
        <ele>88.7</ele>
        <time>2015-02-01T09:55:21Z</time>
      </trkpt>
      <trkpt lat="49.27103" lon="2.54242">
        <ele>89</ele>
        <time>2015-02-01T09:55:28Z</time>
      </trkpt>
      <trkpt lat="49.27101" lon="2.54253">
        <ele>88.9</ele>
        <time>2015-02-01T09:55:32Z</time>
      </trkpt>
      <trkpt lat="49.27101" lon="2.54262">
        <ele>88.6</ele>
        <time>2015-02-01T09:55:39Z</time>
      </trkpt>
      <trkpt lat="49.27102" lon="2.54275">
        <ele>88.4</ele>
        <time>2015-02-01T09:55:45Z</time>
      </trkpt>
      <trkpt lat="49.27102" lon="2.54286">
        <ele>88.3</ele>
        <time>2015-02-01T09:55:52Z</time>
      </trkpt>
      <trkpt lat="49.271" lon="2.54297">
        <ele>88.6</ele>
        <time>2015-02-01T09:55:59Z</time>
      </trkpt>
      <trkpt lat="49.271" lon="2.54308">
        <ele>88.6</ele>
        <time>2015-02-01T09:56:06Z</time>
      </trkpt>
      <trkpt lat="49.27099" lon="2.54321">
        <ele>87.9</ele>
        <time>2015-02-01T09:56:11Z</time>
      </trkpt>
      <trkpt lat="49.27101" lon="2.54331">
        <ele>87.4</ele>
        <time>2015-02-01T09:56:16Z</time>
      </trkpt>
      <trkpt lat="49.27104" lon="2.54342">
        <ele>86.9</ele>
        <time>2015-02-01T09:56:22Z</time>
      </trkpt>
      <trkpt lat="49.27106" lon="2.54353">
        <ele>86.7</ele>
        <time>2015-02-01T09:56:28Z</time>
      </trkpt>
      <trkpt lat="49.27105" lon="2.54364">
        <ele>86.7</ele>
        <time>2015-02-01T09:56:35Z</time>
      </trkpt>
      <trkpt lat="49.27107" lon="2.54375">
        <ele>86.8</ele>
        <time>2015-02-01T09:56:42Z</time>
      </trkpt>
      <trkpt lat="49.27107" lon="2.54386">
        <ele>87</ele>
        <time>2015-02-01T09:56:48Z</time>
      </trkpt>
      <trkpt lat="49.27107" lon="2.54399">
        <ele>86.9</ele>
        <time>2015-02-01T09:56:52Z</time>
      </trkpt>
      <trkpt lat="49.27109" lon="2.54411">
        <ele>87</ele>
        <time>2015-02-01T09:56:57Z</time>
      </trkpt>
      <trkpt lat="49.27109" lon="2.54424">
        <ele>87.8</ele>
        <time>2015-02-01T09:57:04Z</time>
      </trkpt>
      <trkpt lat="49.27111" lon="2.54434">
        <ele>88.3</ele>
        <time>2015-02-01T09:57:11Z</time>
      </trkpt>
      <trkpt lat="49.27111" lon="2.54445">
        <ele>89.5</ele>
        <time>2015-02-01T09:57:18Z</time>
      </trkpt>
      <trkpt lat="49.27114" lon="2.54455">
        <ele>90.2</ele>
        <time>2015-02-01T09:57:23Z</time>
      </trkpt>
      <trkpt lat="49.27114" lon="2.54464">
        <ele>90.9</ele>
        <time>2015-02-01T09:57:30Z</time>
      </trkpt>
      <trkpt lat="49.27115" lon="2.54475">
        <ele>91.2</ele>
        <time>2015-02-01T09:57:37Z</time>
      </trkpt>
      <trkpt lat="49.27113" lon="2.54481">
        <ele>91.5</ele>
        <time>2015-02-01T09:57:44Z</time>
      </trkpt>
      <trkpt lat="49.27112" lon="2.54486">
        <ele>91.9</ele>
        <time>2015-02-01T09:57:51Z</time>
      </trkpt>
      <trkpt lat="49.27108" lon="2.54491">
        <ele>92.2</ele>
        <time>2015-02-01T09:57:58Z</time>
      </trkpt>
      <trkpt lat="49.27103" lon="2.545">
        <ele>92.5</ele>
        <time>2015-02-01T09:58:05Z</time>
      </trkpt>
      <trkpt lat="49.27099" lon="2.5451">
        <ele>92.5</ele>
        <time>2015-02-01T09:58:11Z</time>
      </trkpt>
      <trkpt lat="49.27095" lon="2.54521">
        <ele>92.2</ele>
        <time>2015-02-01T09:58:16Z</time>
      </trkpt>
      <trkpt lat="49.2709" lon="2.54529">
        <ele>92.2</ele>
        <time>2015-02-01T09:58:22Z</time>
      </trkpt>
      <trkpt lat="49.27085" lon="2.54536">
        <ele>92.5</ele>
        <time>2015-02-01T09:58:28Z</time>
      </trkpt>
      <trkpt lat="49.27079" lon="2.54544">
        <ele>92.5</ele>
        <time>2015-02-01T09:58:34Z</time>
      </trkpt>
      <trkpt lat="49.27073" lon="2.54551">
        <ele>92.3</ele>
        <time>2015-02-01T09:58:39Z</time>
      </trkpt>
      <trkpt lat="49.27068" lon="2.5456">
        <ele>91.7</ele>
        <time>2015-02-01T09:58:45Z</time>
      </trkpt>
      <trkpt lat="49.27061" lon="2.54567">
        <ele>91.3</ele>
        <time>2015-02-01T09:58:48Z</time>
      </trkpt>
      <trkpt lat="49.27056" lon="2.54574">
        <ele>90.9</ele>
        <time>2015-02-01T09:58:55Z</time>
      </trkpt>
      <trkpt lat="49.27049" lon="2.54582">
        <ele>91.3</ele>
        <time>2015-02-01T09:59:02Z</time>
      </trkpt>
      <trkpt lat="49.27045" lon="2.54591">
        <ele>91.6</ele>
        <time>2015-02-01T09:59:07Z</time>
      </trkpt>
      <trkpt lat="49.2704" lon="2.54599">
        <ele>91.8</ele>
        <time>2015-02-01T09:59:14Z</time>
      </trkpt>
      <trkpt lat="49.27034" lon="2.54606">
        <ele>92.1</ele>
        <time>2015-02-01T09:59:20Z</time>
      </trkpt>
      <trkpt lat="49.27029" lon="2.54614">
        <ele>92.4</ele>
        <time>2015-02-01T09:59:27Z</time>
      </trkpt>
      <trkpt lat="49.27025" lon="2.54623">
        <ele>92.7</ele>
        <time>2015-02-01T09:59:32Z</time>
      </trkpt>
      <trkpt lat="49.2702" lon="2.54633">
        <ele>93.4</ele>
        <time>2015-02-01T09:59:38Z</time>
      </trkpt>
      <trkpt lat="49.27015" lon="2.54642">
        <ele>93.7</ele>
        <time>2015-02-01T09:59:45Z</time>
      </trkpt>
      <trkpt lat="49.27011" lon="2.54655">
        <ele>94.3</ele>
        <time>2015-02-01T09:59:52Z</time>
      </trkpt>
      <trkpt lat="49.27007" lon="2.54665">
        <ele>95.3</ele>
        <time>2015-02-01T09:59:59Z</time>
      </trkpt>
      <trkpt lat="49.27002" lon="2.54671">
        <ele>95.6</ele>
        <time>2015-02-01T10:00:06Z</time>
      </trkpt>
      <trkpt lat="49.26997" lon="2.54678">
        <ele>96</ele>
        <time>2015-02-01T10:00:13Z</time>
      </trkpt>
      <trkpt lat="49.26991" lon="2.54686">
        <ele>96</ele>
        <time>2015-02-01T10:00:18Z</time>
      </trkpt>
      <trkpt lat="49.26983" lon="2.54694">
        <ele>96.2</ele>
        <time>2015-02-01T10:00:23Z</time>
      </trkpt>
      <trkpt lat="49.26976" lon="2.54703">
        <ele>96.3</ele>
        <time>2015-02-01T10:00:27Z</time>
      </trkpt>
      <trkpt lat="49.26971" lon="2.5471">
        <ele>96.4</ele>
        <time>2015-02-01T10:00:34Z</time>
      </trkpt>
      <trkpt lat="49.26965" lon="2.54719">
        <ele>96.1</ele>
        <time>2015-02-01T10:00:39Z</time>
      </trkpt>
      <trkpt lat="49.2696" lon="2.54729">
        <ele>95.9</ele>
        <time>2015-02-01T10:00:44Z</time>
      </trkpt>
      <trkpt lat="49.26956" lon="2.54739">
        <ele>95.2</ele>
        <time>2015-02-01T10:00:51Z</time>
      </trkpt>
      <trkpt lat="49.2695" lon="2.54749">
        <ele>94.1</ele>
        <time>2015-02-01T10:00:55Z</time>
      </trkpt>
      <trkpt lat="49.26944" lon="2.54758">
        <ele>93.3</ele>
        <time>2015-02-01T10:00:59Z</time>
      </trkpt>
      <trkpt lat="49.26939" lon="2.54769">
        <ele>92.3</ele>
        <time>2015-02-01T10:01:04Z</time>
      </trkpt>
      <trkpt lat="49.26937" lon="2.54773">
        <ele>91.1</ele>
        <time>2015-02-01T10:01:11Z</time>
      </trkpt>
      <trkpt lat="49.26931" lon="2.54781">
        <ele>90.7</ele>
        <time>2015-02-01T10:01:18Z</time>
      </trkpt>
      <trkpt lat="49.26925" lon="2.54785">
        <ele>90.1</ele>
        <time>2015-02-01T10:01:23Z</time>
      </trkpt>
      <trkpt lat="49.26918" lon="2.54789">
        <ele>89.1</ele>
        <time>2015-02-01T10:01:29Z</time>
      </trkpt>
      <trkpt lat="49.26912" lon="2.54797">
        <ele>88.5</ele>
        <time>2015-02-01T10:01:33Z</time>
      </trkpt>
      <trkpt lat="49.26905" lon="2.54804">
        <ele>87.6</ele>
        <time>2015-02-01T10:01:38Z</time>
      </trkpt>
      <trkpt lat="49.26899" lon="2.54807">
        <ele>86.6</ele>
        <time>2015-02-01T10:01:45Z</time>
      </trkpt>
      <trkpt lat="49.26894" lon="2.54816">
        <ele>85.8</ele>
        <time>2015-02-01T10:01:50Z</time>
      </trkpt>
      <trkpt lat="49.26888" lon="2.54824">
        <ele>85</ele>
        <time>2015-02-01T10:01:56Z</time>
      </trkpt>
      <trkpt lat="49.26881" lon="2.5483">
        <ele>83.8</ele>
        <time>2015-02-01T10:02:03Z</time>
      </trkpt>
      <trkpt lat="49.26875" lon="2.54838">
        <ele>83.4</ele>
        <time>2015-02-01T10:02:08Z</time>
      </trkpt>
      <trkpt lat="49.26871" lon="2.54848">
        <ele>82.3</ele>
        <time>2015-02-01T10:02:15Z</time>
      </trkpt>
      <trkpt lat="49.26867" lon="2.54858">
        <ele>81.2</ele>
        <time>2015-02-01T10:02:21Z</time>
      </trkpt>
      <trkpt lat="49.26863" lon="2.54868">
        <ele>80.6</ele>
        <time>2015-02-01T10:02:26Z</time>
      </trkpt>
      <trkpt lat="49.2686" lon="2.54879">
        <ele>79.5</ele>
        <time>2015-02-01T10:02:33Z</time>
      </trkpt>
      <trkpt lat="49.26857" lon="2.54889">
        <ele>79.2</ele>
        <time>2015-02-01T10:02:38Z</time>
      </trkpt>
      <trkpt lat="49.26854" lon="2.54899">
        <ele>79</ele>
        <time>2015-02-01T10:02:44Z</time>
      </trkpt>
      <trkpt lat="49.2685" lon="2.5491">
        <ele>78.7</ele>
        <time>2015-02-01T10:02:51Z</time>
      </trkpt>
      <trkpt lat="49.26847" lon="2.5492">
        <ele>78.8</ele>
        <time>2015-02-01T10:02:57Z</time>
      </trkpt>
      <trkpt lat="49.26843" lon="2.54932">
        <ele>78.8</ele>
        <time>2015-02-01T10:03:03Z</time>
      </trkpt>
      <trkpt lat="49.26841" lon="2.54944">
        <ele>78.9</ele>
        <time>2015-02-01T10:03:10Z</time>
      </trkpt>
      <trkpt lat="49.26838" lon="2.54956">
        <ele>79.2</ele>
        <time>2015-02-01T10:03:16Z</time>
      </trkpt>
      <trkpt lat="49.26837" lon="2.54966">
        <ele>79.7</ele>
        <time>2015-02-01T10:03:23Z</time>
      </trkpt>
      <trkpt lat="49.26837" lon="2.54978">
        <ele>80.4</ele>
        <time>2015-02-01T10:03:30Z</time>
      </trkpt>
      <trkpt lat="49.26838" lon="2.54991">
        <ele>80.7</ele>
        <time>2015-02-01T10:03:35Z</time>
      </trkpt>
      <trkpt lat="49.2684" lon="2.55004">
        <ele>81.1</ele>
        <time>2015-02-01T10:03:40Z</time>
      </trkpt>
      <trkpt lat="49.26842" lon="2.55015">
        <ele>81.4</ele>
        <time>2015-02-01T10:03:47Z</time>
      </trkpt>
      <trkpt lat="49.26841" lon="2.55028">
        <ele>82</ele>
        <time>2015-02-01T10:03:53Z</time>
      </trkpt>
      <trkpt lat="49.26842" lon="2.5504">
        <ele>82.8</ele>
        <time>2015-02-01T10:03:59Z</time>
      </trkpt>
      <trkpt lat="49.26844" lon="2.55051">
        <ele>83.6</ele>
        <time>2015-02-01T10:04:05Z</time>
      </trkpt>
      <trkpt lat="49.26845" lon="2.55062">
        <ele>84</ele>
        <time>2015-02-01T10:04:09Z</time>
      </trkpt>
      <trkpt lat="49.26844" lon="2.55073">
        <ele>85.6</ele>
        <time>2015-02-01T10:04:16Z</time>
      </trkpt>
      <trkpt lat="49.26845" lon="2.55084">
        <ele>86.5</ele>
        <time>2015-02-01T10:04:21Z</time>
      </trkpt>
      <trkpt lat="49.26845" lon="2.55095">
        <ele>87.6</ele>
        <time>2015-02-01T10:04:28Z</time>
      </trkpt>
      <trkpt lat="49.2684" lon="2.55103">
        <ele>88.9</ele>
        <time>2015-02-01T10:04:34Z</time>
      </trkpt>
      <trkpt lat="49.26835" lon="2.55112">
        <ele>90.5</ele>
        <time>2015-02-01T10:04:38Z</time>
      </trkpt>
      <trkpt lat="49.26829" lon="2.55121">
        <ele>92</ele>
        <time>2015-02-01T10:04:44Z</time>
      </trkpt>
      <trkpt lat="49.26825" lon="2.55124">
        <ele>94.2</ele>
        <time>2015-02-01T10:04:51Z</time>
      </trkpt>
      <trkpt lat="49.26819" lon="2.55132">
        <ele>95.8</ele>
        <time>2015-02-01T10:04:58Z</time>
      </trkpt>
      <trkpt lat="49.26813" lon="2.55141">
        <ele>97.3</ele>
        <time>2015-02-01T10:05:04Z</time>
      </trkpt>
      <trkpt lat="49.26807" lon="2.55149">
        <ele>98.7</ele>
        <time>2015-02-01T10:05:11Z</time>
      </trkpt>
      <trkpt lat="49.26802" lon="2.55158">
        <ele>99.5</ele>
        <time>2015-02-01T10:05:16Z</time>
      </trkpt>
      <trkpt lat="49.26796" lon="2.55167">
        <ele>99.6</ele>
        <time>2015-02-01T10:05:21Z</time>
      </trkpt>
      <trkpt lat="49.2679" lon="2.55176">
        <ele>99.8</ele>
        <time>2015-02-01T10:05:26Z</time>
      </trkpt>
      <trkpt lat="49.26784" lon="2.55184">
        <ele>100.3</ele>
        <time>2015-02-01T10:05:33Z</time>
      </trkpt>
      <trkpt lat="49.26779" lon="2.55193">
        <ele>100.4</ele>
        <time>2015-02-01T10:05:40Z</time>
      </trkpt>
      <trkpt lat="49.26773" lon="2.55203">
        <ele>100.9</ele>
        <time>2015-02-01T10:05:47Z</time>
      </trkpt>
      <trkpt lat="49.26766" lon="2.5521">
        <ele>100.8</ele>
        <time>2015-02-01T10:05:51Z</time>
      </trkpt>
      <trkpt lat="49.2676" lon="2.55216">
        <ele>100.9</ele>
        <time>2015-02-01T10:05:58Z</time>
      </trkpt>
      <trkpt lat="49.26755" lon="2.55225">
        <ele>100.9</ele>
        <time>2015-02-01T10:06:05Z</time>
      </trkpt>
      <trkpt lat="49.26749" lon="2.55231">
        <ele>101.4</ele>
        <time>2015-02-01T10:06:12Z</time>
      </trkpt>
      <trkpt lat="49.26743" lon="2.55236">
        <ele>101.9</ele>
        <time>2015-02-01T10:06:18Z</time>
      </trkpt>
      <trkpt lat="49.26737" lon="2.55246">
        <ele>102.6</ele>
        <time>2015-02-01T10:06:24Z</time>
      </trkpt>
      <trkpt lat="49.26731" lon="2.55255">
        <ele>102.3</ele>
        <time>2015-02-01T10:06:31Z</time>
      </trkpt>
      <trkpt lat="49.26726" lon="2.55262">
        <ele>102.4</ele>
        <time>2015-02-01T10:06:38Z</time>
      </trkpt>
      <trkpt lat="49.2672" lon="2.5527">
        <ele>102.2</ele>
        <time>2015-02-01T10:06:43Z</time>
      </trkpt>
      <trkpt lat="49.26713" lon="2.55279">
        <ele>101.9</ele>
        <time>2015-02-01T10:06:48Z</time>
      </trkpt>
      <trkpt lat="49.26707" lon="2.55288">
        <ele>101.6</ele>
        <time>2015-02-01T10:06:53Z</time>
      </trkpt>
      <trkpt lat="49.26701" lon="2.55297">
        <ele>101.1</ele>
        <time>2015-02-01T10:07:00Z</time>
      </trkpt>
      <trkpt lat="49.26695" lon="2.55305">
        <ele>100.6</ele>
        <time>2015-02-01T10:07:06Z</time>
      </trkpt>
      <trkpt lat="49.26689" lon="2.55312">
        <ele>100</ele>
        <time>2015-02-01T10:07:12Z</time>
      </trkpt>
      <trkpt lat="49.26681" lon="2.5532">
        <ele>99.6</ele>
        <time>2015-02-01T10:07:18Z</time>
      </trkpt>
      <trkpt lat="49.26676" lon="2.55328">
        <ele>99.8</ele>
        <time>2015-02-01T10:07:24Z</time>
      </trkpt>
      <trkpt lat="49.2667" lon="2.55337">
        <ele>99.7</ele>
        <time>2015-02-01T10:07:31Z</time>
      </trkpt>
      <trkpt lat="49.26666" lon="2.55344">
        <ele>99.4</ele>
        <time>2015-02-01T10:07:38Z</time>
      </trkpt>
      <trkpt lat="49.26661" lon="2.55351">
        <ele>98.9</ele>
        <time>2015-02-01T10:07:43Z</time>
      </trkpt>
      <trkpt lat="49.26654" lon="2.55356">
        <ele>98.2</ele>
        <time>2015-02-01T10:07:50Z</time>
      </trkpt>
      <trkpt lat="49.26648" lon="2.55364">
        <ele>97.9</ele>
        <time>2015-02-01T10:07:56Z</time>
      </trkpt>
      <trkpt lat="49.26643" lon="2.55373">
        <ele>97.3</ele>
        <time>2015-02-01T10:08:01Z</time>
      </trkpt>
      <trkpt lat="49.26638" lon="2.55383">
        <ele>96.9</ele>
        <time>2015-02-01T10:08:06Z</time>
      </trkpt>
      <trkpt lat="49.26634" lon="2.55392">
        <ele>96.3</ele>
        <time>2015-02-01T10:08:13Z</time>
      </trkpt>
      <trkpt lat="49.26628" lon="2.55401">
        <ele>95.3</ele>
        <time>2015-02-01T10:08:19Z</time>
      </trkpt>
      <trkpt lat="49.26623" lon="2.55409">
        <ele>94.8</ele>
        <time>2015-02-01T10:08:26Z</time>
      </trkpt>
      <trkpt lat="49.26617" lon="2.55417">
        <ele>94.6</ele>
        <time>2015-02-01T10:08:32Z</time>
      </trkpt>
      <trkpt lat="49.26611" lon="2.55425">
        <ele>94.2</ele>
        <time>2015-02-01T10:08:39Z</time>
      </trkpt>
      <trkpt lat="49.26606" lon="2.55433">
        <ele>93.9</ele>
        <time>2015-02-01T10:08:44Z</time>
      </trkpt>
      <trkpt lat="49.26599" lon="2.55443">
        <ele>93</ele>
        <time>2015-02-01T10:08:49Z</time>
      </trkpt>
      <trkpt lat="49.26593" lon="2.5545">
        <ele>92</ele>
        <time>2015-02-01T10:08:56Z</time>
      </trkpt>
      <trkpt lat="49.26587" lon="2.55459">
        <ele>91.6</ele>
        <time>2015-02-01T10:09:02Z</time>
      </trkpt>
      <trkpt lat="49.26582" lon="2.55468">
        <ele>91.2</ele>
        <time>2015-02-01T10:09:08Z</time>
      </trkpt>
      <trkpt lat="49.26577" lon="2.55475">
        <ele>90.4</ele>
        <time>2015-02-01T10:09:14Z</time>
      </trkpt>
      <trkpt lat="49.26572" lon="2.55483">
        <ele>90</ele>
        <time>2015-02-01T10:09:20Z</time>
      </trkpt>
      <trkpt lat="49.26567" lon="2.55493">
        <ele>89.7</ele>
        <time>2015-02-01T10:09:26Z</time>
      </trkpt>
      <trkpt lat="49.26561" lon="2.55499">
        <ele>89.4</ele>
        <time>2015-02-01T10:09:32Z</time>
      </trkpt>
      <trkpt lat="49.26555" lon="2.55508">
        <ele>89.4</ele>
        <time>2015-02-01T10:09:38Z</time>
      </trkpt>
      <trkpt lat="49.26548" lon="2.55516">
        <ele>88.9</ele>
        <time>2015-02-01T10:09:43Z</time>
      </trkpt>
      <trkpt lat="49.26541" lon="2.55523">
        <ele>88.3</ele>
        <time>2015-02-01T10:09:50Z</time>
      </trkpt>
      <trkpt lat="49.26538" lon="2.55534">
        <ele>87.9</ele>
        <time>2015-02-01T10:09:56Z</time>
      </trkpt>
      <trkpt lat="49.26533" lon="2.55543">
        <ele>87</ele>
        <time>2015-02-01T10:10:02Z</time>
      </trkpt>
      <trkpt lat="49.26528" lon="2.55551">
        <ele>86.6</ele>
        <time>2015-02-01T10:10:08Z</time>
      </trkpt>
      <trkpt lat="49.26522" lon="2.55561">
        <ele>86.4</ele>
        <time>2015-02-01T10:10:14Z</time>
      </trkpt>
      <trkpt lat="49.26519" lon="2.55569">
        <ele>86</ele>
        <time>2015-02-01T10:10:21Z</time>
      </trkpt>
      <trkpt lat="49.26512" lon="2.55575">
        <ele>85.8</ele>
        <time>2015-02-01T10:10:26Z</time>
      </trkpt>
      <trkpt lat="49.26506" lon="2.55584">
        <ele>85.3</ele>
        <time>2015-02-01T10:10:32Z</time>
      </trkpt>
      <trkpt lat="49.26501" lon="2.55591">
        <ele>84.9</ele>
        <time>2015-02-01T10:10:39Z</time>
      </trkpt>
      <trkpt lat="49.26494" lon="2.55597">
        <ele>84.5</ele>
        <time>2015-02-01T10:10:45Z</time>
      </trkpt>
      <trkpt lat="49.26486" lon="2.55604">
        <ele>84.6</ele>
        <time>2015-02-01T10:10:51Z</time>
      </trkpt>
      <trkpt lat="49.26481" lon="2.55612">
        <ele>85</ele>
        <time>2015-02-01T10:10:58Z</time>
      </trkpt>
      <trkpt lat="49.26476" lon="2.55622">
        <ele>84.9</ele>
        <time>2015-02-01T10:11:04Z</time>
      </trkpt>
      <trkpt lat="49.26473" lon="2.55633">
        <ele>84.7</ele>
        <time>2015-02-01T10:11:10Z</time>
      </trkpt>
      <trkpt lat="49.26467" lon="2.5564">
        <ele>84.3</ele>
        <time>2015-02-01T10:11:15Z</time>
      </trkpt>
      <trkpt lat="49.2646" lon="2.55645">
        <ele>83.8</ele>
        <time>2015-02-01T10:11:20Z</time>
      </trkpt>
      <trkpt lat="49.26455" lon="2.55651">
        <ele>83.5</ele>
        <time>2015-02-01T10:11:27Z</time>
      </trkpt>
      <trkpt lat="49.2645" lon="2.5566">
        <ele>83.8</ele>
        <time>2015-02-01T10:11:34Z</time>
      </trkpt>
      <trkpt lat="49.26445" lon="2.55664">
        <ele>84.2</ele>
        <time>2015-02-01T10:11:41Z</time>
      </trkpt>
      <trkpt lat="49.26444" lon="2.55664">
        <ele>85.4</ele>
        <time>2015-02-01T10:11:48Z</time>
      </trkpt>
      <trkpt lat="49.26445" lon="2.55665">
        <ele>86</ele>
        <time>2015-02-01T10:11:55Z</time>
      </trkpt>
      <trkpt lat="49.26441" lon="2.55674">
        <ele>87.2</ele>
        <time>2015-02-01T10:12:02Z</time>
      </trkpt>
      <trkpt lat="49.26434" lon="2.55688">
        <ele>93.5</ele>
        <time>2015-02-01T10:17:21Z</time>
      </trkpt>
      <trkpt lat="49.26428" lon="2.55696">
        <ele>93.8</ele>
        <time>2015-02-01T10:17:26Z</time>
      </trkpt>
      <trkpt lat="49.26421" lon="2.55702">
        <ele>94.1</ele>
        <time>2015-02-01T10:17:32Z</time>
      </trkpt>
      <trkpt lat="49.26415" lon="2.55709">
        <ele>94.3</ele>
        <time>2015-02-01T10:17:39Z</time>
      </trkpt>
      <trkpt lat="49.2641" lon="2.55717">
        <ele>94.7</ele>
        <time>2015-02-01T10:17:45Z</time>
      </trkpt>
      <trkpt lat="49.26404" lon="2.55726">
        <ele>95</ele>
        <time>2015-02-01T10:17:52Z</time>
      </trkpt>
      <trkpt lat="49.264" lon="2.55737">
        <ele>95.2</ele>
        <time>2015-02-01T10:17:57Z</time>
      </trkpt>
      <trkpt lat="49.26394" lon="2.55742">
        <ele>95.4</ele>
        <time>2015-02-01T10:18:04Z</time>
      </trkpt>
      <trkpt lat="49.26387" lon="2.55749">
        <ele>95.5</ele>
        <time>2015-02-01T10:18:09Z</time>
      </trkpt>
      <trkpt lat="49.2638" lon="2.55753">
        <ele>95.3</ele>
        <time>2015-02-01T10:18:16Z</time>
      </trkpt>
      <trkpt lat="49.26374" lon="2.55758">
        <ele>95.4</ele>
        <time>2015-02-01T10:18:23Z</time>
      </trkpt>
      <trkpt lat="49.26367" lon="2.55765">
        <ele>95.7</ele>
        <time>2015-02-01T10:18:29Z</time>
      </trkpt>
      <trkpt lat="49.2636" lon="2.5577">
        <ele>96.1</ele>
        <time>2015-02-01T10:18:35Z</time>
      </trkpt>
      <trkpt lat="49.26355" lon="2.5578">
        <ele>96.3</ele>
        <time>2015-02-01T10:18:42Z</time>
      </trkpt>
      <trkpt lat="49.2635" lon="2.55782">
        <ele>96.6</ele>
        <time>2015-02-01T10:18:49Z</time>
      </trkpt>
      <trkpt lat="49.26348" lon="2.55788">
        <ele>96.6</ele>
        <time>2015-02-01T10:18:56Z</time>
      </trkpt>
      <trkpt lat="49.26343" lon="2.55795">
        <ele>96.8</ele>
        <time>2015-02-01T10:19:03Z</time>
      </trkpt>
      <trkpt lat="49.26339" lon="2.55805">
        <ele>96.8</ele>
        <time>2015-02-01T10:19:10Z</time>
      </trkpt>
      <trkpt lat="49.26333" lon="2.55814">
        <ele>97</ele>
        <time>2015-02-01T10:19:17Z</time>
      </trkpt>
      <trkpt lat="49.26328" lon="2.55824">
        <ele>97.1</ele>
        <time>2015-02-01T10:19:22Z</time>
      </trkpt>
      <trkpt lat="49.26325" lon="2.55834">
        <ele>97.6</ele>
        <time>2015-02-01T10:19:25Z</time>
      </trkpt>
      <trkpt lat="49.26321" lon="2.55845">
        <ele>97.6</ele>
        <time>2015-02-01T10:19:32Z</time>
      </trkpt>
      <trkpt lat="49.26316" lon="2.55848">
        <ele>97.9</ele>
        <time>2015-02-01T10:19:39Z</time>
      </trkpt>
      <trkpt lat="49.2631" lon="2.5585">
        <ele>98.2</ele>
        <time>2015-02-01T10:19:46Z</time>
      </trkpt>
      <trkpt lat="49.26305" lon="2.55858">
        <ele>98.5</ele>
        <time>2015-02-01T10:19:52Z</time>
      </trkpt>
      <trkpt lat="49.26299" lon="2.55867">
        <ele>98.9</ele>
        <time>2015-02-01T10:19:59Z</time>
      </trkpt>
      <trkpt lat="49.26295" lon="2.55876">
        <ele>99.3</ele>
        <time>2015-02-01T10:20:05Z</time>
      </trkpt>
      <trkpt lat="49.26288" lon="2.55881">
        <ele>99.3</ele>
        <time>2015-02-01T10:20:12Z</time>
      </trkpt>
      <trkpt lat="49.26283" lon="2.5589">
        <ele>99</ele>
        <time>2015-02-01T10:20:18Z</time>
      </trkpt>
      <trkpt lat="49.26276" lon="2.55898">
        <ele>98.8</ele>
        <time>2015-02-01T10:20:23Z</time>
      </trkpt>
      <trkpt lat="49.2627" lon="2.55906">
        <ele>98.3</ele>
        <time>2015-02-01T10:20:29Z</time>
      </trkpt>
      <trkpt lat="49.26262" lon="2.5591">
        <ele>98.4</ele>
        <time>2015-02-01T10:20:36Z</time>
      </trkpt>
      <trkpt lat="49.26256" lon="2.55915">
        <ele>98.5</ele>
        <time>2015-02-01T10:20:43Z</time>
      </trkpt>
      <trkpt lat="49.26253" lon="2.55923">
        <ele>98.8</ele>
        <time>2015-02-01T10:20:50Z</time>
      </trkpt>
      <trkpt lat="49.2625" lon="2.5593">
        <ele>98.9</ele>
        <time>2015-02-01T10:20:57Z</time>
      </trkpt>
      <trkpt lat="49.26246" lon="2.55937">
        <ele>98.8</ele>
        <time>2015-02-01T10:21:04Z</time>
      </trkpt>
      <trkpt lat="49.26243" lon="2.55943">
        <ele>98.7</ele>
        <time>2015-02-01T10:21:11Z</time>
      </trkpt>
      <trkpt lat="49.2624" lon="2.55948">
        <ele>98.4</ele>
        <time>2015-02-01T10:21:18Z</time>
      </trkpt>
      <trkpt lat="49.26234" lon="2.55952">
        <ele>98.2</ele>
        <time>2015-02-01T10:21:25Z</time>
      </trkpt>
      <trkpt lat="49.2623" lon="2.55955">
        <ele>98.2</ele>
        <time>2015-02-01T10:21:32Z</time>
      </trkpt>
      <trkpt lat="49.26227" lon="2.55963">
        <ele>98.1</ele>
        <time>2015-02-01T10:21:39Z</time>
      </trkpt>
      <trkpt lat="49.26223" lon="2.5597">
        <ele>98.4</ele>
        <time>2015-02-01T10:21:46Z</time>
      </trkpt>
      <trkpt lat="49.26218" lon="2.55975">
        <ele>98.6</ele>
        <time>2015-02-01T10:21:53Z</time>
      </trkpt>
      <trkpt lat="49.26215" lon="2.55981">
        <ele>98.7</ele>
        <time>2015-02-01T10:22:00Z</time>
      </trkpt>
      <trkpt lat="49.26207" lon="2.55992">
        <ele>98.5</ele>
        <time>2015-02-01T10:22:07Z</time>
      </trkpt>
      <trkpt lat="49.26202" lon="2.55999">
        <ele>98.2</ele>
        <time>2015-02-01T10:22:13Z</time>
      </trkpt>
      <trkpt lat="49.26199" lon="2.56007">
        <ele>97.8</ele>
        <time>2015-02-01T10:22:20Z</time>
      </trkpt>
      <trkpt lat="49.26196" lon="2.56018">
        <ele>97.7</ele>
        <time>2015-02-01T10:22:26Z</time>
      </trkpt>
      <trkpt lat="49.26191" lon="2.56029">
        <ele>97.6</ele>
        <time>2015-02-01T10:22:31Z</time>
      </trkpt>
      <trkpt lat="49.26188" lon="2.56036">
        <ele>97</ele>
        <time>2015-02-01T10:22:38Z</time>
      </trkpt>
      <trkpt lat="49.26184" lon="2.56037">
        <ele>96.9</ele>
        <time>2015-02-01T10:22:45Z</time>
      </trkpt>
      <trkpt lat="49.26177" lon="2.5604">
        <ele>96.3</ele>
        <time>2015-02-01T10:22:51Z</time>
      </trkpt>
      <trkpt lat="49.26171" lon="2.56046">
        <ele>96</ele>
        <time>2015-02-01T10:22:58Z</time>
      </trkpt>
      <trkpt lat="49.26171" lon="2.56047">
        <ele>95.9</ele>
        <time>2015-02-01T10:23:05Z</time>
      </trkpt>
      <trkpt lat="49.26174" lon="2.56048">
        <ele>96.4</ele>
        <time>2015-02-01T10:23:20Z</time>
      </trkpt>
      <trkpt lat="49.26169" lon="2.56057">
        <ele>95.7</ele>
        <time>2015-02-01T10:23:58Z</time>
      </trkpt>
      <trkpt lat="49.26166" lon="2.56067">
        <ele>94.7</ele>
        <time>2015-02-01T10:24:05Z</time>
      </trkpt>
      <trkpt lat="49.26162" lon="2.56077">
        <ele>94.3</ele>
        <time>2015-02-01T10:24:11Z</time>
      </trkpt>
      <trkpt lat="49.26156" lon="2.5608">
        <ele>93.7</ele>
        <time>2015-02-01T10:24:18Z</time>
      </trkpt>
      <trkpt lat="49.2615" lon="2.56086">
        <ele>93.1</ele>
        <time>2015-02-01T10:24:24Z</time>
      </trkpt>
      <trkpt lat="49.26143" lon="2.56093">
        <ele>92.9</ele>
        <time>2015-02-01T10:24:29Z</time>
      </trkpt>
      <trkpt lat="49.26138" lon="2.56101">
        <ele>92.4</ele>
        <time>2015-02-01T10:24:35Z</time>
      </trkpt>
      <trkpt lat="49.26132" lon="2.5611">
        <ele>92</ele>
        <time>2015-02-01T10:24:41Z</time>
      </trkpt>
      <trkpt lat="49.26126" lon="2.56117">
        <ele>91.7</ele>
        <time>2015-02-01T10:24:46Z</time>
      </trkpt>
      <trkpt lat="49.26121" lon="2.56127">
        <ele>90.9</ele>
        <time>2015-02-01T10:24:52Z</time>
      </trkpt>
      <trkpt lat="49.26115" lon="2.56135">
        <ele>89.6</ele>
        <time>2015-02-01T10:24:59Z</time>
      </trkpt>
      <trkpt lat="49.26109" lon="2.56142">
        <ele>88.8</ele>
        <time>2015-02-01T10:25:05Z</time>
      </trkpt>
      <trkpt lat="49.26104" lon="2.56151">
        <ele>87.9</ele>
        <time>2015-02-01T10:25:12Z</time>
      </trkpt>
      <trkpt lat="49.26099" lon="2.5616">
        <ele>87.7</ele>
        <time>2015-02-01T10:25:19Z</time>
      </trkpt>
      <trkpt lat="49.26092" lon="2.56166">
        <ele>87.5</ele>
        <time>2015-02-01T10:25:26Z</time>
      </trkpt>
      <trkpt lat="49.26087" lon="2.56173">
        <ele>86</ele>
        <time>2015-02-01T10:25:33Z</time>
      </trkpt>
      <trkpt lat="49.2608" lon="2.56177">
        <ele>86.3</ele>
        <time>2015-02-01T10:25:40Z</time>
      </trkpt>
      <trkpt lat="49.26075" lon="2.56185">
        <ele>85.2</ele>
        <time>2015-02-01T10:25:47Z</time>
      </trkpt>
      <trkpt lat="49.2607" lon="2.56192">
        <ele>84.9</ele>
        <time>2015-02-01T10:25:52Z</time>
      </trkpt>
      <trkpt lat="49.26065" lon="2.56201">
        <ele>85.1</ele>
        <time>2015-02-01T10:25:58Z</time>
      </trkpt>
      <trkpt lat="49.26061" lon="2.56212">
        <ele>86.1</ele>
        <time>2015-02-01T10:26:04Z</time>
      </trkpt>
      <trkpt lat="49.26055" lon="2.5622">
        <ele>86.7</ele>
        <time>2015-02-01T10:26:10Z</time>
      </trkpt>
      <trkpt lat="49.26048" lon="2.56226">
        <ele>87.1</ele>
        <time>2015-02-01T10:26:17Z</time>
      </trkpt>
      <trkpt lat="49.26044" lon="2.56231">
        <ele>87.6</ele>
        <time>2015-02-01T10:26:24Z</time>
      </trkpt>
      <trkpt lat="49.26036" lon="2.56237">
        <ele>88.2</ele>
        <time>2015-02-01T10:26:31Z</time>
      </trkpt>
      <trkpt lat="49.2603" lon="2.56244">
        <ele>88.9</ele>
        <time>2015-02-01T10:26:36Z</time>
      </trkpt>
      <trkpt lat="49.26025" lon="2.56252">
        <ele>89.8</ele>
        <time>2015-02-01T10:26:43Z</time>
      </trkpt>
      <trkpt lat="49.26019" lon="2.56257">
        <ele>90.5</ele>
        <time>2015-02-01T10:26:50Z</time>
      </trkpt>
      <trkpt lat="49.26014" lon="2.56264">
        <ele>91.5</ele>
        <time>2015-02-01T10:26:57Z</time>
      </trkpt>
      <trkpt lat="49.2601" lon="2.56269">
        <ele>92.5</ele>
        <time>2015-02-01T10:27:04Z</time>
      </trkpt>
      <trkpt lat="49.2601" lon="2.56274">
        <ele>93.1</ele>
        <time>2015-02-01T10:27:11Z</time>
      </trkpt>
      <trkpt lat="49.26003" lon="2.56278">
        <ele>93.4</ele>
        <time>2015-02-01T10:27:28Z</time>
      </trkpt>
      <trkpt lat="49.25997" lon="2.56285">
        <ele>93.4</ele>
        <time>2015-02-01T10:27:35Z</time>
      </trkpt>
      <trkpt lat="49.25997" lon="2.56288">
        <ele>94.5</ele>
        <time>2015-02-01T10:27:42Z</time>
      </trkpt>
      <trkpt lat="49.25995" lon="2.56294">
        <ele>93.2</ele>
        <time>2015-02-01T10:27:49Z</time>
      </trkpt>
      <trkpt lat="49.25992" lon="2.56297">
        <ele>91.7</ele>
        <time>2015-02-01T10:27:56Z</time>
      </trkpt>
      <trkpt lat="49.25988" lon="2.56302">
        <ele>90.5</ele>
        <time>2015-02-01T10:28:03Z</time>
      </trkpt>
      <trkpt lat="49.25986" lon="2.56308">
        <ele>89.3</ele>
        <time>2015-02-01T10:28:10Z</time>
      </trkpt>
      <trkpt lat="49.25981" lon="2.56317">
        <ele>88.1</ele>
        <time>2015-02-01T10:28:17Z</time>
      </trkpt>
      <trkpt lat="49.25976" lon="2.56326">
        <ele>87.3</ele>
        <time>2015-02-01T10:28:23Z</time>
      </trkpt>
      <trkpt lat="49.25975" lon="2.56332">
        <ele>86.2</ele>
        <time>2015-02-01T10:28:30Z</time>
      </trkpt>
      <trkpt lat="49.25974" lon="2.56337">
        <ele>84.9</ele>
        <time>2015-02-01T10:28:37Z</time>
      </trkpt>
      <trkpt lat="49.25971" lon="2.56344">
        <ele>83.7</ele>
        <time>2015-02-01T10:28:44Z</time>
      </trkpt>
      <trkpt lat="49.25966" lon="2.56347">
        <ele>83.1</ele>
        <time>2015-02-01T10:28:51Z</time>
      </trkpt>
      <trkpt lat="49.25963" lon="2.56349">
        <ele>82.4</ele>
        <time>2015-02-01T10:28:58Z</time>
      </trkpt>
      <trkpt lat="49.25959" lon="2.56354">
        <ele>81.7</ele>
        <time>2015-02-01T10:29:05Z</time>
      </trkpt>
      <trkpt lat="49.25956" lon="2.56359">
        <ele>81</ele>
        <time>2015-02-01T10:29:12Z</time>
      </trkpt>
      <trkpt lat="49.25953" lon="2.56363">
        <ele>80.5</ele>
        <time>2015-02-01T10:29:19Z</time>
      </trkpt>
      <trkpt lat="49.25949" lon="2.56369">
        <ele>79.9</ele>
        <time>2015-02-01T10:29:26Z</time>
      </trkpt>
      <trkpt lat="49.25943" lon="2.56377">
        <ele>79.4</ele>
        <time>2015-02-01T10:29:33Z</time>
      </trkpt>
      <trkpt lat="49.25938" lon="2.56382">
        <ele>78.6</ele>
        <time>2015-02-01T10:29:40Z</time>
      </trkpt>
      <trkpt lat="49.25932" lon="2.56387">
        <ele>77.8</ele>
        <time>2015-02-01T10:29:47Z</time>
      </trkpt>
      <trkpt lat="49.25928" lon="2.56394">
        <ele>77.2</ele>
        <time>2015-02-01T10:29:54Z</time>
      </trkpt>
      <trkpt lat="49.25924" lon="2.564">
        <ele>76.6</ele>
        <time>2015-02-01T10:30:01Z</time>
      </trkpt>
      <trkpt lat="49.25919" lon="2.56404">
        <ele>76</ele>
        <time>2015-02-01T10:30:08Z</time>
      </trkpt>
      <trkpt lat="49.25914" lon="2.5641">
        <ele>75.6</ele>
        <time>2015-02-01T10:30:15Z</time>
      </trkpt>
      <trkpt lat="49.25911" lon="2.56414">
        <ele>75</ele>
        <time>2015-02-01T10:30:22Z</time>
      </trkpt>
      <trkpt lat="49.2591" lon="2.56419">
        <ele>74.5</ele>
        <time>2015-02-01T10:30:29Z</time>
      </trkpt>
      <trkpt lat="49.25908" lon="2.56424">
        <ele>73.9</ele>
        <time>2015-02-01T10:30:36Z</time>
      </trkpt>
      <trkpt lat="49.25906" lon="2.56428">
        <ele>73.5</ele>
        <time>2015-02-01T10:30:43Z</time>
      </trkpt>
      <trkpt lat="49.25902" lon="2.56436">
        <ele>72.9</ele>
        <time>2015-02-01T10:30:50Z</time>
      </trkpt>
      <trkpt lat="49.259" lon="2.56443">
        <ele>72.6</ele>
        <time>2015-02-01T10:30:57Z</time>
      </trkpt>
      <trkpt lat="49.25895" lon="2.56452">
        <ele>72.1</ele>
        <time>2015-02-01T10:31:04Z</time>
      </trkpt>
      <trkpt lat="49.25889" lon="2.56462">
        <ele>71.8</ele>
        <time>2015-02-01T10:31:10Z</time>
      </trkpt>
      <trkpt lat="49.25882" lon="2.56468">
        <ele>71.9</ele>
        <time>2015-02-01T10:31:16Z</time>
      </trkpt>
      <trkpt lat="49.25877" lon="2.56471">
        <ele>71.5</ele>
        <time>2015-02-01T10:31:23Z</time>
      </trkpt>
      <trkpt lat="49.25874" lon="2.56476">
        <ele>71.8</ele>
        <time>2015-02-01T10:31:30Z</time>
      </trkpt>
      <trkpt lat="49.25869" lon="2.56483">
        <ele>72</ele>
        <time>2015-02-01T10:31:37Z</time>
      </trkpt>
      <trkpt lat="49.25865" lon="2.56491">
        <ele>72.3</ele>
        <time>2015-02-01T10:31:44Z</time>
      </trkpt>
      <trkpt lat="49.25862" lon="2.565">
        <ele>72.6</ele>
        <time>2015-02-01T10:31:51Z</time>
      </trkpt>
      <trkpt lat="49.25857" lon="2.56508">
        <ele>73</ele>
        <time>2015-02-01T10:31:57Z</time>
      </trkpt>
      <trkpt lat="49.25851" lon="2.56514">
        <ele>73</ele>
        <time>2015-02-01T10:32:01Z</time>
      </trkpt>
      <trkpt lat="49.25844" lon="2.5652">
        <ele>73.4</ele>
        <time>2015-02-01T10:32:07Z</time>
      </trkpt>
      <trkpt lat="49.25839" lon="2.56528">
        <ele>73.9</ele>
        <time>2015-02-01T10:32:14Z</time>
      </trkpt>
      <trkpt lat="49.25833" lon="2.56533">
        <ele>74.1</ele>
        <time>2015-02-01T10:32:21Z</time>
      </trkpt>
      <trkpt lat="49.25824" lon="2.56537">
        <ele>74.7</ele>
        <time>2015-02-01T10:32:26Z</time>
      </trkpt>
      <trkpt lat="49.25817" lon="2.56544">
        <ele>75</ele>
        <time>2015-02-01T10:32:30Z</time>
      </trkpt>
      <trkpt lat="49.25812" lon="2.56552">
        <ele>75</ele>
        <time>2015-02-01T10:32:36Z</time>
      </trkpt>
      <trkpt lat="49.25809" lon="2.56555">
        <ele>75.1</ele>
        <time>2015-02-01T10:32:43Z</time>
      </trkpt>
      <trkpt lat="49.25825" lon="2.56562">
        <ele>76.7</ele>
        <time>2015-02-01T10:33:53Z</time>
      </trkpt>
      <trkpt lat="49.25826" lon="2.56562">
        <ele>77</ele>
        <time>2015-02-01T10:34:00Z</time>
      </trkpt>
      <trkpt lat="49.2582" lon="2.56557">
        <ele>78.3</ele>
        <time>2015-02-01T10:33:29Z</time>
      </trkpt>
      <trkpt lat="49.25813" lon="2.56552">
        <ele>79.9</ele>
        <time>2015-02-01T10:35:40Z</time>
      </trkpt>
      <trkpt lat="49.25813" lon="2.56549">
        <ele>80.1</ele>
        <time>2015-02-01T10:35:47Z</time>
      </trkpt>
      <trkpt lat="49.25813" lon="2.56562">
        <ele>81.1</ele>
        <time>2015-02-01T10:36:26Z</time>
      </trkpt>
      <trkpt lat="49.25812" lon="2.56564">
        <ele>81</ele>
        <time>2015-02-01T10:36:33Z</time>
      </trkpt>
      <trkpt lat="49.25809" lon="2.56565">
        <ele>81.8</ele>
        <time>2015-02-01T10:36:45Z</time>
      </trkpt>
      <trkpt lat="49.25812" lon="2.56563">
        <ele>83.9</ele>
        <time>2015-02-01T10:37:34Z</time>
      </trkpt>
      <trkpt lat="49.25822" lon="2.56565">
        <ele>84</ele>
        <time>2015-02-01T10:37:45Z</time>
      </trkpt>
      <trkpt lat="49.25829" lon="2.56568">
        <ele>84.1</ele>
        <time>2015-02-01T10:37:48Z</time>
      </trkpt>
      <trkpt lat="49.2583" lon="2.56571">
        <ele>85</ele>
        <time>2015-02-01T10:37:55Z</time>
      </trkpt>
      <trkpt lat="49.25833" lon="2.56568">
        <ele>86.1</ele>
        <time>2015-02-01T10:38:15Z</time>
      </trkpt>
      <trkpt lat="49.25827" lon="2.56561">
        <ele>85.9</ele>
        <time>2015-02-01T10:38:53Z</time>
      </trkpt>
      <trkpt lat="49.25815" lon="2.56559">
        <ele>88.3</ele>
        <time>2015-02-01T10:39:00Z</time>
      </trkpt>
      <trkpt lat="49.2581" lon="2.56556">
        <ele>90.3</ele>
        <time>2015-02-01T10:39:07Z</time>
      </trkpt>
      <trkpt lat="49.25807" lon="2.56571">
        <ele>92.3</ele>
        <time>2015-02-01T10:42:02Z</time>
      </trkpt>
      <trkpt lat="49.25814" lon="2.56578">
        <ele>92.5</ele>
        <time>2015-02-01T10:43:11Z</time>
      </trkpt>
      <trkpt lat="49.25816" lon="2.56576">
        <ele>92.4</ele>
        <time>2015-02-01T10:43:18Z</time>
      </trkpt>
      <trkpt lat="49.25817" lon="2.56565">
        <ele>92.5</ele>
        <time>2015-02-01T10:43:30Z</time>
      </trkpt>
      <trkpt lat="49.25819" lon="2.5656">
        <ele>92.7</ele>
        <time>2015-02-01T10:43:37Z</time>
      </trkpt>
      <trkpt lat="49.2582" lon="2.56561">
        <ele>92.7</ele>
        <time>2015-02-01T10:43:44Z</time>
      </trkpt>
      <trkpt lat="49.25814" lon="2.56566">
        <ele>92.8</ele>
        <time>2015-02-01T10:43:49Z</time>
      </trkpt>
      <trkpt lat="49.25813" lon="2.56568">
        <ele>92.9</ele>
        <time>2015-02-01T10:43:56Z</time>
      </trkpt>
      <trkpt lat="49.25824" lon="2.5656">
        <ele>92.2</ele>
        <time>2015-02-01T10:44:22Z</time>
      </trkpt>
      <trkpt lat="49.25818" lon="2.56568">
        <ele>92.1</ele>
        <time>2015-02-01T10:46:24Z</time>
      </trkpt>
      <trkpt lat="49.25811" lon="2.56572">
        <ele>92</ele>
        <time>2015-02-01T10:46:30Z</time>
      </trkpt>
      <trkpt lat="49.25805" lon="2.56578">
        <ele>92.2</ele>
        <time>2015-02-01T10:46:37Z</time>
      </trkpt>
      <trkpt lat="49.25798" lon="2.56584">
        <ele>92.2</ele>
        <time>2015-02-01T10:46:44Z</time>
      </trkpt>
      <trkpt lat="49.25793" lon="2.56593">
        <ele>92.2</ele>
        <time>2015-02-01T10:46:49Z</time>
      </trkpt>
      <trkpt lat="49.25787" lon="2.56601">
        <ele>92.3</ele>
        <time>2015-02-01T10:46:55Z</time>
      </trkpt>
      <trkpt lat="49.25783" lon="2.56609">
        <ele>92.3</ele>
        <time>2015-02-01T10:47:02Z</time>
      </trkpt>
      <trkpt lat="49.2578" lon="2.56614">
        <ele>92.1</ele>
        <time>2015-02-01T10:47:09Z</time>
      </trkpt>
      <trkpt lat="49.25775" lon="2.56622">
        <ele>92.1</ele>
        <time>2015-02-01T10:47:16Z</time>
      </trkpt>
      <trkpt lat="49.25768" lon="2.56628">
        <ele>91.9</ele>
        <time>2015-02-01T10:47:23Z</time>
      </trkpt>
      <trkpt lat="49.25762" lon="2.56634">
        <ele>92</ele>
        <time>2015-02-01T10:47:27Z</time>
      </trkpt>
      <trkpt lat="49.25755" lon="2.5664">
        <ele>91.9</ele>
        <time>2015-02-01T10:47:32Z</time>
      </trkpt>
      <trkpt lat="49.25749" lon="2.56646">
        <ele>91.6</ele>
        <time>2015-02-01T10:47:39Z</time>
      </trkpt>
      <trkpt lat="49.25744" lon="2.56649">
        <ele>91.7</ele>
        <time>2015-02-01T10:47:46Z</time>
      </trkpt>
      <trkpt lat="49.25738" lon="2.56656">
        <ele>91.8</ele>
        <time>2015-02-01T10:47:53Z</time>
      </trkpt>
      <trkpt lat="49.25732" lon="2.56664">
        <ele>92</ele>
        <time>2015-02-01T10:48:00Z</time>
      </trkpt>
      <trkpt lat="49.25727" lon="2.56667">
        <ele>92.2</ele>
        <time>2015-02-01T10:48:07Z</time>
      </trkpt>
      <trkpt lat="49.25722" lon="2.56669">
        <ele>92.5</ele>
        <time>2015-02-01T10:48:14Z</time>
      </trkpt>
      <trkpt lat="49.25715" lon="2.56668">
        <ele>92.5</ele>
        <time>2015-02-01T10:48:21Z</time>
      </trkpt>
      <trkpt lat="49.25708" lon="2.56668">
        <ele>92.6</ele>
        <time>2015-02-01T10:48:28Z</time>
      </trkpt>
      <trkpt lat="49.25701" lon="2.56669">
        <ele>92.8</ele>
        <time>2015-02-01T10:48:35Z</time>
      </trkpt>
      <trkpt lat="49.25694" lon="2.56671">
        <ele>93.1</ele>
        <time>2015-02-01T10:48:42Z</time>
      </trkpt>
      <trkpt lat="49.25688" lon="2.56672">
        <ele>93.1</ele>
        <time>2015-02-01T10:48:49Z</time>
      </trkpt>
      <trkpt lat="49.2568" lon="2.56672">
        <ele>93.3</ele>
        <time>2015-02-01T10:48:55Z</time>
      </trkpt>
      <trkpt lat="49.25674" lon="2.56675">
        <ele>93.5</ele>
        <time>2015-02-01T10:49:02Z</time>
      </trkpt>
      <trkpt lat="49.25667" lon="2.56673">
        <ele>93.5</ele>
        <time>2015-02-01T10:49:09Z</time>
      </trkpt>
      <trkpt lat="49.25659" lon="2.56675">
        <ele>93.8</ele>
        <time>2015-02-01T10:49:15Z</time>
      </trkpt>
      <trkpt lat="49.25651" lon="2.56675">
        <ele>94</ele>
        <time>2015-02-01T10:49:22Z</time>
      </trkpt>
      <trkpt lat="49.25645" lon="2.56675">
        <ele>94.1</ele>
        <time>2015-02-01T10:49:29Z</time>
      </trkpt>
      <trkpt lat="49.25638" lon="2.56677">
        <ele>94.3</ele>
        <time>2015-02-01T10:49:35Z</time>
      </trkpt>
      <trkpt lat="49.2563" lon="2.56679">
        <ele>94.5</ele>
        <time>2015-02-01T10:49:40Z</time>
      </trkpt>
      <trkpt lat="49.25622" lon="2.56684">
        <ele>94.8</ele>
        <time>2015-02-01T10:49:47Z</time>
      </trkpt>
      <trkpt lat="49.25615" lon="2.56691">
        <ele>95.1</ele>
        <time>2015-02-01T10:49:54Z</time>
      </trkpt>
      <trkpt lat="49.25609" lon="2.56697">
        <ele>95.4</ele>
        <time>2015-02-01T10:50:00Z</time>
      </trkpt>
      <trkpt lat="49.25601" lon="2.567">
        <ele>95.7</ele>
        <time>2015-02-01T10:50:07Z</time>
      </trkpt>
      <trkpt lat="49.25594" lon="2.56704">
        <ele>95.9</ele>
        <time>2015-02-01T10:50:13Z</time>
      </trkpt>
      <trkpt lat="49.25589" lon="2.56708">
        <ele>95.8</ele>
        <time>2015-02-01T10:50:20Z</time>
      </trkpt>
      <trkpt lat="49.25585" lon="2.56712">
        <ele>96</ele>
        <time>2015-02-01T10:50:27Z</time>
      </trkpt>
      <trkpt lat="49.2558" lon="2.56718">
        <ele>96</ele>
        <time>2015-02-01T10:50:34Z</time>
      </trkpt>
      <trkpt lat="49.25574" lon="2.56724">
        <ele>95.9</ele>
        <time>2015-02-01T10:50:39Z</time>
      </trkpt>
      <trkpt lat="49.2557" lon="2.5673">
        <ele>96</ele>
        <time>2015-02-01T10:50:46Z</time>
      </trkpt>
      <trkpt lat="49.25568" lon="2.56742">
        <ele>96</ele>
        <time>2015-02-01T10:50:52Z</time>
      </trkpt>
      <trkpt lat="49.25563" lon="2.5675">
        <ele>96.1</ele>
        <time>2015-02-01T10:50:58Z</time>
      </trkpt>
      <trkpt lat="49.25557" lon="2.56757">
        <ele>96.2</ele>
        <time>2015-02-01T10:51:05Z</time>
      </trkpt>
      <trkpt lat="49.25551" lon="2.56763">
        <ele>96.1</ele>
        <time>2015-02-01T10:51:11Z</time>
      </trkpt>
      <trkpt lat="49.25542" lon="2.56766">
        <ele>96.3</ele>
        <time>2015-02-01T10:51:16Z</time>
      </trkpt>
      <trkpt lat="49.25535" lon="2.56769">
        <ele>96.6</ele>
        <time>2015-02-01T10:51:21Z</time>
      </trkpt>
      <trkpt lat="49.25528" lon="2.56773">
        <ele>97</ele>
        <time>2015-02-01T10:51:28Z</time>
      </trkpt>
      <trkpt lat="49.25522" lon="2.56779">
        <ele>97.3</ele>
        <time>2015-02-01T10:51:35Z</time>
      </trkpt>
      <trkpt lat="49.25515" lon="2.56783">
        <ele>97.6</ele>
        <time>2015-02-01T10:51:41Z</time>
      </trkpt>
      <trkpt lat="49.25509" lon="2.56788">
        <ele>97.7</ele>
        <time>2015-02-01T10:51:48Z</time>
      </trkpt>
      <trkpt lat="49.25502" lon="2.56794">
        <ele>97.5</ele>
        <time>2015-02-01T10:51:55Z</time>
      </trkpt>
      <trkpt lat="49.25496" lon="2.568">
        <ele>97.3</ele>
        <time>2015-02-01T10:52:02Z</time>
      </trkpt>
      <trkpt lat="49.25489" lon="2.56806">
        <ele>97.4</ele>
        <time>2015-02-01T10:52:08Z</time>
      </trkpt>
      <trkpt lat="49.25482" lon="2.5681">
        <ele>97.5</ele>
        <time>2015-02-01T10:52:15Z</time>
      </trkpt>
      <trkpt lat="49.25475" lon="2.56815">
        <ele>97.2</ele>
        <time>2015-02-01T10:52:22Z</time>
      </trkpt>
      <trkpt lat="49.25468" lon="2.56818">
        <ele>97.5</ele>
        <time>2015-02-01T10:52:28Z</time>
      </trkpt>
      <trkpt lat="49.25462" lon="2.5682">
        <ele>97.6</ele>
        <time>2015-02-01T10:52:35Z</time>
      </trkpt>
      <trkpt lat="49.25456" lon="2.56825">
        <ele>97.8</ele>
        <time>2015-02-01T10:52:42Z</time>
      </trkpt>
      <trkpt lat="49.2545" lon="2.56832">
        <ele>97.9</ele>
        <time>2015-02-01T10:52:49Z</time>
      </trkpt>
      <trkpt lat="49.25445" lon="2.56836">
        <ele>97.9</ele>
        <time>2015-02-01T10:52:56Z</time>
      </trkpt>
      <trkpt lat="49.2544" lon="2.5684">
        <ele>98.2</ele>
        <time>2015-02-01T10:53:03Z</time>
      </trkpt>
      <trkpt lat="49.25434" lon="2.56848">
        <ele>98.7</ele>
        <time>2015-02-01T10:53:10Z</time>
      </trkpt>
      <trkpt lat="49.25428" lon="2.56856">
        <ele>98.6</ele>
        <time>2015-02-01T10:53:17Z</time>
      </trkpt>
      <trkpt lat="49.25422" lon="2.56864">
        <ele>98.8</ele>
        <time>2015-02-01T10:53:23Z</time>
      </trkpt>
      <trkpt lat="49.25416" lon="2.5687">
        <ele>99.1</ele>
        <time>2015-02-01T10:53:27Z</time>
      </trkpt>
      <trkpt lat="49.25411" lon="2.56878">
        <ele>99.3</ele>
        <time>2015-02-01T10:53:33Z</time>
      </trkpt>
      <trkpt lat="49.25404" lon="2.56884">
        <ele>99.4</ele>
        <time>2015-02-01T10:53:40Z</time>
      </trkpt>
      <trkpt lat="49.25397" lon="2.56889">
        <ele>99.6</ele>
        <time>2015-02-01T10:53:46Z</time>
      </trkpt>
      <trkpt lat="49.25392" lon="2.56898">
        <ele>99.9</ele>
        <time>2015-02-01T10:53:53Z</time>
      </trkpt>
      <trkpt lat="49.25386" lon="2.56902">
        <ele>100.2</ele>
        <time>2015-02-01T10:54:00Z</time>
      </trkpt>
      <trkpt lat="49.25381" lon="2.56906">
        <ele>100.5</ele>
        <time>2015-02-01T10:54:07Z</time>
      </trkpt>
      <trkpt lat="49.25374" lon="2.56908">
        <ele>100.6</ele>
        <time>2015-02-01T10:54:14Z</time>
      </trkpt>
      <trkpt lat="49.25368" lon="2.56913">
        <ele>100.9</ele>
        <time>2015-02-01T10:54:21Z</time>
      </trkpt>
      <trkpt lat="49.25363" lon="2.56919">
        <ele>101.2</ele>
        <time>2015-02-01T10:54:28Z</time>
      </trkpt>
      <trkpt lat="49.25358" lon="2.56928">
        <ele>101.4</ele>
        <time>2015-02-01T10:54:34Z</time>
      </trkpt>
      <trkpt lat="49.25352" lon="2.56934">
        <ele>101.7</ele>
        <time>2015-02-01T10:54:41Z</time>
      </trkpt>
      <trkpt lat="49.25346" lon="2.5694">
        <ele>101.9</ele>
        <time>2015-02-01T10:54:47Z</time>
      </trkpt>
      <trkpt lat="49.25339" lon="2.56944">
        <ele>102.2</ele>
        <time>2015-02-01T10:54:53Z</time>
      </trkpt>
      <trkpt lat="49.25332" lon="2.56947">
        <ele>102.4</ele>
        <time>2015-02-01T10:54:58Z</time>
      </trkpt>
      <trkpt lat="49.25324" lon="2.56948">
        <ele>102.6</ele>
        <time>2015-02-01T10:55:02Z</time>
      </trkpt>
      <trkpt lat="49.25316" lon="2.56948">
        <ele>102.7</ele>
        <time>2015-02-01T10:55:06Z</time>
      </trkpt>
      <trkpt lat="49.25308" lon="2.56949">
        <ele>103</ele>
        <time>2015-02-01T10:55:13Z</time>
      </trkpt>
      <trkpt lat="49.25302" lon="2.56951">
        <ele>103.2</ele>
        <time>2015-02-01T10:55:20Z</time>
      </trkpt>
      <trkpt lat="49.25294" lon="2.56951">
        <ele>103.4</ele>
        <time>2015-02-01T10:55:25Z</time>
      </trkpt>
      <trkpt lat="49.25287" lon="2.5695">
        <ele>103.6</ele>
        <time>2015-02-01T10:55:30Z</time>
      </trkpt>
      <trkpt lat="49.2528" lon="2.56951">
        <ele>103.6</ele>
        <time>2015-02-01T10:55:37Z</time>
      </trkpt>
      <trkpt lat="49.25272" lon="2.56951">
        <ele>103.6</ele>
        <time>2015-02-01T10:55:43Z</time>
      </trkpt>
      <trkpt lat="49.25265" lon="2.56952">
        <ele>103.6</ele>
        <time>2015-02-01T10:55:50Z</time>
      </trkpt>
      <trkpt lat="49.25259" lon="2.56959">
        <ele>103.8</ele>
        <time>2015-02-01T10:55:55Z</time>
      </trkpt>
      <trkpt lat="49.25252" lon="2.56967">
        <ele>104.1</ele>
        <time>2015-02-01T10:56:01Z</time>
      </trkpt>
      <trkpt lat="49.25245" lon="2.56972">
        <ele>104.3</ele>
        <time>2015-02-01T10:56:08Z</time>
      </trkpt>
      <trkpt lat="49.25238" lon="2.56977">
        <ele>104.7</ele>
        <time>2015-02-01T10:56:15Z</time>
      </trkpt>
      <trkpt lat="49.25233" lon="2.56984">
        <ele>105</ele>
        <time>2015-02-01T10:56:22Z</time>
      </trkpt>
      <trkpt lat="49.25232" lon="2.56994">
        <ele>105.2</ele>
        <time>2015-02-01T10:56:29Z</time>
      </trkpt>
      <trkpt lat="49.25229" lon="2.57004">
        <ele>105.4</ele>
        <time>2015-02-01T10:56:36Z</time>
      </trkpt>
      <trkpt lat="49.25223" lon="2.57014">
        <ele>105.5</ele>
        <time>2015-02-01T10:56:43Z</time>
      </trkpt>
      <trkpt lat="49.25217" lon="2.5702">
        <ele>105.7</ele>
        <time>2015-02-01T10:56:49Z</time>
      </trkpt>
      <trkpt lat="49.25212" lon="2.57024">
        <ele>105.9</ele>
        <time>2015-02-01T10:56:56Z</time>
      </trkpt>
      <trkpt lat="49.25204" lon="2.57029">
        <ele>106.2</ele>
        <time>2015-02-01T10:57:03Z</time>
      </trkpt>
      <trkpt lat="49.25196" lon="2.57032">
        <ele>106.4</ele>
        <time>2015-02-01T10:57:10Z</time>
      </trkpt>
      <trkpt lat="49.2519" lon="2.57034">
        <ele>106.6</ele>
        <time>2015-02-01T10:57:17Z</time>
      </trkpt>
      <trkpt lat="49.25181" lon="2.57036">
        <ele>106.8</ele>
        <time>2015-02-01T10:57:22Z</time>
      </trkpt>
      <trkpt lat="49.25174" lon="2.57039">
        <ele>107</ele>
        <time>2015-02-01T10:57:28Z</time>
      </trkpt>
      <trkpt lat="49.25168" lon="2.57042">
        <ele>107.2</ele>
        <time>2015-02-01T10:57:35Z</time>
      </trkpt>
      <trkpt lat="49.25161" lon="2.57045">
        <ele>107.2</ele>
        <time>2015-02-01T10:57:42Z</time>
      </trkpt>
      <trkpt lat="49.25155" lon="2.57051">
        <ele>107.3</ele>
        <time>2015-02-01T10:57:48Z</time>
      </trkpt>
      <trkpt lat="49.2515" lon="2.57056">
        <ele>107.4</ele>
        <time>2015-02-01T10:57:55Z</time>
      </trkpt>
      <trkpt lat="49.25143" lon="2.57062">
        <ele>107.6</ele>
        <time>2015-02-01T10:58:00Z</time>
      </trkpt>
      <trkpt lat="49.25136" lon="2.5707">
        <ele>107.7</ele>
        <time>2015-02-01T10:58:06Z</time>
      </trkpt>
      <trkpt lat="49.25131" lon="2.57077">
        <ele>108</ele>
        <time>2015-02-01T10:58:13Z</time>
      </trkpt>
      <trkpt lat="49.25126" lon="2.57084">
        <ele>108.4</ele>
        <time>2015-02-01T10:58:20Z</time>
      </trkpt>
      <trkpt lat="49.2512" lon="2.57089">
        <ele>108.7</ele>
        <time>2015-02-01T10:58:25Z</time>
      </trkpt>
      <trkpt lat="49.25114" lon="2.57097">
        <ele>108.8</ele>
        <time>2015-02-01T10:58:32Z</time>
      </trkpt>
      <trkpt lat="49.25107" lon="2.57105">
        <ele>109.2</ele>
        <time>2015-02-01T10:58:39Z</time>
      </trkpt>
      <trkpt lat="49.25101" lon="2.57113">
        <ele>109.5</ele>
        <time>2015-02-01T10:58:46Z</time>
      </trkpt>
      <trkpt lat="49.25097" lon="2.57122">
        <ele>109.6</ele>
        <time>2015-02-01T10:58:53Z</time>
      </trkpt>
      <trkpt lat="49.25089" lon="2.57126">
        <ele>109.7</ele>
        <time>2015-02-01T10:58:59Z</time>
      </trkpt>
      <trkpt lat="49.25083" lon="2.5713">
        <ele>109.7</ele>
        <time>2015-02-01T10:59:06Z</time>
      </trkpt>
      <trkpt lat="49.25077" lon="2.57135">
        <ele>110</ele>
        <time>2015-02-01T10:59:11Z</time>
      </trkpt>
      <trkpt lat="49.2507" lon="2.57142">
        <ele>110.3</ele>
        <time>2015-02-01T10:59:18Z</time>
      </trkpt>
      <trkpt lat="49.25062" lon="2.57147">
        <ele>110.6</ele>
        <time>2015-02-01T10:59:24Z</time>
      </trkpt>
      <trkpt lat="49.25059" lon="2.57158">
        <ele>110.7</ele>
        <time>2015-02-01T10:59:30Z</time>
      </trkpt>
      <trkpt lat="49.25052" lon="2.57166">
        <ele>110.9</ele>
        <time>2015-02-01T10:59:35Z</time>
      </trkpt>
      <trkpt lat="49.25045" lon="2.57173">
        <ele>111.1</ele>
        <time>2015-02-01T10:59:39Z</time>
      </trkpt>
      <trkpt lat="49.25039" lon="2.57179">
        <ele>111.2</ele>
        <time>2015-02-01T10:59:46Z</time>
      </trkpt>
      <trkpt lat="49.25034" lon="2.57186">
        <ele>111.5</ele>
        <time>2015-02-01T10:59:53Z</time>
      </trkpt>
      <trkpt lat="49.25029" lon="2.57195">
        <ele>111.7</ele>
        <time>2015-02-01T10:59:58Z</time>
      </trkpt>
      <trkpt lat="49.25024" lon="2.57204">
        <ele>112</ele>
        <time>2015-02-01T11:00:05Z</time>
      </trkpt>
      <trkpt lat="49.25021" lon="2.57215">
        <ele>112.4</ele>
        <time>2015-02-01T11:00:11Z</time>
      </trkpt>
      <trkpt lat="49.25018" lon="2.57224">
        <ele>112.5</ele>
        <time>2015-02-01T11:00:17Z</time>
      </trkpt>
      <trkpt lat="49.25012" lon="2.57234">
        <ele>112.8</ele>
        <time>2015-02-01T11:00:23Z</time>
      </trkpt>
      <trkpt lat="49.25009" lon="2.57241">
        <ele>113.2</ele>
        <time>2015-02-01T11:00:30Z</time>
      </trkpt>
      <trkpt lat="49.25003" lon="2.57251">
        <ele>113.6</ele>
        <time>2015-02-01T11:00:37Z</time>
      </trkpt>
      <trkpt lat="49.24999" lon="2.57259">
        <ele>113.9</ele>
        <time>2015-02-01T11:00:44Z</time>
      </trkpt>
      <trkpt lat="49.24995" lon="2.57268">
        <ele>114.2</ele>
        <time>2015-02-01T11:00:51Z</time>
      </trkpt>
      <trkpt lat="49.24993" lon="2.57275">
        <ele>114.3</ele>
        <time>2015-02-01T11:00:58Z</time>
      </trkpt>
      <trkpt lat="49.24986" lon="2.57279">
        <ele>114.5</ele>
        <time>2015-02-01T11:01:04Z</time>
      </trkpt>
      <trkpt lat="49.24986" lon="2.5728">
        <ele>114.4</ele>
        <time>2015-02-01T11:01:11Z</time>
      </trkpt>
      <trkpt lat="49.24987" lon="2.57292">
        <ele>114</ele>
        <time>2015-02-01T11:01:26Z</time>
      </trkpt>
      <trkpt lat="49.24987" lon="2.57296">
        <ele>113.5</ele>
        <time>2015-02-01T11:01:33Z</time>
      </trkpt>
      <trkpt lat="49.24987" lon="2.57285">
        <ele>112.6</ele>
        <time>2015-02-01T11:02:04Z</time>
      </trkpt>
      <trkpt lat="49.24992" lon="2.5728">
        <ele>112.3</ele>
        <time>2015-02-01T11:02:11Z</time>
      </trkpt>
      <trkpt lat="49.24996" lon="2.57275">
        <ele>112.2</ele>
        <time>2015-02-01T11:02:18Z</time>
      </trkpt>
      <trkpt lat="49.25002" lon="2.57272">
        <ele>111.9</ele>
        <time>2015-02-01T11:02:25Z</time>
      </trkpt>
      <trkpt lat="49.25007" lon="2.57265">
        <ele>111.7</ele>
        <time>2015-02-01T11:02:31Z</time>
      </trkpt>
      <trkpt lat="49.25013" lon="2.57256">
        <ele>111.5</ele>
        <time>2015-02-01T11:02:38Z</time>
      </trkpt>
      <trkpt lat="49.25016" lon="2.57251">
        <ele>111.5</ele>
        <time>2015-02-01T11:02:45Z</time>
      </trkpt>
      <trkpt lat="49.25021" lon="2.5724">
        <ele>110.8</ele>
        <time>2015-02-01T11:02:52Z</time>
      </trkpt>
      <trkpt lat="49.25024" lon="2.5723">
        <ele>110.2</ele>
        <time>2015-02-01T11:02:57Z</time>
      </trkpt>
      <trkpt lat="49.25026" lon="2.57222">
        <ele>109.8</ele>
        <time>2015-02-01T11:03:04Z</time>
      </trkpt>
      <trkpt lat="49.25027" lon="2.57217">
        <ele>109.7</ele>
        <time>2015-02-01T11:03:11Z</time>
      </trkpt>
      <trkpt lat="49.25031" lon="2.57215">
        <ele>109.7</ele>
        <time>2015-02-01T11:03:18Z</time>
      </trkpt>
      <trkpt lat="49.25031" lon="2.57211">
        <ele>109.7</ele>
        <time>2015-02-01T11:03:25Z</time>
      </trkpt>
      <trkpt lat="49.2503" lon="2.57193">
        <ele>108.9</ele>
        <time>2015-02-01T11:04:06Z</time>
      </trkpt>
      <trkpt lat="49.2502" lon="2.57187">
        <ele>108.5</ele>
        <time>2015-02-01T11:04:50Z</time>
      </trkpt>
      <trkpt lat="49.25018" lon="2.57182">
        <ele>108.6</ele>
        <time>2015-02-01T11:04:57Z</time>
      </trkpt>
      <trkpt lat="49.25014" lon="2.57181">
        <ele>108.8</ele>
        <time>2015-02-01T11:05:04Z</time>
      </trkpt>
      <trkpt lat="49.2501" lon="2.57178">
        <ele>109.1</ele>
        <time>2015-02-01T11:05:11Z</time>
      </trkpt>
      <trkpt lat="49.25005" lon="2.57175">
        <ele>109.4</ele>
        <time>2015-02-01T11:05:18Z</time>
      </trkpt>
      <trkpt lat="49.24996" lon="2.57168">
        <ele>109.4</ele>
        <time>2015-02-01T11:05:23Z</time>
      </trkpt>
      <trkpt lat="49.24989" lon="2.57165">
        <ele>109.4</ele>
        <time>2015-02-01T11:05:28Z</time>
      </trkpt>
      <trkpt lat="49.24982" lon="2.57161">
        <ele>109.6</ele>
        <time>2015-02-01T11:05:34Z</time>
      </trkpt>
      <trkpt lat="49.24976" lon="2.57155">
        <ele>109.7</ele>
        <time>2015-02-01T11:05:39Z</time>
      </trkpt>
      <trkpt lat="49.24972" lon="2.57151">
        <ele>109.7</ele>
        <time>2015-02-01T11:05:46Z</time>
      </trkpt>
      <trkpt lat="49.24966" lon="2.57148">
        <ele>109.7</ele>
        <time>2015-02-01T11:05:53Z</time>
      </trkpt>
      <trkpt lat="49.24958" lon="2.57147">
        <ele>110</ele>
        <time>2015-02-01T11:05:59Z</time>
      </trkpt>
      <trkpt lat="49.24951" lon="2.57144">
        <ele>110.3</ele>
        <time>2015-02-01T11:06:05Z</time>
      </trkpt>
      <trkpt lat="49.24944" lon="2.5714">
        <ele>110.5</ele>
        <time>2015-02-01T11:06:11Z</time>
      </trkpt>
      <trkpt lat="49.24937" lon="2.57135">
        <ele>110.5</ele>
        <time>2015-02-01T11:06:17Z</time>
      </trkpt>
      <trkpt lat="49.2493" lon="2.5713">
        <ele>110.6</ele>
        <time>2015-02-01T11:06:23Z</time>
      </trkpt>
      <trkpt lat="49.24924" lon="2.57125">
        <ele>110.8</ele>
        <time>2015-02-01T11:06:30Z</time>
      </trkpt>
      <trkpt lat="49.24917" lon="2.57121">
        <ele>111.1</ele>
        <time>2015-02-01T11:06:37Z</time>
      </trkpt>
      <trkpt lat="49.24911" lon="2.57115">
        <ele>111.3</ele>
        <time>2015-02-01T11:06:43Z</time>
      </trkpt>
      <trkpt lat="49.24904" lon="2.5711">
        <ele>111.6</ele>
        <time>2015-02-01T11:06:50Z</time>
      </trkpt>
      <trkpt lat="49.24897" lon="2.57109">
        <ele>111.9</ele>
        <time>2015-02-01T11:06:57Z</time>
      </trkpt>
      <trkpt lat="49.24892" lon="2.57105">
        <ele>112.1</ele>
        <time>2015-02-01T11:07:04Z</time>
      </trkpt>
      <trkpt lat="49.24885" lon="2.571">
        <ele>112.3</ele>
        <time>2015-02-01T11:07:11Z</time>
      </trkpt>
      <trkpt lat="49.24876" lon="2.57096">
        <ele>112.3</ele>
        <time>2015-02-01T11:07:15Z</time>
      </trkpt>
      <trkpt lat="49.24868" lon="2.57095">
        <ele>112.6</ele>
        <time>2015-02-01T11:07:20Z</time>
      </trkpt>
      <trkpt lat="49.24859" lon="2.57093">
        <ele>113</ele>
        <time>2015-02-01T11:07:23Z</time>
      </trkpt>
      <trkpt lat="49.24853" lon="2.57087">
        <ele>113.2</ele>
        <time>2015-02-01T11:07:27Z</time>
      </trkpt>
      <trkpt lat="49.2485" lon="2.57081">
        <ele>113.3</ele>
        <time>2015-02-01T11:07:34Z</time>
      </trkpt>
      <trkpt lat="49.24844" lon="2.57077">
        <ele>113.3</ele>
        <time>2015-02-01T11:07:41Z</time>
      </trkpt>
      <trkpt lat="49.24839" lon="2.57075">
        <ele>113.3</ele>
        <time>2015-02-01T11:07:48Z</time>
      </trkpt>
      <trkpt lat="49.24831" lon="2.5707">
        <ele>113.4</ele>
        <time>2015-02-01T11:07:54Z</time>
      </trkpt>
      <trkpt lat="49.24825" lon="2.57068">
        <ele>113.4</ele>
        <time>2015-02-01T11:08:01Z</time>
      </trkpt>
      <trkpt lat="49.24819" lon="2.57065">
        <ele>113.2</ele>
        <time>2015-02-01T11:08:08Z</time>
      </trkpt>
      <trkpt lat="49.24819" lon="2.57068">
        <ele>112.9</ele>
        <time>2015-02-01T11:08:15Z</time>
      </trkpt>
      <trkpt lat="49.24812" lon="2.57064">
        <ele>113.1</ele>
        <time>2015-02-01T11:08:27Z</time>
      </trkpt>
      <trkpt lat="49.24805" lon="2.5706">
        <ele>113.2</ele>
        <time>2015-02-01T11:08:33Z</time>
      </trkpt>
      <trkpt lat="49.24798" lon="2.57056">
        <ele>113.2</ele>
        <time>2015-02-01T11:08:40Z</time>
      </trkpt>
      <trkpt lat="49.2479" lon="2.57053">
        <ele>113.3</ele>
        <time>2015-02-01T11:08:47Z</time>
      </trkpt>
      <trkpt lat="49.24783" lon="2.57048">
        <ele>113.6</ele>
        <time>2015-02-01T11:08:52Z</time>
      </trkpt>
      <trkpt lat="49.24778" lon="2.57042">
        <ele>113.7</ele>
        <time>2015-02-01T11:08:57Z</time>
      </trkpt>
      <trkpt lat="49.24771" lon="2.57038">
        <ele>113.8</ele>
        <time>2015-02-01T11:09:02Z</time>
      </trkpt>
      <trkpt lat="49.24763" lon="2.57034">
        <ele>113.9</ele>
        <time>2015-02-01T11:09:07Z</time>
      </trkpt>
      <trkpt lat="49.24756" lon="2.57028">
        <ele>114</ele>
        <time>2015-02-01T11:09:14Z</time>
      </trkpt>
      <trkpt lat="49.24749" lon="2.57021">
        <ele>113.9</ele>
        <time>2015-02-01T11:09:19Z</time>
      </trkpt>
      <trkpt lat="49.24741" lon="2.57016">
        <ele>114.1</ele>
        <time>2015-02-01T11:09:24Z</time>
      </trkpt>
      <trkpt lat="49.24733" lon="2.57015">
        <ele>114.6</ele>
        <time>2015-02-01T11:09:31Z</time>
      </trkpt>
      <trkpt lat="49.24726" lon="2.57015">
        <ele>115.1</ele>
        <time>2015-02-01T11:09:38Z</time>
      </trkpt>
      <trkpt lat="49.24721" lon="2.57016">
        <ele>115.3</ele>
        <time>2015-02-01T11:09:45Z</time>
      </trkpt>
      <trkpt lat="49.24716" lon="2.57013">
        <ele>115.6</ele>
        <time>2015-02-01T11:09:52Z</time>
      </trkpt>
      <trkpt lat="49.24715" lon="2.57009">
        <ele>115.7</ele>
        <time>2015-02-01T11:09:59Z</time>
      </trkpt>
      <trkpt lat="49.24709" lon="2.57007">
        <ele>115.4</ele>
        <time>2015-02-01T11:10:06Z</time>
      </trkpt>
      <trkpt lat="49.24701" lon="2.57004">
        <ele>115.4</ele>
        <time>2015-02-01T11:10:13Z</time>
      </trkpt>
      <trkpt lat="49.24695" lon="2.57001">
        <ele>115.4</ele>
        <time>2015-02-01T11:10:20Z</time>
      </trkpt>
      <trkpt lat="49.24688" lon="2.56997">
        <ele>115.3</ele>
        <time>2015-02-01T11:10:27Z</time>
      </trkpt>
      <trkpt lat="49.24681" lon="2.56992">
        <ele>115.4</ele>
        <time>2015-02-01T11:10:32Z</time>
      </trkpt>
      <trkpt lat="49.24673" lon="2.56987">
        <ele>115.4</ele>
        <time>2015-02-01T11:10:38Z</time>
      </trkpt>
      <trkpt lat="49.24666" lon="2.5698">
        <ele>115.4</ele>
        <time>2015-02-01T11:10:44Z</time>
      </trkpt>
      <trkpt lat="49.24659" lon="2.56977">
        <ele>115.4</ele>
        <time>2015-02-01T11:10:51Z</time>
      </trkpt>
      <trkpt lat="49.24654" lon="2.56975">
        <ele>115.5</ele>
        <time>2015-02-01T11:10:58Z</time>
      </trkpt>
      <trkpt lat="49.24648" lon="2.56972">
        <ele>115.7</ele>
        <time>2015-02-01T11:11:05Z</time>
      </trkpt>
      <trkpt lat="49.24645" lon="2.5697">
        <ele>116</ele>
        <time>2015-02-01T11:11:12Z</time>
      </trkpt>
      <trkpt lat="49.2464" lon="2.56968">
        <ele>117.1</ele>
        <time>2015-02-01T11:11:19Z</time>
      </trkpt>
      <trkpt lat="49.24634" lon="2.56964">
        <ele>117.8</ele>
        <time>2015-02-01T11:11:28Z</time>
      </trkpt>
      <trkpt lat="49.24627" lon="2.56959">
        <ele>118.2</ele>
        <time>2015-02-01T11:11:35Z</time>
      </trkpt>
      <trkpt lat="49.24621" lon="2.56952">
        <ele>118.4</ele>
        <time>2015-02-01T11:11:40Z</time>
      </trkpt>
      <trkpt lat="49.24614" lon="2.56943">
        <ele>119.1</ele>
        <time>2015-02-01T11:11:46Z</time>
      </trkpt>
      <trkpt lat="49.24608" lon="2.56944">
        <ele>120.2</ele>
        <time>2015-02-01T11:11:53Z</time>
      </trkpt>
      <trkpt lat="49.24608" lon="2.56946">
        <ele>120.2</ele>
        <time>2015-02-01T11:12:00Z</time>
      </trkpt>
      <trkpt lat="49.24599" lon="2.56949">
        <ele>120.9</ele>
        <time>2015-02-01T11:12:20Z</time>
      </trkpt>
      <trkpt lat="49.24593" lon="2.5695">
        <ele>120</ele>
        <time>2015-02-01T11:12:34Z</time>
      </trkpt>
      <trkpt lat="49.24599" lon="2.56956">
        <ele>121</ele>
        <time>2015-02-01T11:12:48Z</time>
      </trkpt>
      <trkpt lat="49.24599" lon="2.56956">
        <ele>121.5</ele>
        <time>2015-02-01T11:12:55Z</time>
      </trkpt>
      <trkpt lat="49.24598" lon="2.56952">
        <ele>122.6</ele>
        <time>2015-02-01T11:13:02Z</time>
      </trkpt>
      <trkpt lat="49.24599" lon="2.56953">
        <ele>122.6</ele>
        <time>2015-02-01T11:13:09Z</time>
      </trkpt>
      <trkpt lat="49.24593" lon="2.56945">
        <ele>122.7</ele>
        <time>2015-02-01T11:13:33Z</time>
      </trkpt>
      <trkpt lat="49.24587" lon="2.5694">
        <ele>123.3</ele>
        <time>2015-02-01T11:13:40Z</time>
      </trkpt>
      <trkpt lat="49.24579" lon="2.56937">
        <ele>123.9</ele>
        <time>2015-02-01T11:13:47Z</time>
      </trkpt>
      <trkpt lat="49.24574" lon="2.56935">
        <ele>124.1</ele>
        <time>2015-02-01T11:13:54Z</time>
      </trkpt>
      <trkpt lat="49.24568" lon="2.56931">
        <ele>124.3</ele>
        <time>2015-02-01T11:14:01Z</time>
      </trkpt>
      <trkpt lat="49.24564" lon="2.56928">
        <ele>124.4</ele>
        <time>2015-02-01T11:14:08Z</time>
      </trkpt>
      <trkpt lat="49.24558" lon="2.56923">
        <ele>124.7</ele>
        <time>2015-02-01T11:14:15Z</time>
      </trkpt>
      <trkpt lat="49.24552" lon="2.56917">
        <ele>124.9</ele>
        <time>2015-02-01T11:14:21Z</time>
      </trkpt>
      <trkpt lat="49.24545" lon="2.5691">
        <ele>125.5</ele>
        <time>2015-02-01T11:14:28Z</time>
      </trkpt>
      <trkpt lat="49.24539" lon="2.56903">
        <ele>126.1</ele>
        <time>2015-02-01T11:14:35Z</time>
      </trkpt>
      <trkpt lat="49.24531" lon="2.56899">
        <ele>126.4</ele>
        <time>2015-02-01T11:14:41Z</time>
      </trkpt>
      <trkpt lat="49.24529" lon="2.56896">
        <ele>126.7</ele>
        <time>2015-02-01T11:14:48Z</time>
      </trkpt>
      <trkpt lat="49.24524" lon="2.56893">
        <ele>127.2</ele>
        <time>2015-02-01T11:14:55Z</time>
      </trkpt>
      <trkpt lat="49.24522" lon="2.56892">
        <ele>127.8</ele>
        <time>2015-02-01T11:15:02Z</time>
      </trkpt>
      <trkpt lat="49.24519" lon="2.56891">
        <ele>128.4</ele>
        <time>2015-02-01T11:15:09Z</time>
      </trkpt>
      <trkpt lat="49.24515" lon="2.56889">
        <ele>128.8</ele>
        <time>2015-02-01T11:15:16Z</time>
      </trkpt>
      <trkpt lat="49.24512" lon="2.56892">
        <ele>128.8</ele>
        <time>2015-02-01T11:15:23Z</time>
      </trkpt>
      <trkpt lat="49.24508" lon="2.56894">
        <ele>129.1</ele>
        <time>2015-02-01T11:15:30Z</time>
      </trkpt>
      <trkpt lat="49.24502" lon="2.56889">
        <ele>129.3</ele>
        <time>2015-02-01T11:15:37Z</time>
      </trkpt>
      <trkpt lat="49.24496" lon="2.56885">
        <ele>129.6</ele>
        <time>2015-02-01T11:15:44Z</time>
      </trkpt>
      <trkpt lat="49.24489" lon="2.5688">
        <ele>129.9</ele>
        <time>2015-02-01T11:15:51Z</time>
      </trkpt>
      <trkpt lat="49.24483" lon="2.56876">
        <ele>130.2</ele>
        <time>2015-02-01T11:15:58Z</time>
      </trkpt>
      <trkpt lat="49.24476" lon="2.56872">
        <ele>130.5</ele>
        <time>2015-02-01T11:16:03Z</time>
      </trkpt>
      <trkpt lat="49.24469" lon="2.56867">
        <ele>130.5</ele>
        <time>2015-02-01T11:16:09Z</time>
      </trkpt>
      <trkpt lat="49.24463" lon="2.56861">
        <ele>131.1</ele>
        <time>2015-02-01T11:16:14Z</time>
      </trkpt>
      <trkpt lat="49.24457" lon="2.56857">
        <ele>131.7</ele>
        <time>2015-02-01T11:16:21Z</time>
      </trkpt>
      <trkpt lat="49.24451" lon="2.56854">
        <ele>132.4</ele>
        <time>2015-02-01T11:16:28Z</time>
      </trkpt>
      <trkpt lat="49.24445" lon="2.56852">
        <ele>133</ele>
        <time>2015-02-01T11:16:35Z</time>
      </trkpt>
      <trkpt lat="49.24438" lon="2.56846">
        <ele>133.5</ele>
        <time>2015-02-01T11:16:40Z</time>
      </trkpt>
      <trkpt lat="49.2443" lon="2.56842">
        <ele>134</ele>
        <time>2015-02-01T11:16:47Z</time>
      </trkpt>
      <trkpt lat="49.24433" lon="2.56846">
        <ele>135.1</ele>
        <time>2015-02-01T11:16:54Z</time>
      </trkpt>
      <trkpt lat="49.24433" lon="2.56848">
        <ele>135</ele>
        <time>2015-02-01T11:17:01Z</time>
      </trkpt>
      <trkpt lat="49.24426" lon="2.56846">
        <ele>135.3</ele>
        <time>2015-02-01T11:17:10Z</time>
      </trkpt>
      <trkpt lat="49.24418" lon="2.5684">
        <ele>135.5</ele>
        <time>2015-02-01T11:17:15Z</time>
      </trkpt>
      <trkpt lat="49.24412" lon="2.56834">
        <ele>135.7</ele>
        <time>2015-02-01T11:17:19Z</time>
      </trkpt>
      <trkpt lat="49.24405" lon="2.56827">
        <ele>135.9</ele>
        <time>2015-02-01T11:17:23Z</time>
      </trkpt>
      <trkpt lat="49.24398" lon="2.56821">
        <ele>136.4</ele>
        <time>2015-02-01T11:17:28Z</time>
      </trkpt>
      <trkpt lat="49.24391" lon="2.56815">
        <ele>136.8</ele>
        <time>2015-02-01T11:17:34Z</time>
      </trkpt>
      <trkpt lat="49.24383" lon="2.56811">
        <ele>137</ele>
        <time>2015-02-01T11:17:40Z</time>
      </trkpt>
      <trkpt lat="49.24375" lon="2.56806">
        <ele>137.2</ele>
        <time>2015-02-01T11:17:44Z</time>
      </trkpt>
      <trkpt lat="49.24367" lon="2.56801">
        <ele>137.4</ele>
        <time>2015-02-01T11:17:48Z</time>
      </trkpt>
      <trkpt lat="49.2436" lon="2.56798">
        <ele>137.8</ele>
        <time>2015-02-01T11:17:53Z</time>
      </trkpt>
      <trkpt lat="49.24353" lon="2.56791">
        <ele>138.3</ele>
        <time>2015-02-01T11:17:58Z</time>
      </trkpt>
      <trkpt lat="49.24346" lon="2.56786">
        <ele>138.8</ele>
        <time>2015-02-01T11:18:03Z</time>
      </trkpt>
      <trkpt lat="49.24338" lon="2.56781">
        <ele>139.1</ele>
        <time>2015-02-01T11:18:07Z</time>
      </trkpt>
      <trkpt lat="49.24331" lon="2.56775">
        <ele>139.5</ele>
        <time>2015-02-01T11:18:11Z</time>
      </trkpt>
      <trkpt lat="49.24324" lon="2.5677">
        <ele>140.1</ele>
        <time>2015-02-01T11:18:16Z</time>
      </trkpt>
      <trkpt lat="49.24318" lon="2.56765">
        <ele>141</ele>
        <time>2015-02-01T11:18:21Z</time>
      </trkpt>
      <trkpt lat="49.24311" lon="2.56761">
        <ele>142.3</ele>
        <time>2015-02-01T11:18:26Z</time>
      </trkpt>
      <trkpt lat="49.24303" lon="2.56756">
        <ele>143.5</ele>
        <time>2015-02-01T11:18:32Z</time>
      </trkpt>
      <trkpt lat="49.24296" lon="2.56753">
        <ele>144.8</ele>
        <time>2015-02-01T11:18:38Z</time>
      </trkpt>
      <trkpt lat="49.24291" lon="2.56762">
        <ele>144.9</ele>
        <time>2015-02-01T11:18:44Z</time>
      </trkpt>
      <trkpt lat="49.24292" lon="2.56773">
        <ele>143.7</ele>
        <time>2015-02-01T11:18:48Z</time>
      </trkpt>
      <trkpt lat="49.24292" lon="2.56775">
        <ele>143.5</ele>
        <time>2015-02-01T11:18:55Z</time>
      </trkpt>
      <trkpt lat="49.24285" lon="2.56778">
        <ele>141.8</ele>
        <time>2015-02-01T11:19:14Z</time>
      </trkpt>
      <trkpt lat="49.24285" lon="2.56785">
        <ele>142</ele>
        <time>2015-02-01T11:19:21Z</time>
      </trkpt>
      <trkpt lat="49.24285" lon="2.56798">
        <ele>142</ele>
        <time>2015-02-01T11:19:28Z</time>
      </trkpt>
      <trkpt lat="49.24285" lon="2.56809">
        <ele>142.4</ele>
        <time>2015-02-01T11:19:34Z</time>
      </trkpt>
      <trkpt lat="49.24285" lon="2.5682">
        <ele>142.5</ele>
        <time>2015-02-01T11:19:40Z</time>
      </trkpt>
      <trkpt lat="49.24284" lon="2.56832">
        <ele>141.9</ele>
        <time>2015-02-01T11:19:47Z</time>
      </trkpt>
      <trkpt lat="49.24283" lon="2.56845">
        <ele>141.8</ele>
        <time>2015-02-01T11:19:53Z</time>
      </trkpt>
      <trkpt lat="49.24282" lon="2.56857">
        <ele>141.4</ele>
        <time>2015-02-01T11:19:59Z</time>
      </trkpt>
      <trkpt lat="49.24282" lon="2.5687">
        <ele>140.5</ele>
        <time>2015-02-01T11:20:06Z</time>
      </trkpt>
      <trkpt lat="49.24282" lon="2.56881">
        <ele>139.9</ele>
        <time>2015-02-01T11:20:10Z</time>
      </trkpt>
      <trkpt lat="49.24281" lon="2.56892">
        <ele>139.3</ele>
        <time>2015-02-01T11:20:15Z</time>
      </trkpt>
      <trkpt lat="49.24279" lon="2.56905">
        <ele>138.5</ele>
        <time>2015-02-01T11:20:22Z</time>
      </trkpt>
      <trkpt lat="49.24279" lon="2.56917">
        <ele>137.5</ele>
        <time>2015-02-01T11:20:27Z</time>
      </trkpt>
      <trkpt lat="49.24279" lon="2.56928">
        <ele>136.3</ele>
        <time>2015-02-01T11:20:34Z</time>
      </trkpt>
      <trkpt lat="49.2428" lon="2.5694">
        <ele>135.4</ele>
        <time>2015-02-01T11:20:40Z</time>
      </trkpt>
      <trkpt lat="49.24278" lon="2.56952">
        <ele>134.9</ele>
        <time>2015-02-01T11:20:46Z</time>
      </trkpt>
      <trkpt lat="49.24278" lon="2.56964">
        <ele>134.5</ele>
        <time>2015-02-01T11:20:53Z</time>
      </trkpt>
      <trkpt lat="49.24279" lon="2.56976">
        <ele>134.1</ele>
        <time>2015-02-01T11:20:58Z</time>
      </trkpt>
      <trkpt lat="49.2428" lon="2.56987">
        <ele>133.7</ele>
        <time>2015-02-01T11:21:03Z</time>
      </trkpt>
      <trkpt lat="49.24282" lon="2.57">
        <ele>133.2</ele>
        <time>2015-02-01T11:21:10Z</time>
      </trkpt>
      <trkpt lat="49.24281" lon="2.57011">
        <ele>132.1</ele>
        <time>2015-02-01T11:21:16Z</time>
      </trkpt>
      <trkpt lat="49.24281" lon="2.57022">
        <ele>131</ele>
        <time>2015-02-01T11:21:23Z</time>
      </trkpt>
      <trkpt lat="49.24282" lon="2.57034">
        <ele>130.2</ele>
        <time>2015-02-01T11:21:30Z</time>
      </trkpt>
      <trkpt lat="49.24282" lon="2.57045">
        <ele>129.6</ele>
        <time>2015-02-01T11:21:36Z</time>
      </trkpt>
      <trkpt lat="49.24284" lon="2.57056">
        <ele>128.9</ele>
        <time>2015-02-01T11:21:43Z</time>
      </trkpt>
      <trkpt lat="49.24286" lon="2.5707">
        <ele>128.6</ele>
        <time>2015-02-01T11:21:48Z</time>
      </trkpt>
      <trkpt lat="49.24287" lon="2.57082">
        <ele>127.8</ele>
        <time>2015-02-01T11:21:52Z</time>
      </trkpt>
      <trkpt lat="49.24287" lon="2.57094">
        <ele>127.1</ele>
        <time>2015-02-01T11:21:57Z</time>
      </trkpt>
      <trkpt lat="49.24286" lon="2.57107">
        <ele>126.2</ele>
        <time>2015-02-01T11:22:04Z</time>
      </trkpt>
      <trkpt lat="49.24286" lon="2.5712">
        <ele>125.6</ele>
        <time>2015-02-01T11:22:10Z</time>
      </trkpt>
      <trkpt lat="49.24286" lon="2.57131">
        <ele>124.9</ele>
        <time>2015-02-01T11:22:15Z</time>
      </trkpt>
      <trkpt lat="49.24283" lon="2.57142">
        <ele>124.8</ele>
        <time>2015-02-01T11:22:22Z</time>
      </trkpt>
      <trkpt lat="49.24278" lon="2.57153">
        <ele>125.4</ele>
        <time>2015-02-01T11:22:27Z</time>
      </trkpt>
      <trkpt lat="49.24277" lon="2.57166">
        <ele>125.2</ele>
        <time>2015-02-01T11:22:32Z</time>
      </trkpt>
      <trkpt lat="49.24277" lon="2.57175">
        <ele>124.1</ele>
        <time>2015-02-01T11:22:39Z</time>
      </trkpt>
      <trkpt lat="49.24274" lon="2.57186">
        <ele>123</ele>
        <time>2015-02-01T11:22:45Z</time>
      </trkpt>
      <trkpt lat="49.2427" lon="2.57197">
        <ele>122.4</ele>
        <time>2015-02-01T11:22:51Z</time>
      </trkpt>
      <trkpt lat="49.24266" lon="2.57207">
        <ele>122.2</ele>
        <time>2015-02-01T11:22:58Z</time>
      </trkpt>
      <trkpt lat="49.2426" lon="2.57215">
        <ele>122.2</ele>
        <time>2015-02-01T11:23:04Z</time>
      </trkpt>
      <trkpt lat="49.24255" lon="2.57226">
        <ele>122.4</ele>
        <time>2015-02-01T11:23:11Z</time>
      </trkpt>
      <trkpt lat="49.2425" lon="2.57236">
        <ele>123</ele>
        <time>2015-02-01T11:23:17Z</time>
      </trkpt>
      <trkpt lat="49.24246" lon="2.57248">
        <ele>123.5</ele>
        <time>2015-02-01T11:23:23Z</time>
      </trkpt>
      <trkpt lat="49.24242" lon="2.57257">
        <ele>123.6</ele>
        <time>2015-02-01T11:23:28Z</time>
      </trkpt>
      <trkpt lat="49.24241" lon="2.57271">
        <ele>124.9</ele>
        <time>2015-02-01T11:23:34Z</time>
      </trkpt>
      <trkpt lat="49.24238" lon="2.57283">
        <ele>126.7</ele>
        <time>2015-02-01T11:23:39Z</time>
      </trkpt>
      <trkpt lat="49.24232" lon="2.57292">
        <ele>128.6</ele>
        <time>2015-02-01T11:23:43Z</time>
      </trkpt>
      <trkpt lat="49.24228" lon="2.57302">
        <ele>130.6</ele>
        <time>2015-02-01T11:23:47Z</time>
      </trkpt>
      <trkpt lat="49.24222" lon="2.57311">
        <ele>132.3</ele>
        <time>2015-02-01T11:23:51Z</time>
      </trkpt>
      <trkpt lat="49.24218" lon="2.57321">
        <ele>134.4</ele>
        <time>2015-02-01T11:23:56Z</time>
      </trkpt>
      <trkpt lat="49.24214" lon="2.57332">
        <ele>137.2</ele>
        <time>2015-02-01T11:24:02Z</time>
      </trkpt>
      <trkpt lat="49.24211" lon="2.57342">
        <ele>139.1</ele>
        <time>2015-02-01T11:24:07Z</time>
      </trkpt>
      <trkpt lat="49.24208" lon="2.57354">
        <ele>141.4</ele>
        <time>2015-02-01T11:24:14Z</time>
      </trkpt>
      <trkpt lat="49.24207" lon="2.57366">
        <ele>143.7</ele>
        <time>2015-02-01T11:24:20Z</time>
      </trkpt>
      <trkpt lat="49.24202" lon="2.57376">
        <ele>145.2</ele>
        <time>2015-02-01T11:24:26Z</time>
      </trkpt>
      <trkpt lat="49.24198" lon="2.57385">
        <ele>146.4</ele>
        <time>2015-02-01T11:24:32Z</time>
      </trkpt>
      <trkpt lat="49.24193" lon="2.57394">
        <ele>147.1</ele>
        <time>2015-02-01T11:24:38Z</time>
      </trkpt>
      <trkpt lat="49.2419" lon="2.57404">
        <ele>146.3</ele>
        <time>2015-02-01T11:24:43Z</time>
      </trkpt>
      <trkpt lat="49.24186" lon="2.57414">
        <ele>144.9</ele>
        <time>2015-02-01T11:24:48Z</time>
      </trkpt>
      <trkpt lat="49.2418" lon="2.57421">
        <ele>143.3</ele>
        <time>2015-02-01T11:24:54Z</time>
      </trkpt>
      <trkpt lat="49.24177" lon="2.57431">
        <ele>142.1</ele>
        <time>2015-02-01T11:25:00Z</time>
      </trkpt>
      <trkpt lat="49.24173" lon="2.57443">
        <ele>141.5</ele>
        <time>2015-02-01T11:25:06Z</time>
      </trkpt>
      <trkpt lat="49.2417" lon="2.57454">
        <ele>141.4</ele>
        <time>2015-02-01T11:25:13Z</time>
      </trkpt>
      <trkpt lat="49.24167" lon="2.57465">
        <ele>140.8</ele>
        <time>2015-02-01T11:25:18Z</time>
      </trkpt>
      <trkpt lat="49.24165" lon="2.57478">
        <ele>139.8</ele>
        <time>2015-02-01T11:25:24Z</time>
      </trkpt>
      <trkpt lat="49.24161" lon="2.57488">
        <ele>139.3</ele>
        <time>2015-02-01T11:25:29Z</time>
      </trkpt>
      <trkpt lat="49.24157" lon="2.57498">
        <ele>138.6</ele>
        <time>2015-02-01T11:25:36Z</time>
      </trkpt>
      <trkpt lat="49.24152" lon="2.57507">
        <ele>137.9</ele>
        <time>2015-02-01T11:25:43Z</time>
      </trkpt>
      <trkpt lat="49.24151" lon="2.57496">
        <ele>131.3</ele>
        <time>2015-02-01T11:26:17Z</time>
      </trkpt>
      <trkpt lat="49.24154" lon="2.57489">
        <ele>130</ele>
        <time>2015-02-01T11:26:24Z</time>
      </trkpt>
      <trkpt lat="49.24156" lon="2.57487">
        <ele>129</ele>
        <time>2015-02-01T11:26:31Z</time>
      </trkpt>
      <trkpt lat="49.24156" lon="2.57487">
        <ele>128.6</ele>
        <time>2015-02-01T11:26:38Z</time>
      </trkpt>
      <trkpt lat="49.2415" lon="2.57493">
        <ele>126.4</ele>
        <time>2015-02-01T11:26:45Z</time>
      </trkpt>
      <trkpt lat="49.2415" lon="2.57501">
        <ele>125.6</ele>
        <time>2015-02-01T11:26:52Z</time>
      </trkpt>
      <trkpt lat="49.24149" lon="2.57491">
        <ele>122.1</ele>
        <time>2015-02-01T11:27:42Z</time>
      </trkpt>
      <trkpt lat="49.24154" lon="2.57501">
        <ele>121.7</ele>
        <time>2015-02-01T11:28:19Z</time>
      </trkpt>
      <trkpt lat="49.24154" lon="2.57502">
        <ele>121.7</ele>
        <time>2015-02-01T11:28:26Z</time>
      </trkpt>
      <trkpt lat="49.24152" lon="2.57496">
        <ele>121.8</ele>
        <time>2015-02-01T11:28:42Z</time>
      </trkpt>
      <trkpt lat="49.24146" lon="2.57503">
        <ele>120.2</ele>
        <time>2015-02-01T11:29:34Z</time>
      </trkpt>
      <trkpt lat="49.24141" lon="2.575">
        <ele>120</ele>
        <time>2015-02-01T11:29:48Z</time>
      </trkpt>
      <trkpt lat="49.24148" lon="2.57503">
        <ele>119.6</ele>
        <time>2015-02-01T11:30:16Z</time>
      </trkpt>
      <trkpt lat="49.24149" lon="2.57499">
        <ele>118.9</ele>
        <time>2015-02-01T11:30:23Z</time>
      </trkpt>
      <trkpt lat="49.24154" lon="2.57493">
        <ele>117.4</ele>
        <time>2015-02-01T11:33:36Z</time>
      </trkpt>
      <trkpt lat="49.24155" lon="2.5749">
        <ele>117</ele>
        <time>2015-02-01T11:33:43Z</time>
      </trkpt>
      <trkpt lat="49.2415" lon="2.57497">
        <ele>116.9</ele>
        <time>2015-02-01T11:34:13Z</time>
      </trkpt>
      <trkpt lat="49.24151" lon="2.57501">
        <ele>116.3</ele>
        <time>2015-02-01T11:36:26Z</time>
      </trkpt>
      <trkpt lat="49.24148" lon="2.57496">
        <ele>115.3</ele>
        <time>2015-02-01T11:38:01Z</time>
      </trkpt>
      <trkpt lat="49.24154" lon="2.57495">
        <ele>114.6</ele>
        <time>2015-02-01T11:39:45Z</time>
      </trkpt>
      <trkpt lat="49.24154" lon="2.57484">
        <ele>114.7</ele>
        <time>2015-02-01T11:39:52Z</time>
      </trkpt>
      <trkpt lat="49.24154" lon="2.57472">
        <ele>114.7</ele>
        <time>2015-02-01T11:39:59Z</time>
      </trkpt>
      <trkpt lat="49.24153" lon="2.57461">
        <ele>114.7</ele>
        <time>2015-02-01T11:40:06Z</time>
      </trkpt>
      <trkpt lat="49.24149" lon="2.57451">
        <ele>114.8</ele>
        <time>2015-02-01T11:40:13Z</time>
      </trkpt>
      <trkpt lat="49.24146" lon="2.57446">
        <ele>114.8</ele>
        <time>2015-02-01T11:40:20Z</time>
      </trkpt>
      <trkpt lat="49.24146" lon="2.57445">
        <ele>114.9</ele>
        <time>2015-02-01T11:40:27Z</time>
      </trkpt>
      <trkpt lat="49.24145" lon="2.57451">
        <ele>115.3</ele>
        <time>2015-02-01T11:40:17Z</time>
      </trkpt>
      <trkpt lat="49.24147" lon="2.57461">
        <ele>115.8</ele>
        <time>2015-02-01T11:41:30Z</time>
      </trkpt>
      <trkpt lat="49.2415" lon="2.5747">
        <ele>115.8</ele>
        <time>2015-02-01T11:41:37Z</time>
      </trkpt>
      <trkpt lat="49.2415" lon="2.57481">
        <ele>116</ele>
        <time>2015-02-01T11:41:44Z</time>
      </trkpt>
      <trkpt lat="49.24147" lon="2.57491">
        <ele>116</ele>
        <time>2015-02-01T11:41:48Z</time>
      </trkpt>
      <trkpt lat="49.24146" lon="2.57495">
        <ele>115.5</ele>
        <time>2015-02-01T11:41:55Z</time>
      </trkpt>
      <trkpt lat="49.24151" lon="2.575">
        <ele>114.4</ele>
        <time>2015-02-01T11:42:15Z</time>
      </trkpt>
      <trkpt lat="49.24148" lon="2.57497">
        <ele>113.7</ele>
        <time>2015-02-01T11:42:45Z</time>
      </trkpt>
      <trkpt lat="49.2415" lon="2.5749">
        <ele>113.7</ele>
        <time>2015-02-01T11:44:07Z</time>
      </trkpt>
      <trkpt lat="49.2415" lon="2.57486">
        <ele>113.9</ele>
        <time>2015-02-01T11:44:14Z</time>
      </trkpt>
      <trkpt lat="49.24151" lon="2.57486">
        <ele>114.2</ele>
        <time>2015-02-01T11:44:21Z</time>
      </trkpt>
      <trkpt lat="49.24149" lon="2.57495">
        <ele>114.9</ele>
        <time>2015-02-01T11:45:00Z</time>
      </trkpt>
      <trkpt lat="49.24149" lon="2.57496">
        <ele>115</ele>
        <time>2015-02-01T11:45:07Z</time>
      </trkpt>
      <trkpt lat="49.24143" lon="2.57495">
        <ele>116.7</ele>
        <time>2015-02-01T11:44:58Z</time>
      </trkpt>
      <trkpt lat="49.2415" lon="2.57496">
        <ele>115.5</ele>
        <time>2015-02-01T11:51:34Z</time>
      </trkpt>
      <trkpt lat="49.24152" lon="2.57498">
        <ele>115.5</ele>
        <time>2015-02-01T11:51:41Z</time>
      </trkpt>
      <trkpt lat="49.2415" lon="2.57488">
        <ele>114.6</ele>
        <time>2015-02-01T11:52:53Z</time>
      </trkpt>
      <trkpt lat="49.2415" lon="2.57486">
        <ele>114.5</ele>
        <time>2015-02-01T11:53:27Z</time>
      </trkpt>
      <trkpt lat="49.24148" lon="2.57486">
        <ele>114.4</ele>
        <time>2015-02-01T11:53:34Z</time>
      </trkpt>
      <trkpt lat="49.24151" lon="2.57497">
        <ele>115.6</ele>
        <time>2015-02-01T11:55:12Z</time>
      </trkpt>
      <trkpt lat="49.24137" lon="2.57507">
        <ele>115.5</ele>
        <time>2015-02-01T11:58:50Z</time>
      </trkpt>
      <trkpt lat="49.24132" lon="2.57516">
        <ele>115.1</ele>
        <time>2015-02-01T11:58:57Z</time>
      </trkpt>
      <trkpt lat="49.24127" lon="2.57518">
        <ele>114.8</ele>
        <time>2015-02-01T11:59:04Z</time>
      </trkpt>
      <trkpt lat="49.24122" lon="2.57513">
        <ele>114.7</ele>
        <time>2015-02-01T11:59:11Z</time>
      </trkpt>
      <trkpt lat="49.24116" lon="2.57506">
        <ele>114.3</ele>
        <time>2015-02-01T11:59:17Z</time>
      </trkpt>
      <trkpt lat="49.24108" lon="2.57502">
        <ele>114.1</ele>
        <time>2015-02-01T11:59:24Z</time>
      </trkpt>
      <trkpt lat="49.24103" lon="2.57493">
        <ele>114</ele>
        <time>2015-02-01T11:59:30Z</time>
      </trkpt>
      <trkpt lat="49.24097" lon="2.57487">
        <ele>114.1</ele>
        <time>2015-02-01T11:59:37Z</time>
      </trkpt>
      <trkpt lat="49.24094" lon="2.57476">
        <ele>114</ele>
        <time>2015-02-01T11:59:42Z</time>
      </trkpt>
      <trkpt lat="49.24092" lon="2.57466">
        <ele>113.4</ele>
        <time>2015-02-01T11:59:49Z</time>
      </trkpt>
      <trkpt lat="49.24087" lon="2.57462">
        <ele>112.8</ele>
        <time>2015-02-01T11:59:56Z</time>
      </trkpt>
      <trkpt lat="49.24082" lon="2.57455">
        <ele>112.3</ele>
        <time>2015-02-01T12:00:03Z</time>
      </trkpt>
      <trkpt lat="49.24075" lon="2.57451">
        <ele>112.2</ele>
        <time>2015-02-01T12:00:10Z</time>
      </trkpt>
      <trkpt lat="49.24069" lon="2.57445">
        <ele>112.1</ele>
        <time>2015-02-01T12:00:17Z</time>
      </trkpt>
      <trkpt lat="49.24062" lon="2.57439">
        <ele>111.6</ele>
        <time>2015-02-01T12:00:24Z</time>
      </trkpt>
      <trkpt lat="49.24056" lon="2.57432">
        <ele>111.6</ele>
        <time>2015-02-01T12:00:31Z</time>
      </trkpt>
      <trkpt lat="49.24049" lon="2.57427">
        <ele>112</ele>
        <time>2015-02-01T12:00:38Z</time>
      </trkpt>
      <trkpt lat="49.24042" lon="2.57423">
        <ele>112.3</ele>
        <time>2015-02-01T12:00:44Z</time>
      </trkpt>
      <trkpt lat="49.24036" lon="2.57417">
        <ele>112.6</ele>
        <time>2015-02-01T12:00:50Z</time>
      </trkpt>
      <trkpt lat="49.24029" lon="2.57411">
        <ele>112.4</ele>
        <time>2015-02-01T12:00:56Z</time>
      </trkpt>
      <trkpt lat="49.24023" lon="2.57404">
        <ele>112.2</ele>
        <time>2015-02-01T12:01:02Z</time>
      </trkpt>
      <trkpt lat="49.24017" lon="2.57399">
        <ele>111.8</ele>
        <time>2015-02-01T12:01:09Z</time>
      </trkpt>
      <trkpt lat="49.2401" lon="2.57393">
        <ele>111.7</ele>
        <time>2015-02-01T12:01:15Z</time>
      </trkpt>
      <trkpt lat="49.24006" lon="2.5739">
        <ele>111</ele>
        <time>2015-02-01T12:01:22Z</time>
      </trkpt>
      <trkpt lat="49.24001" lon="2.57385">
        <ele>110.2</ele>
        <time>2015-02-01T12:01:29Z</time>
      </trkpt>
      <trkpt lat="49.23995" lon="2.57378">
        <ele>109.5</ele>
        <time>2015-02-01T12:01:36Z</time>
      </trkpt>
      <trkpt lat="49.23987" lon="2.57373">
        <ele>109</ele>
        <time>2015-02-01T12:01:42Z</time>
      </trkpt>
      <trkpt lat="49.23982" lon="2.57366">
        <ele>108.8</ele>
        <time>2015-02-01T12:01:47Z</time>
      </trkpt>
      <trkpt lat="49.23975" lon="2.57359">
        <ele>108.4</ele>
        <time>2015-02-01T12:01:52Z</time>
      </trkpt>
      <trkpt lat="49.23968" lon="2.57353">
        <ele>107.6</ele>
        <time>2015-02-01T12:01:57Z</time>
      </trkpt>
      <trkpt lat="49.23961" lon="2.57348">
        <ele>107.1</ele>
        <time>2015-02-01T12:02:04Z</time>
      </trkpt>
      <trkpt lat="49.23955" lon="2.57344">
        <ele>106.8</ele>
        <time>2015-02-01T12:02:11Z</time>
      </trkpt>
      <trkpt lat="49.2395" lon="2.57335">
        <ele>106.5</ele>
        <time>2015-02-01T12:02:18Z</time>
      </trkpt>
      <trkpt lat="49.23944" lon="2.57332">
        <ele>106.2</ele>
        <time>2015-02-01T12:02:25Z</time>
      </trkpt>
      <trkpt lat="49.23937" lon="2.5733">
        <ele>105.7</ele>
        <time>2015-02-01T12:02:32Z</time>
      </trkpt>
      <trkpt lat="49.23931" lon="2.57322">
        <ele>105.1</ele>
        <time>2015-02-01T12:02:39Z</time>
      </trkpt>
      <trkpt lat="49.23926" lon="2.57312">
        <ele>104.7</ele>
        <time>2015-02-01T12:02:44Z</time>
      </trkpt>
      <trkpt lat="49.2392" lon="2.57304">
        <ele>104.2</ele>
        <time>2015-02-01T12:02:50Z</time>
      </trkpt>
      <trkpt lat="49.23914" lon="2.57298">
        <ele>103.4</ele>
        <time>2015-02-01T12:02:56Z</time>
      </trkpt>
      <trkpt lat="49.23906" lon="2.57295">
        <ele>102.9</ele>
        <time>2015-02-01T12:03:02Z</time>
      </trkpt>
      <trkpt lat="49.23898" lon="2.57289">
        <ele>102.3</ele>
        <time>2015-02-01T12:03:09Z</time>
      </trkpt>
      <trkpt lat="49.23892" lon="2.57285">
        <ele>101.2</ele>
        <time>2015-02-01T12:03:14Z</time>
      </trkpt>
      <trkpt lat="49.23888" lon="2.57276">
        <ele>100.2</ele>
        <time>2015-02-01T12:03:21Z</time>
      </trkpt>
      <trkpt lat="49.23881" lon="2.57271">
        <ele>99.4</ele>
        <time>2015-02-01T12:03:28Z</time>
      </trkpt>
      <trkpt lat="49.23873" lon="2.57265">
        <ele>99.1</ele>
        <time>2015-02-01T12:03:33Z</time>
      </trkpt>
      <trkpt lat="49.23867" lon="2.57264">
        <ele>98.7</ele>
        <time>2015-02-01T12:03:40Z</time>
      </trkpt>
      <trkpt lat="49.23859" lon="2.57265">
        <ele>98.3</ele>
        <time>2015-02-01T12:03:47Z</time>
      </trkpt>
      <trkpt lat="49.23851" lon="2.57264">
        <ele>98.2</ele>
        <time>2015-02-01T12:03:51Z</time>
      </trkpt>
      <trkpt lat="49.23844" lon="2.57259">
        <ele>97.9</ele>
        <time>2015-02-01T12:03:58Z</time>
      </trkpt>
      <trkpt lat="49.23838" lon="2.57252">
        <ele>97.3</ele>
        <time>2015-02-01T12:04:04Z</time>
      </trkpt>
      <trkpt lat="49.23835" lon="2.57246">
        <ele>96.9</ele>
        <time>2015-02-01T12:04:11Z</time>
      </trkpt>
      <trkpt lat="49.23829" lon="2.57238">
        <ele>96.7</ele>
        <time>2015-02-01T12:04:18Z</time>
      </trkpt>
      <trkpt lat="49.23821" lon="2.57235">
        <ele>96</ele>
        <time>2015-02-01T12:04:23Z</time>
      </trkpt>
      <trkpt lat="49.23815" lon="2.57229">
        <ele>95.3</ele>
        <time>2015-02-01T12:04:29Z</time>
      </trkpt>
      <trkpt lat="49.2381" lon="2.57223">
        <ele>93.9</ele>
        <time>2015-02-01T12:04:36Z</time>
      </trkpt>
      <trkpt lat="49.23804" lon="2.57218">
        <ele>93.3</ele>
        <time>2015-02-01T12:04:43Z</time>
      </trkpt>
      <trkpt lat="49.23798" lon="2.57213">
        <ele>92.2</ele>
        <time>2015-02-01T12:04:50Z</time>
      </trkpt>
      <trkpt lat="49.23791" lon="2.57207">
        <ele>91.6</ele>
        <time>2015-02-01T12:04:55Z</time>
      </trkpt>
      <trkpt lat="49.23785" lon="2.572">
        <ele>91.1</ele>
        <time>2015-02-01T12:05:00Z</time>
      </trkpt>
      <trkpt lat="49.23778" lon="2.57195">
        <ele>90.3</ele>
        <time>2015-02-01T12:05:06Z</time>
      </trkpt>
      <trkpt lat="49.23772" lon="2.5719">
        <ele>89.4</ele>
        <time>2015-02-01T12:05:11Z</time>
      </trkpt>
      <trkpt lat="49.23764" lon="2.57186">
        <ele>88.6</ele>
        <time>2015-02-01T12:05:18Z</time>
      </trkpt>
      <trkpt lat="49.23756" lon="2.57184">
        <ele>88</ele>
        <time>2015-02-01T12:05:24Z</time>
      </trkpt>
      <trkpt lat="49.23748" lon="2.57182">
        <ele>87.8</ele>
        <time>2015-02-01T12:05:30Z</time>
      </trkpt>
      <trkpt lat="49.2374" lon="2.57182">
        <ele>87.7</ele>
        <time>2015-02-01T12:05:35Z</time>
      </trkpt>
      <trkpt lat="49.23732" lon="2.57181">
        <ele>87.4</ele>
        <time>2015-02-01T12:05:42Z</time>
      </trkpt>
      <trkpt lat="49.23723" lon="2.57178">
        <ele>87.5</ele>
        <time>2015-02-01T12:05:48Z</time>
      </trkpt>
      <trkpt lat="49.23714" lon="2.57177">
        <ele>87.3</ele>
        <time>2015-02-01T12:05:54Z</time>
      </trkpt>
      <trkpt lat="49.23707" lon="2.57178">
        <ele>87.5</ele>
        <time>2015-02-01T12:06:00Z</time>
      </trkpt>
      <trkpt lat="49.23699" lon="2.57181">
        <ele>87.3</ele>
        <time>2015-02-01T12:06:05Z</time>
      </trkpt>
      <trkpt lat="49.23691" lon="2.57182">
        <ele>87.3</ele>
        <time>2015-02-01T12:06:09Z</time>
      </trkpt>
      <trkpt lat="49.23683" lon="2.57186">
        <ele>87.1</ele>
        <time>2015-02-01T12:06:13Z</time>
      </trkpt>
      <trkpt lat="49.23675" lon="2.5719">
        <ele>87.2</ele>
        <time>2015-02-01T12:06:20Z</time>
      </trkpt>
      <trkpt lat="49.23669" lon="2.57197">
        <ele>86.6</ele>
        <time>2015-02-01T12:06:27Z</time>
      </trkpt>
      <trkpt lat="49.23662" lon="2.57202">
        <ele>86.1</ele>
        <time>2015-02-01T12:06:33Z</time>
      </trkpt>
      <trkpt lat="49.23654" lon="2.57205">
        <ele>85.9</ele>
        <time>2015-02-01T12:06:37Z</time>
      </trkpt>
      <trkpt lat="49.23647" lon="2.5721">
        <ele>85.7</ele>
        <time>2015-02-01T12:06:40Z</time>
      </trkpt>
      <trkpt lat="49.23641" lon="2.57217">
        <ele>85</ele>
        <time>2015-02-01T12:06:46Z</time>
      </trkpt>
      <trkpt lat="49.23634" lon="2.57224">
        <ele>85.3</ele>
        <time>2015-02-01T12:06:52Z</time>
      </trkpt>
      <trkpt lat="49.23627" lon="2.57229">
        <ele>85</ele>
        <time>2015-02-01T12:06:57Z</time>
      </trkpt>
      <trkpt lat="49.23623" lon="2.57234">
        <ele>84.9</ele>
        <time>2015-02-01T12:07:04Z</time>
      </trkpt>
      <trkpt lat="49.23616" lon="2.57241">
        <ele>85.4</ele>
        <time>2015-02-01T12:07:11Z</time>
      </trkpt>
      <trkpt lat="49.23612" lon="2.57245">
        <ele>85.6</ele>
        <time>2015-02-01T12:07:18Z</time>
      </trkpt>
      <trkpt lat="49.23603" lon="2.57247">
        <ele>86.1</ele>
        <time>2015-02-01T12:07:25Z</time>
      </trkpt>
      <trkpt lat="49.23597" lon="2.57255">
        <ele>85.7</ele>
        <time>2015-02-01T12:07:29Z</time>
      </trkpt>
      <trkpt lat="49.2359" lon="2.57262">
        <ele>85</ele>
        <time>2015-02-01T12:07:35Z</time>
      </trkpt>
      <trkpt lat="49.23584" lon="2.57269">
        <ele>84.1</ele>
        <time>2015-02-01T12:07:41Z</time>
      </trkpt>
      <trkpt lat="49.23581" lon="2.57273">
        <ele>83.8</ele>
        <time>2015-02-01T12:07:48Z</time>
      </trkpt>
      <trkpt lat="49.23575" lon="2.57277">
        <ele>83.8</ele>
        <time>2015-02-01T12:07:55Z</time>
      </trkpt>
      <trkpt lat="49.2357" lon="2.57279">
        <ele>84.9</ele>
        <time>2015-02-01T12:08:02Z</time>
      </trkpt>
      <trkpt lat="49.23565" lon="2.57283">
        <ele>85.2</ele>
        <time>2015-02-01T12:08:09Z</time>
      </trkpt>
      <trkpt lat="49.23558" lon="2.57285">
        <ele>85.2</ele>
        <time>2015-02-01T12:08:15Z</time>
      </trkpt>
      <trkpt lat="49.23551" lon="2.57286">
        <ele>84.4</ele>
        <time>2015-02-01T12:08:22Z</time>
      </trkpt>
      <trkpt lat="49.23544" lon="2.57288">
        <ele>83.8</ele>
        <time>2015-02-01T12:08:29Z</time>
      </trkpt>
      <trkpt lat="49.23536" lon="2.5729">
        <ele>83.3</ele>
        <time>2015-02-01T12:08:33Z</time>
      </trkpt>
      <trkpt lat="49.23527" lon="2.57291">
        <ele>82.8</ele>
        <time>2015-02-01T12:08:39Z</time>
      </trkpt>
      <trkpt lat="49.2352" lon="2.57296">
        <ele>82.6</ele>
        <time>2015-02-01T12:08:45Z</time>
      </trkpt>
      <trkpt lat="49.23516" lon="2.57301">
        <ele>82.9</ele>
        <time>2015-02-01T12:08:52Z</time>
      </trkpt>
      <trkpt lat="49.23512" lon="2.57303">
        <ele>83.2</ele>
        <time>2015-02-01T12:08:59Z</time>
      </trkpt>
      <trkpt lat="49.23508" lon="2.57301">
        <ele>83.1</ele>
        <time>2015-02-01T12:09:06Z</time>
      </trkpt>
      <trkpt lat="49.2351" lon="2.57307">
        <ele>84</ele>
        <time>2015-02-01T12:09:24Z</time>
      </trkpt>
      <trkpt lat="49.23516" lon="2.57315">
        <ele>83.9</ele>
        <time>2015-02-01T12:09:43Z</time>
      </trkpt>
      <trkpt lat="49.23521" lon="2.57317">
        <ele>84.9</ele>
        <time>2015-02-01T12:10:00Z</time>
      </trkpt>
      <trkpt lat="49.23509" lon="2.57319">
        <ele>85.1</ele>
        <time>2015-02-01T12:10:09Z</time>
      </trkpt>
      <trkpt lat="49.23509" lon="2.57321">
        <ele>85.5</ele>
        <time>2015-02-01T12:10:16Z</time>
      </trkpt>
      <trkpt lat="49.23506" lon="2.57319">
        <ele>86.5</ele>
        <time>2015-02-01T12:10:32Z</time>
      </trkpt>
      <trkpt lat="49.23505" lon="2.57313">
        <ele>87.4</ele>
        <time>2015-02-01T12:10:47Z</time>
      </trkpt>
      <trkpt lat="49.23496" lon="2.5731">
        <ele>87.5</ele>
        <time>2015-02-01T12:10:52Z</time>
      </trkpt>
      <trkpt lat="49.23489" lon="2.5731">
        <ele>87.4</ele>
        <time>2015-02-01T12:10:57Z</time>
      </trkpt>
      <trkpt lat="49.23483" lon="2.5731">
        <ele>87.5</ele>
        <time>2015-02-01T12:11:04Z</time>
      </trkpt>
      <trkpt lat="49.23476" lon="2.57309">
        <ele>88.2</ele>
        <time>2015-02-01T12:11:11Z</time>
      </trkpt>
      <trkpt lat="49.23468" lon="2.57309">
        <ele>88.2</ele>
        <time>2015-02-01T12:11:17Z</time>
      </trkpt>
      <trkpt lat="49.2346" lon="2.5731">
        <ele>88.3</ele>
        <time>2015-02-01T12:11:24Z</time>
      </trkpt>
      <trkpt lat="49.23452" lon="2.57312">
        <ele>88.3</ele>
        <time>2015-02-01T12:11:30Z</time>
      </trkpt>
      <trkpt lat="49.23449" lon="2.57317">
        <ele>88</ele>
        <time>2015-02-01T12:11:37Z</time>
      </trkpt>
      <trkpt lat="49.23441" lon="2.57319">
        <ele>88.1</ele>
        <time>2015-02-01T12:11:44Z</time>
      </trkpt>
      <trkpt lat="49.23434" lon="2.5732">
        <ele>87.9</ele>
        <time>2015-02-01T12:11:49Z</time>
      </trkpt>
      <trkpt lat="49.23428" lon="2.5732">
        <ele>87.3</ele>
        <time>2015-02-01T12:11:56Z</time>
      </trkpt>
      <trkpt lat="49.23421" lon="2.57324">
        <ele>87.2</ele>
        <time>2015-02-01T12:12:03Z</time>
      </trkpt>
      <trkpt lat="49.23413" lon="2.57332">
        <ele>86.8</ele>
        <time>2015-02-01T12:12:09Z</time>
      </trkpt>
      <trkpt lat="49.23406" lon="2.57333">
        <ele>86</ele>
        <time>2015-02-01T12:12:15Z</time>
      </trkpt>
      <trkpt lat="49.23403" lon="2.5734">
        <ele>84.7</ele>
        <time>2015-02-01T12:12:22Z</time>
      </trkpt>
      <trkpt lat="49.23398" lon="2.57346">
        <ele>83.6</ele>
        <time>2015-02-01T12:12:29Z</time>
      </trkpt>
      <trkpt lat="49.23392" lon="2.57347">
        <ele>83.3</ele>
        <time>2015-02-01T12:12:36Z</time>
      </trkpt>
      <trkpt lat="49.23385" lon="2.57351">
        <ele>83.3</ele>
        <time>2015-02-01T12:12:43Z</time>
      </trkpt>
      <trkpt lat="49.2338" lon="2.57356">
        <ele>82.7</ele>
        <time>2015-02-01T12:12:50Z</time>
      </trkpt>
      <trkpt lat="49.23372" lon="2.57357">
        <ele>82.1</ele>
        <time>2015-02-01T12:12:57Z</time>
      </trkpt>
      <trkpt lat="49.23365" lon="2.5736">
        <ele>81.2</ele>
        <time>2015-02-01T12:13:03Z</time>
      </trkpt>
      <trkpt lat="49.23357" lon="2.57363">
        <ele>81.2</ele>
        <time>2015-02-01T12:13:10Z</time>
      </trkpt>
      <trkpt lat="49.23349" lon="2.57367">
        <ele>80.9</ele>
        <time>2015-02-01T12:13:17Z</time>
      </trkpt>
      <trkpt lat="49.23342" lon="2.57371">
        <ele>80.5</ele>
        <time>2015-02-01T12:13:23Z</time>
      </trkpt>
      <trkpt lat="49.23335" lon="2.57376">
        <ele>80.5</ele>
        <time>2015-02-01T12:13:29Z</time>
      </trkpt>
      <trkpt lat="49.23328" lon="2.57381">
        <ele>80.5</ele>
        <time>2015-02-01T12:13:34Z</time>
      </trkpt>
      <trkpt lat="49.23324" lon="2.57386">
        <ele>80.9</ele>
        <time>2015-02-01T12:13:41Z</time>
      </trkpt>
      <trkpt lat="49.23317" lon="2.57393">
        <ele>80.6</ele>
        <time>2015-02-01T12:13:48Z</time>
      </trkpt>
      <trkpt lat="49.23309" lon="2.57396">
        <ele>80.3</ele>
        <time>2015-02-01T12:13:55Z</time>
      </trkpt>
      <trkpt lat="49.23302" lon="2.574">
        <ele>79.7</ele>
        <time>2015-02-01T12:14:01Z</time>
      </trkpt>
      <trkpt lat="49.23295" lon="2.57401">
        <ele>79.3</ele>
        <time>2015-02-01T12:14:08Z</time>
      </trkpt>
      <trkpt lat="49.23288" lon="2.57406">
        <ele>79.4</ele>
        <time>2015-02-01T12:14:15Z</time>
      </trkpt>
      <trkpt lat="49.2328" lon="2.5741">
        <ele>79.7</ele>
        <time>2015-02-01T12:14:22Z</time>
      </trkpt>
      <trkpt lat="49.23274" lon="2.57414">
        <ele>79.8</ele>
        <time>2015-02-01T12:14:29Z</time>
      </trkpt>
      <trkpt lat="49.23265" lon="2.57419">
        <ele>80.2</ele>
        <time>2015-02-01T12:14:35Z</time>
      </trkpt>
      <trkpt lat="49.23257" lon="2.57422">
        <ele>80.5</ele>
        <time>2015-02-01T12:14:41Z</time>
      </trkpt>
      <trkpt lat="49.23252" lon="2.57427">
        <ele>81.3</ele>
        <time>2015-02-01T12:14:48Z</time>
      </trkpt>
      <trkpt lat="49.23246" lon="2.57429">
        <ele>81.8</ele>
        <time>2015-02-01T12:14:55Z</time>
      </trkpt>
      <trkpt lat="49.2324" lon="2.57435">
        <ele>82.2</ele>
        <time>2015-02-01T12:15:02Z</time>
      </trkpt>
      <trkpt lat="49.23233" lon="2.57441">
        <ele>82.4</ele>
        <time>2015-02-01T12:15:07Z</time>
      </trkpt>
      <trkpt lat="49.23225" lon="2.57444">
        <ele>82.6</ele>
        <time>2015-02-01T12:15:13Z</time>
      </trkpt>
      <trkpt lat="49.23218" lon="2.57447">
        <ele>82.7</ele>
        <time>2015-02-01T12:15:20Z</time>
      </trkpt>
      <trkpt lat="49.23212" lon="2.57448">
        <ele>82.8</ele>
        <time>2015-02-01T12:15:27Z</time>
      </trkpt>
      <trkpt lat="49.23204" lon="2.57451">
        <ele>82.9</ele>
        <time>2015-02-01T12:15:33Z</time>
      </trkpt>
      <trkpt lat="49.23197" lon="2.57457">
        <ele>83</ele>
        <time>2015-02-01T12:15:39Z</time>
      </trkpt>
      <trkpt lat="49.23191" lon="2.57464">
        <ele>82.6</ele>
        <time>2015-02-01T12:15:45Z</time>
      </trkpt>
      <trkpt lat="49.23188" lon="2.57463">
        <ele>81.7</ele>
        <time>2015-02-01T12:15:52Z</time>
      </trkpt>
      <trkpt lat="49.23182" lon="2.57465">
        <ele>81.7</ele>
        <time>2015-02-01T12:15:59Z</time>
      </trkpt>
      <trkpt lat="49.23178" lon="2.57474">
        <ele>81.9</ele>
        <time>2015-02-01T12:16:06Z</time>
      </trkpt>
      <trkpt lat="49.23171" lon="2.57479">
        <ele>81.6</ele>
        <time>2015-02-01T12:16:13Z</time>
      </trkpt>
      <trkpt lat="49.23165" lon="2.57482">
        <ele>81.2</ele>
        <time>2015-02-01T12:16:20Z</time>
      </trkpt>
      <trkpt lat="49.2316" lon="2.57481">
        <ele>80.9</ele>
        <time>2015-02-01T12:16:34Z</time>
      </trkpt>
      <trkpt lat="49.23161" lon="2.57485">
        <ele>80.5</ele>
        <time>2015-02-01T12:16:41Z</time>
      </trkpt>
      <trkpt lat="49.23158" lon="2.57489">
        <ele>79.8</ele>
        <time>2015-02-01T12:16:48Z</time>
      </trkpt>
      <trkpt lat="49.23151" lon="2.57494">
        <ele>79.4</ele>
        <time>2015-02-01T12:16:55Z</time>
      </trkpt>
      <trkpt lat="49.23143" lon="2.57495">
        <ele>79.1</ele>
        <time>2015-02-01T12:17:02Z</time>
      </trkpt>
      <trkpt lat="49.23139" lon="2.57496">
        <ele>78.8</ele>
        <time>2015-02-01T12:17:09Z</time>
      </trkpt>
      <trkpt lat="49.23131" lon="2.57493">
        <ele>78.9</ele>
        <time>2015-02-01T12:17:14Z</time>
      </trkpt>
      <trkpt lat="49.23123" lon="2.57492">
        <ele>78.9</ele>
        <time>2015-02-01T12:17:20Z</time>
      </trkpt>
      <trkpt lat="49.23122" lon="2.57498">
        <ele>78.4</ele>
        <time>2015-02-01T12:17:27Z</time>
      </trkpt>
      <trkpt lat="49.23116" lon="2.575">
        <ele>78.2</ele>
        <time>2015-02-01T12:17:34Z</time>
      </trkpt>
      <trkpt lat="49.23108" lon="2.57502">
        <ele>78.4</ele>
        <time>2015-02-01T12:17:41Z</time>
      </trkpt>
      <trkpt lat="49.231" lon="2.57499">
        <ele>78.1</ele>
        <time>2015-02-01T12:17:45Z</time>
      </trkpt>
      <trkpt lat="49.23093" lon="2.57501">
        <ele>78.4</ele>
        <time>2015-02-01T12:17:52Z</time>
      </trkpt>
      <trkpt lat="49.23087" lon="2.575">
        <ele>78</ele>
        <time>2015-02-01T12:17:59Z</time>
      </trkpt>
      <trkpt lat="49.2308" lon="2.57501">
        <ele>77.7</ele>
        <time>2015-02-01T12:18:05Z</time>
      </trkpt>
      <trkpt lat="49.23073" lon="2.57498">
        <ele>77.4</ele>
        <time>2015-02-01T12:18:12Z</time>
      </trkpt>
      <trkpt lat="49.23065" lon="2.57497">
        <ele>77.5</ele>
        <time>2015-02-01T12:18:18Z</time>
      </trkpt>
      <trkpt lat="49.23057" lon="2.57495">
        <ele>77</ele>
        <time>2015-02-01T12:18:24Z</time>
      </trkpt>
      <trkpt lat="49.2305" lon="2.57494">
        <ele>76.7</ele>
        <time>2015-02-01T12:18:27Z</time>
      </trkpt>
      <trkpt lat="49.23042" lon="2.57493">
        <ele>76.3</ele>
        <time>2015-02-01T12:18:32Z</time>
      </trkpt>
      <trkpt lat="49.2304" lon="2.57493">
        <ele>76.6</ele>
        <time>2015-02-01T12:18:39Z</time>
      </trkpt>
      <trkpt lat="49.23033" lon="2.57493">
        <ele>76.8</ele>
        <time>2015-02-01T12:18:46Z</time>
      </trkpt>
      <trkpt lat="49.23026" lon="2.57489">
        <ele>77</ele>
        <time>2015-02-01T12:18:51Z</time>
      </trkpt>
      <trkpt lat="49.23022" lon="2.57485">
        <ele>77.3</ele>
        <time>2015-02-01T12:18:58Z</time>
      </trkpt>
      <trkpt lat="49.23015" lon="2.57487">
        <ele>78.2</ele>
        <time>2015-02-01T12:19:05Z</time>
      </trkpt>
      <trkpt lat="49.23006" lon="2.57486">
        <ele>78</ele>
        <time>2015-02-01T12:19:11Z</time>
      </trkpt>
      <trkpt lat="49.22999" lon="2.57481">
        <ele>79</ele>
        <time>2015-02-01T12:19:17Z</time>
      </trkpt>
      <trkpt lat="49.2299" lon="2.57477">
        <ele>79.9</ele>
        <time>2015-02-01T12:19:23Z</time>
      </trkpt>
      <trkpt lat="49.22982" lon="2.57482">
        <ele>80.2</ele>
        <time>2015-02-01T12:19:28Z</time>
      </trkpt>
      <trkpt lat="49.22975" lon="2.57485">
        <ele>80.3</ele>
        <time>2015-02-01T12:19:35Z</time>
      </trkpt>
      <trkpt lat="49.22968" lon="2.57486">
        <ele>80.4</ele>
        <time>2015-02-01T12:19:42Z</time>
      </trkpt>
      <trkpt lat="49.22961" lon="2.5749">
        <ele>79.1</ele>
        <time>2015-02-01T12:19:49Z</time>
      </trkpt>
      <trkpt lat="49.2296" lon="2.57493">
        <ele>78.1</ele>
        <time>2015-02-01T12:19:56Z</time>
      </trkpt>
      <trkpt lat="49.22954" lon="2.57496">
        <ele>77.3</ele>
        <time>2015-02-01T12:20:17Z</time>
      </trkpt>
      <trkpt lat="49.2295" lon="2.57491">
        <ele>77.1</ele>
        <time>2015-02-01T12:20:24Z</time>
      </trkpt>
      <trkpt lat="49.22945" lon="2.57486">
        <ele>77.1</ele>
        <time>2015-02-01T12:20:31Z</time>
      </trkpt>
      <trkpt lat="49.22937" lon="2.57482">
        <ele>77.1</ele>
        <time>2015-02-01T12:20:38Z</time>
      </trkpt>
      <trkpt lat="49.22928" lon="2.57478">
        <ele>77.2</ele>
        <time>2015-02-01T12:20:43Z</time>
      </trkpt>
      <trkpt lat="49.2292" lon="2.57474">
        <ele>77.4</ele>
        <time>2015-02-01T12:20:47Z</time>
      </trkpt>
      <trkpt lat="49.22913" lon="2.57468">
        <ele>77.7</ele>
        <time>2015-02-01T12:20:53Z</time>
      </trkpt>
      <trkpt lat="49.22906" lon="2.57466">
        <ele>78</ele>
        <time>2015-02-01T12:21:00Z</time>
      </trkpt>
      <trkpt lat="49.22899" lon="2.57466">
        <ele>78.1</ele>
        <time>2015-02-01T12:21:07Z</time>
      </trkpt>
      <trkpt lat="49.22891" lon="2.57471">
        <ele>77.8</ele>
        <time>2015-02-01T12:21:14Z</time>
      </trkpt>
      <trkpt lat="49.22885" lon="2.57471">
        <ele>77.9</ele>
        <time>2015-02-01T12:21:21Z</time>
      </trkpt>
      <trkpt lat="49.2288" lon="2.57468">
        <ele>77.7</ele>
        <time>2015-02-01T12:21:28Z</time>
      </trkpt>
      <trkpt lat="49.22871" lon="2.57464">
        <ele>77.7</ele>
        <time>2015-02-01T12:21:35Z</time>
      </trkpt>
      <trkpt lat="49.22864" lon="2.57464">
        <ele>77.7</ele>
        <time>2015-02-01T12:21:40Z</time>
      </trkpt>
      <trkpt lat="49.22856" lon="2.57462">
        <ele>77.8</ele>
        <time>2015-02-01T12:21:45Z</time>
      </trkpt>
      <trkpt lat="49.22847" lon="2.57461">
        <ele>78.2</ele>
        <time>2015-02-01T12:21:50Z</time>
      </trkpt>
      <trkpt lat="49.2284" lon="2.5746">
        <ele>78</ele>
        <time>2015-02-01T12:21:55Z</time>
      </trkpt>
      <trkpt lat="49.22832" lon="2.57455">
        <ele>77.3</ele>
        <time>2015-02-01T12:22:01Z</time>
      </trkpt>
      <trkpt lat="49.22824" lon="2.5745">
        <ele>76.7</ele>
        <time>2015-02-01T12:22:06Z</time>
      </trkpt>
      <trkpt lat="49.2282" lon="2.57447">
        <ele>75.4</ele>
        <time>2015-02-01T12:22:13Z</time>
      </trkpt>
      <trkpt lat="49.22815" lon="2.57437">
        <ele>74.4</ele>
        <time>2015-02-01T12:22:20Z</time>
      </trkpt>
      <trkpt lat="49.22808" lon="2.5743">
        <ele>73.2</ele>
        <time>2015-02-01T12:22:27Z</time>
      </trkpt>
      <trkpt lat="49.22803" lon="2.5742">
        <ele>72.3</ele>
        <time>2015-02-01T12:22:32Z</time>
      </trkpt>
      <trkpt lat="49.22798" lon="2.57413">
        <ele>70.9</ele>
        <time>2015-02-01T12:22:39Z</time>
      </trkpt>
      <trkpt lat="49.22795" lon="2.57407">
        <ele>69.8</ele>
        <time>2015-02-01T12:22:46Z</time>
      </trkpt>
      <trkpt lat="49.22788" lon="2.57401">
        <ele>69.3</ele>
        <time>2015-02-01T12:22:53Z</time>
      </trkpt>
      <trkpt lat="49.2278" lon="2.57399">
        <ele>68.5</ele>
        <time>2015-02-01T12:22:58Z</time>
      </trkpt>
      <trkpt lat="49.22773" lon="2.57394">
        <ele>67.9</ele>
        <time>2015-02-01T12:23:02Z</time>
      </trkpt>
      <trkpt lat="49.22766" lon="2.57389">
        <ele>67.1</ele>
        <time>2015-02-01T12:23:08Z</time>
      </trkpt>
      <trkpt lat="49.2276" lon="2.57387">
        <ele>67.1</ele>
        <time>2015-02-01T12:23:15Z</time>
      </trkpt>
      <trkpt lat="49.22752" lon="2.57386">
        <ele>66.5</ele>
        <time>2015-02-01T12:23:22Z</time>
      </trkpt>
      <trkpt lat="49.22744" lon="2.57385">
        <ele>65.8</ele>
        <time>2015-02-01T12:23:28Z</time>
      </trkpt>
      <trkpt lat="49.22737" lon="2.57383">
        <ele>65</ele>
        <time>2015-02-01T12:23:33Z</time>
      </trkpt>
      <trkpt lat="49.22729" lon="2.57381">
        <ele>64.6</ele>
        <time>2015-02-01T12:23:38Z</time>
      </trkpt>
      <trkpt lat="49.22722" lon="2.57379">
        <ele>64.8</ele>
        <time>2015-02-01T12:23:42Z</time>
      </trkpt>
      <trkpt lat="49.22713" lon="2.57381">
        <ele>65.2</ele>
        <time>2015-02-01T12:23:47Z</time>
      </trkpt>
      <trkpt lat="49.22705" lon="2.57383">
        <ele>65.5</ele>
        <time>2015-02-01T12:23:53Z</time>
      </trkpt>
      <trkpt lat="49.22697" lon="2.57383">
        <ele>65.4</ele>
        <time>2015-02-01T12:23:58Z</time>
      </trkpt>
      <trkpt lat="49.22689" lon="2.57381">
        <ele>65.5</ele>
        <time>2015-02-01T12:24:04Z</time>
      </trkpt>
      <trkpt lat="49.22683" lon="2.57382">
        <ele>65.4</ele>
        <time>2015-02-01T12:24:11Z</time>
      </trkpt>
      <trkpt lat="49.22676" lon="2.57391">
        <ele>65</ele>
        <time>2015-02-01T12:24:17Z</time>
      </trkpt>
      <trkpt lat="49.22669" lon="2.57397">
        <ele>64.3</ele>
        <time>2015-02-01T12:24:22Z</time>
      </trkpt>
      <trkpt lat="49.22661" lon="2.57403">
        <ele>63.7</ele>
        <time>2015-02-01T12:24:26Z</time>
      </trkpt>
      <trkpt lat="49.22654" lon="2.57411">
        <ele>62.9</ele>
        <time>2015-02-01T12:24:31Z</time>
      </trkpt>
      <trkpt lat="49.22648" lon="2.57415">
        <ele>62.2</ele>
        <time>2015-02-01T12:24:36Z</time>
      </trkpt>
      <trkpt lat="49.22641" lon="2.57421">
        <ele>61.4</ele>
        <time>2015-02-01T12:24:43Z</time>
      </trkpt>
      <trkpt lat="49.22634" lon="2.57426">
        <ele>61.2</ele>
        <time>2015-02-01T12:24:46Z</time>
      </trkpt>
      <trkpt lat="49.22626" lon="2.5743">
        <ele>61</ele>
        <time>2015-02-01T12:24:50Z</time>
      </trkpt>
      <trkpt lat="49.22619" lon="2.57435">
        <ele>60.5</ele>
        <time>2015-02-01T12:24:56Z</time>
      </trkpt>
      <trkpt lat="49.22611" lon="2.5744">
        <ele>59.7</ele>
        <time>2015-02-01T12:25:02Z</time>
      </trkpt>
      <trkpt lat="49.22604" lon="2.57442">
        <ele>59.2</ele>
        <time>2015-02-01T12:25:06Z</time>
      </trkpt>
      <trkpt lat="49.22596" lon="2.57449">
        <ele>58.5</ele>
        <time>2015-02-01T12:25:12Z</time>
      </trkpt>
      <trkpt lat="49.22588" lon="2.57457">
        <ele>58.6</ele>
        <time>2015-02-01T12:25:16Z</time>
      </trkpt>
      <trkpt lat="49.2258" lon="2.57461">
        <ele>58.4</ele>
        <time>2015-02-01T12:25:22Z</time>
      </trkpt>
      <trkpt lat="49.22572" lon="2.57462">
        <ele>57.9</ele>
        <time>2015-02-01T12:25:28Z</time>
      </trkpt>
      <trkpt lat="49.22564" lon="2.57463">
        <ele>58</ele>
        <time>2015-02-01T12:25:35Z</time>
      </trkpt>
      <trkpt lat="49.22559" lon="2.57469">
        <ele>58.1</ele>
        <time>2015-02-01T12:25:42Z</time>
      </trkpt>
      <trkpt lat="49.22551" lon="2.57471">
        <ele>58.2</ele>
        <time>2015-02-01T12:25:48Z</time>
      </trkpt>
      <trkpt lat="49.22544" lon="2.57473">
        <ele>58.1</ele>
        <time>2015-02-01T12:25:52Z</time>
      </trkpt>
      <trkpt lat="49.22537" lon="2.57478">
        <ele>58.5</ele>
        <time>2015-02-01T12:25:55Z</time>
      </trkpt>
      <trkpt lat="49.22532" lon="2.57483">
        <ele>59.1</ele>
        <time>2015-02-01T12:26:02Z</time>
      </trkpt>
      <trkpt lat="49.22535" lon="2.57486">
        <ele>60.9</ele>
        <time>2015-02-01T12:26:09Z</time>
      </trkpt>
      <trkpt lat="49.2253" lon="2.57487">
        <ele>61.9</ele>
        <time>2015-02-01T12:26:16Z</time>
      </trkpt>
      <trkpt lat="49.22522" lon="2.57491">
        <ele>62.2</ele>
        <time>2015-02-01T12:26:20Z</time>
      </trkpt>
      <trkpt lat="49.22514" lon="2.57493">
        <ele>62.7</ele>
        <time>2015-02-01T12:26:24Z</time>
      </trkpt>
      <trkpt lat="49.22504" lon="2.57495">
        <ele>63.2</ele>
        <time>2015-02-01T12:26:30Z</time>
      </trkpt>
      <trkpt lat="49.22496" lon="2.575">
        <ele>63.6</ele>
        <time>2015-02-01T12:26:34Z</time>
      </trkpt>
      <trkpt lat="49.22488" lon="2.57503">
        <ele>64.1</ele>
        <time>2015-02-01T12:26:37Z</time>
      </trkpt>
      <trkpt lat="49.2248" lon="2.57505">
        <ele>64.7</ele>
        <time>2015-02-01T12:26:43Z</time>
      </trkpt>
      <trkpt lat="49.22473" lon="2.57508">
        <ele>65.6</ele>
        <time>2015-02-01T12:26:48Z</time>
      </trkpt>
      <trkpt lat="49.22465" lon="2.57513">
        <ele>66.5</ele>
        <time>2015-02-01T12:26:55Z</time>
      </trkpt>
      <trkpt lat="49.22458" lon="2.57517">
        <ele>66.7</ele>
        <time>2015-02-01T12:26:59Z</time>
      </trkpt>
      <trkpt lat="49.22451" lon="2.57522">
        <ele>67.2</ele>
        <time>2015-02-01T12:27:04Z</time>
      </trkpt>
      <trkpt lat="49.22444" lon="2.57526">
        <ele>67.9</ele>
        <time>2015-02-01T12:27:09Z</time>
      </trkpt>
      <trkpt lat="49.22437" lon="2.57531">
        <ele>68.5</ele>
        <time>2015-02-01T12:27:14Z</time>
      </trkpt>
      <trkpt lat="49.22428" lon="2.57535">
        <ele>69.1</ele>
        <time>2015-02-01T12:27:20Z</time>
      </trkpt>
      <trkpt lat="49.22422" lon="2.57539">
        <ele>69.8</ele>
        <time>2015-02-01T12:27:26Z</time>
      </trkpt>
      <trkpt lat="49.22414" lon="2.57538">
        <ele>70.9</ele>
        <time>2015-02-01T12:27:33Z</time>
      </trkpt>
      <trkpt lat="49.22408" lon="2.57539">
        <ele>71.4</ele>
        <time>2015-02-01T12:27:40Z</time>
      </trkpt>
      <trkpt lat="49.22406" lon="2.57535">
        <ele>72.2</ele>
        <time>2015-02-01T12:27:47Z</time>
      </trkpt>
      <trkpt lat="49.22407" lon="2.57535">
        <ele>72.7</ele>
        <time>2015-02-01T12:27:54Z</time>
      </trkpt>
      <trkpt lat="49.22404" lon="2.57545">
        <ele>72.6</ele>
        <time>2015-02-01T12:28:10Z</time>
      </trkpt>
      <trkpt lat="49.22404" lon="2.57557">
        <ele>73.3</ele>
        <time>2015-02-01T12:28:25Z</time>
      </trkpt>
      <trkpt lat="49.22407" lon="2.57559">
        <ele>73.3</ele>
        <time>2015-02-01T12:29:02Z</time>
      </trkpt>
      <trkpt lat="49.2241" lon="2.57558">
        <ele>73.7</ele>
        <time>2015-02-01T12:29:09Z</time>
      </trkpt>
      <trkpt lat="49.22404" lon="2.57548">
        <ele>74.6</ele>
        <time>2015-02-01T12:28:48Z</time>
      </trkpt>
      <trkpt lat="49.22401" lon="2.57541">
        <ele>74.4</ele>
        <time>2015-02-01T12:30:01Z</time>
      </trkpt>
      <trkpt lat="49.22398" lon="2.57533">
        <ele>74.6</ele>
        <time>2015-02-01T12:30:08Z</time>
      </trkpt>
      <trkpt lat="49.22398" lon="2.57531">
        <ele>75</ele>
        <time>2015-02-01T12:30:15Z</time>
      </trkpt>
      <trkpt lat="49.22402" lon="2.57536">
        <ele>76.1</ele>
        <time>2015-02-01T12:30:30Z</time>
      </trkpt>
      <trkpt lat="49.22403" lon="2.57537">
        <ele>76.2</ele>
        <time>2015-02-01T12:30:37Z</time>
      </trkpt>
      <trkpt lat="49.224" lon="2.57528">
        <ele>76.8</ele>
        <time>2015-02-01T12:31:02Z</time>
      </trkpt>
      <trkpt lat="49.22399" lon="2.57516">
        <ele>76.7</ele>
        <time>2015-02-01T12:31:09Z</time>
      </trkpt>
      <trkpt lat="49.22398" lon="2.57507">
        <ele>76.9</ele>
        <time>2015-02-01T12:31:16Z</time>
      </trkpt>
      <trkpt lat="49.22394" lon="2.57496">
        <ele>77</ele>
        <time>2015-02-01T12:31:22Z</time>
      </trkpt>
      <trkpt lat="49.22393" lon="2.57486">
        <ele>77.2</ele>
        <time>2015-02-01T12:31:29Z</time>
      </trkpt>
      <trkpt lat="49.22389" lon="2.57475">
        <ele>77.5</ele>
        <time>2015-02-01T12:31:35Z</time>
      </trkpt>
      <trkpt lat="49.22383" lon="2.57467">
        <ele>77.7</ele>
        <time>2015-02-01T12:31:42Z</time>
      </trkpt>
      <trkpt lat="49.2238" lon="2.57456">
        <ele>78</ele>
        <time>2015-02-01T12:31:47Z</time>
      </trkpt>
      <trkpt lat="49.22378" lon="2.57445">
        <ele>78.7</ele>
        <time>2015-02-01T12:31:53Z</time>
      </trkpt>
      <trkpt lat="49.22373" lon="2.57434">
        <ele>79.1</ele>
        <time>2015-02-01T12:31:59Z</time>
      </trkpt>
      <trkpt lat="49.2237" lon="2.57429">
        <ele>79.7</ele>
        <time>2015-02-01T12:32:06Z</time>
      </trkpt>
      <trkpt lat="49.22366" lon="2.57421">
        <ele>79.7</ele>
        <time>2015-02-01T12:32:21Z</time>
      </trkpt>
      <trkpt lat="49.22363" lon="2.57409">
        <ele>79.8</ele>
        <time>2015-02-01T12:32:26Z</time>
      </trkpt>
      <trkpt lat="49.22359" lon="2.57399">
        <ele>79.9</ele>
        <time>2015-02-01T12:32:31Z</time>
      </trkpt>
      <trkpt lat="49.22356" lon="2.57388">
        <ele>79.7</ele>
        <time>2015-02-01T12:32:36Z</time>
      </trkpt>
      <trkpt lat="49.22352" lon="2.57378">
        <ele>79.7</ele>
        <time>2015-02-01T12:32:41Z</time>
      </trkpt>
      <trkpt lat="49.22348" lon="2.57367">
        <ele>79.8</ele>
        <time>2015-02-01T12:32:47Z</time>
      </trkpt>
      <trkpt lat="49.22343" lon="2.57358">
        <ele>80</ele>
        <time>2015-02-01T12:32:54Z</time>
      </trkpt>
      <trkpt lat="49.22341" lon="2.57346">
        <ele>80</ele>
        <time>2015-02-01T12:32:59Z</time>
      </trkpt>
      <trkpt lat="49.22337" lon="2.57335">
        <ele>80.2</ele>
        <time>2015-02-01T12:33:05Z</time>
      </trkpt>
      <trkpt lat="49.22335" lon="2.57324">
        <ele>80</ele>
        <time>2015-02-01T12:33:12Z</time>
      </trkpt>
      <trkpt lat="49.22332" lon="2.57313">
        <ele>79.8</ele>
        <time>2015-02-01T12:33:18Z</time>
      </trkpt>
      <trkpt lat="49.22328" lon="2.57304">
        <ele>79.5</ele>
        <time>2015-02-01T12:33:24Z</time>
      </trkpt>
      <trkpt lat="49.22326" lon="2.57292">
        <ele>79.6</ele>
        <time>2015-02-01T12:33:30Z</time>
      </trkpt>
      <trkpt lat="49.22323" lon="2.57282">
        <ele>79.9</ele>
        <time>2015-02-01T12:33:37Z</time>
      </trkpt>
      <trkpt lat="49.2232" lon="2.5727">
        <ele>79.3</ele>
        <time>2015-02-01T12:33:44Z</time>
      </trkpt>
      <trkpt lat="49.22317" lon="2.57259">
        <ele>79.1</ele>
        <time>2015-02-01T12:33:50Z</time>
      </trkpt>
      <trkpt lat="49.22313" lon="2.57249">
        <ele>79.5</ele>
        <time>2015-02-01T12:33:57Z</time>
      </trkpt>
      <trkpt lat="49.22307" lon="2.57241">
        <ele>79.6</ele>
        <time>2015-02-01T12:34:02Z</time>
      </trkpt>
      <trkpt lat="49.22305" lon="2.57231">
        <ele>79.9</ele>
        <time>2015-02-01T12:34:09Z</time>
      </trkpt>
      <trkpt lat="49.22305" lon="2.5722">
        <ele>80</ele>
        <time>2015-02-01T12:34:14Z</time>
      </trkpt>
      <trkpt lat="49.22303" lon="2.57209">
        <ele>80.1</ele>
        <time>2015-02-01T12:34:18Z</time>
      </trkpt>
      <trkpt lat="49.22299" lon="2.57198">
        <ele>80.5</ele>
        <time>2015-02-01T12:34:23Z</time>
      </trkpt>
      <trkpt lat="49.22295" lon="2.5719">
        <ele>80.8</ele>
        <time>2015-02-01T12:34:30Z</time>
      </trkpt>
      <trkpt lat="49.2229" lon="2.57181">
        <ele>80.9</ele>
        <time>2015-02-01T12:34:36Z</time>
      </trkpt>
      <trkpt lat="49.22287" lon="2.57169">
        <ele>80.7</ele>
        <time>2015-02-01T12:34:41Z</time>
      </trkpt>
      <trkpt lat="49.22285" lon="2.57158">
        <ele>80.9</ele>
        <time>2015-02-01T12:34:48Z</time>
      </trkpt>
      <trkpt lat="49.22282" lon="2.57146">
        <ele>81.1</ele>
        <time>2015-02-01T12:34:55Z</time>
      </trkpt>
      <trkpt lat="49.22278" lon="2.57134">
        <ele>81</ele>
        <time>2015-02-01T12:35:01Z</time>
      </trkpt>
      <trkpt lat="49.22273" lon="2.57124">
        <ele>80.4</ele>
        <time>2015-02-01T12:35:05Z</time>
      </trkpt>
      <trkpt lat="49.22271" lon="2.57114">
        <ele>80.1</ele>
        <time>2015-02-01T12:35:11Z</time>
      </trkpt>
      <trkpt lat="49.22269" lon="2.57103">
        <ele>79.2</ele>
        <time>2015-02-01T12:35:18Z</time>
      </trkpt>
      <trkpt lat="49.22266" lon="2.57091">
        <ele>79.3</ele>
        <time>2015-02-01T12:35:23Z</time>
      </trkpt>
      <trkpt lat="49.22262" lon="2.57082">
        <ele>79.8</ele>
        <time>2015-02-01T12:35:30Z</time>
      </trkpt>
      <trkpt lat="49.22259" lon="2.5707">
        <ele>80.2</ele>
        <time>2015-02-01T12:35:37Z</time>
      </trkpt>
      <trkpt lat="49.22254" lon="2.5706">
        <ele>79.8</ele>
        <time>2015-02-01T12:35:42Z</time>
      </trkpt>
      <trkpt lat="49.22251" lon="2.5705">
        <ele>79.8</ele>
        <time>2015-02-01T12:35:47Z</time>
      </trkpt>
      <trkpt lat="49.22247" lon="2.5704">
        <ele>79.9</ele>
        <time>2015-02-01T12:35:53Z</time>
      </trkpt>
      <trkpt lat="49.22243" lon="2.57028">
        <ele>80</ele>
        <time>2015-02-01T12:35:59Z</time>
      </trkpt>
      <trkpt lat="49.22241" lon="2.57018">
        <ele>80.2</ele>
        <time>2015-02-01T12:36:05Z</time>
      </trkpt>
      <trkpt lat="49.22237" lon="2.57008">
        <ele>80.4</ele>
        <time>2015-02-01T12:36:11Z</time>
      </trkpt>
      <trkpt lat="49.22233" lon="2.56997">
        <ele>80.7</ele>
        <time>2015-02-01T12:36:16Z</time>
      </trkpt>
      <trkpt lat="49.22229" lon="2.56988">
        <ele>80.9</ele>
        <time>2015-02-01T12:36:21Z</time>
      </trkpt>
      <trkpt lat="49.22227" lon="2.56976">
        <ele>81.1</ele>
        <time>2015-02-01T12:36:28Z</time>
      </trkpt>
      <trkpt lat="49.22224" lon="2.56965">
        <ele>80.8</ele>
        <time>2015-02-01T12:36:34Z</time>
      </trkpt>
      <trkpt lat="49.22221" lon="2.56954">
        <ele>80.5</ele>
        <time>2015-02-01T12:36:39Z</time>
      </trkpt>
      <trkpt lat="49.22219" lon="2.56944">
        <ele>80</ele>
        <time>2015-02-01T12:36:45Z</time>
      </trkpt>
      <trkpt lat="49.22216" lon="2.56935">
        <ele>79.1</ele>
        <time>2015-02-01T12:36:52Z</time>
      </trkpt>
      <trkpt lat="49.22212" lon="2.56925">
        <ele>78.4</ele>
        <time>2015-02-01T12:36:57Z</time>
      </trkpt>
      <trkpt lat="49.22207" lon="2.56917">
        <ele>77.8</ele>
        <time>2015-02-01T12:37:02Z</time>
      </trkpt>
      <trkpt lat="49.22202" lon="2.56907">
        <ele>77.2</ele>
        <time>2015-02-01T12:37:07Z</time>
      </trkpt>
      <trkpt lat="49.22198" lon="2.56895">
        <ele>76.8</ele>
        <time>2015-02-01T12:37:12Z</time>
      </trkpt>
      <trkpt lat="49.22195" lon="2.56883">
        <ele>76.9</ele>
        <time>2015-02-01T12:37:19Z</time>
      </trkpt>
      <trkpt lat="49.22192" lon="2.56872">
        <ele>76.4</ele>
        <time>2015-02-01T12:37:26Z</time>
      </trkpt>
      <trkpt lat="49.22191" lon="2.56861">
        <ele>76.5</ele>
        <time>2015-02-01T12:37:32Z</time>
      </trkpt>
      <trkpt lat="49.22187" lon="2.56851">
        <ele>76</ele>
        <time>2015-02-01T12:37:38Z</time>
      </trkpt>
      <trkpt lat="49.22185" lon="2.56839">
        <ele>75.4</ele>
        <time>2015-02-01T12:37:45Z</time>
      </trkpt>
      <trkpt lat="49.22181" lon="2.56826">
        <ele>75.3</ele>
        <time>2015-02-01T12:37:49Z</time>
      </trkpt>
      <trkpt lat="49.22178" lon="2.56815">
        <ele>75.1</ele>
        <time>2015-02-01T12:37:54Z</time>
      </trkpt>
      <trkpt lat="49.22176" lon="2.56802">
        <ele>74.7</ele>
        <time>2015-02-01T12:38:00Z</time>
      </trkpt>
      <trkpt lat="49.22172" lon="2.56792">
        <ele>74.3</ele>
        <time>2015-02-01T12:38:07Z</time>
      </trkpt>
      <trkpt lat="49.22168" lon="2.56781">
        <ele>74.1</ele>
        <time>2015-02-01T12:38:13Z</time>
      </trkpt>
      <trkpt lat="49.22165" lon="2.56769">
        <ele>73.8</ele>
        <time>2015-02-01T12:38:17Z</time>
      </trkpt>
      <trkpt lat="49.22161" lon="2.56758">
        <ele>73.4</ele>
        <time>2015-02-01T12:38:22Z</time>
      </trkpt>
      <trkpt lat="49.22158" lon="2.56748">
        <ele>72.7</ele>
        <time>2015-02-01T12:38:29Z</time>
      </trkpt>
      <trkpt lat="49.22157" lon="2.56738">
        <ele>71.7</ele>
        <time>2015-02-01T12:38:36Z</time>
      </trkpt>
      <trkpt lat="49.22154" lon="2.56728">
        <ele>70.9</ele>
        <time>2015-02-01T12:38:42Z</time>
      </trkpt>
      <trkpt lat="49.2215" lon="2.56717">
        <ele>70.4</ele>
        <time>2015-02-01T12:38:47Z</time>
      </trkpt>
      <trkpt lat="49.22147" lon="2.56707">
        <ele>69.7</ele>
        <time>2015-02-01T12:38:54Z</time>
      </trkpt>
      <trkpt lat="49.22144" lon="2.56696">
        <ele>68.9</ele>
        <time>2015-02-01T12:39:01Z</time>
      </trkpt>
      <trkpt lat="49.22141" lon="2.56685">
        <ele>68.4</ele>
        <time>2015-02-01T12:39:07Z</time>
      </trkpt>
      <trkpt lat="49.22138" lon="2.56675">
        <ele>68.3</ele>
        <time>2015-02-01T12:39:13Z</time>
      </trkpt>
      <trkpt lat="49.22134" lon="2.56665">
        <ele>67.9</ele>
        <time>2015-02-01T12:39:18Z</time>
      </trkpt>
      <trkpt lat="49.22131" lon="2.56654">
        <ele>67.3</ele>
        <time>2015-02-01T12:39:24Z</time>
      </trkpt>
      <trkpt lat="49.22128" lon="2.56643">
        <ele>66.6</ele>
        <time>2015-02-01T12:39:30Z</time>
      </trkpt>
      <trkpt lat="49.22124" lon="2.56632">
        <ele>65.7</ele>
        <time>2015-02-01T12:39:35Z</time>
      </trkpt>
      <trkpt lat="49.2212" lon="2.56621">
        <ele>65.2</ele>
        <time>2015-02-01T12:39:41Z</time>
      </trkpt>
      <trkpt lat="49.22116" lon="2.56611">
        <ele>64.9</ele>
        <time>2015-02-01T12:39:45Z</time>
      </trkpt>
      <trkpt lat="49.22114" lon="2.56599">
        <ele>64.5</ele>
        <time>2015-02-01T12:39:50Z</time>
      </trkpt>
      <trkpt lat="49.2211" lon="2.56589">
        <ele>63.5</ele>
        <time>2015-02-01T12:39:57Z</time>
      </trkpt>
      <trkpt lat="49.22108" lon="2.56579">
        <ele>62.5</ele>
        <time>2015-02-01T12:40:03Z</time>
      </trkpt>
      <trkpt lat="49.22104" lon="2.56568">
        <ele>61.2</ele>
        <time>2015-02-01T12:40:10Z</time>
      </trkpt>
      <trkpt lat="49.22101" lon="2.56558">
        <ele>59.3</ele>
        <time>2015-02-01T12:40:17Z</time>
      </trkpt>
      <trkpt lat="49.22097" lon="2.56546">
        <ele>58.1</ele>
        <time>2015-02-01T12:40:22Z</time>
      </trkpt>
      <trkpt lat="49.22093" lon="2.56537">
        <ele>57</ele>
        <time>2015-02-01T12:40:29Z</time>
      </trkpt>
      <trkpt lat="49.22091" lon="2.56526">
        <ele>56.8</ele>
        <time>2015-02-01T12:40:34Z</time>
      </trkpt>
      <trkpt lat="49.22087" lon="2.56516">
        <ele>56.3</ele>
        <time>2015-02-01T12:40:39Z</time>
      </trkpt>
      <trkpt lat="49.22084" lon="2.56505">
        <ele>56.3</ele>
        <time>2015-02-01T12:40:45Z</time>
      </trkpt>
      <trkpt lat="49.22081" lon="2.56493">
        <ele>56.4</ele>
        <time>2015-02-01T12:40:51Z</time>
      </trkpt>
      <trkpt lat="49.22078" lon="2.56481">
        <ele>56.4</ele>
        <time>2015-02-01T12:40:57Z</time>
      </trkpt>
      <trkpt lat="49.22075" lon="2.5647">
        <ele>55.8</ele>
        <time>2015-02-01T12:41:04Z</time>
      </trkpt>
      <trkpt lat="49.22072" lon="2.56459">
        <ele>55.4</ele>
        <time>2015-02-01T12:41:10Z</time>
      </trkpt>
      <trkpt lat="49.2207" lon="2.56447">
        <ele>54.9</ele>
        <time>2015-02-01T12:41:16Z</time>
      </trkpt>
      <trkpt lat="49.22066" lon="2.56438">
        <ele>55.2</ele>
        <time>2015-02-01T12:41:22Z</time>
      </trkpt>
      <trkpt lat="49.22063" lon="2.56427">
        <ele>55.3</ele>
        <time>2015-02-01T12:41:27Z</time>
      </trkpt>
      <trkpt lat="49.22059" lon="2.56416">
        <ele>55.4</ele>
        <time>2015-02-01T12:41:33Z</time>
      </trkpt>
      <trkpt lat="49.22057" lon="2.56404">
        <ele>55.2</ele>
        <time>2015-02-01T12:41:40Z</time>
      </trkpt>
      <trkpt lat="49.22054" lon="2.56394">
        <ele>55</ele>
        <time>2015-02-01T12:41:45Z</time>
      </trkpt>
      <trkpt lat="49.2205" lon="2.56383">
        <ele>54.5</ele>
        <time>2015-02-01T12:41:52Z</time>
      </trkpt>
      <trkpt lat="49.22046" lon="2.56371">
        <ele>54.1</ele>
        <time>2015-02-01T12:41:58Z</time>
      </trkpt>
      <trkpt lat="49.22041" lon="2.56363">
        <ele>54</ele>
        <time>2015-02-01T12:42:03Z</time>
      </trkpt>
      <trkpt lat="49.22037" lon="2.56352">
        <ele>53.7</ele>
        <time>2015-02-01T12:42:09Z</time>
      </trkpt>
      <trkpt lat="49.22034" lon="2.56342">
        <ele>53.5</ele>
        <time>2015-02-01T12:42:15Z</time>
      </trkpt>
      <trkpt lat="49.22031" lon="2.56331">
        <ele>53.7</ele>
        <time>2015-02-01T12:42:20Z</time>
      </trkpt>
      <trkpt lat="49.22028" lon="2.5632">
        <ele>53.4</ele>
        <time>2015-02-01T12:42:25Z</time>
      </trkpt>
      <trkpt lat="49.22023" lon="2.5631">
        <ele>53.2</ele>
        <time>2015-02-01T12:42:29Z</time>
      </trkpt>
      <trkpt lat="49.22021" lon="2.56299">
        <ele>53</ele>
        <time>2015-02-01T12:42:35Z</time>
      </trkpt>
      <trkpt lat="49.22017" lon="2.56291">
        <ele>53.2</ele>
        <time>2015-02-01T12:42:42Z</time>
      </trkpt>
      <trkpt lat="49.22015" lon="2.5628">
        <ele>53.9</ele>
        <time>2015-02-01T12:42:49Z</time>
      </trkpt>
      <trkpt lat="49.2201" lon="2.56271">
        <ele>54.3</ele>
        <time>2015-02-01T12:42:54Z</time>
      </trkpt>
      <trkpt lat="49.22008" lon="2.56258">
        <ele>55</ele>
        <time>2015-02-01T12:42:59Z</time>
      </trkpt>
      <trkpt lat="49.22005" lon="2.56246">
        <ele>55.3</ele>
        <time>2015-02-01T12:43:05Z</time>
      </trkpt>
      <trkpt lat="49.22002" lon="2.56235">
        <ele>55.2</ele>
        <time>2015-02-01T12:43:11Z</time>
      </trkpt>
      <trkpt lat="49.22" lon="2.56224">
        <ele>55.2</ele>
        <time>2015-02-01T12:43:17Z</time>
      </trkpt>
      <trkpt lat="49.21996" lon="2.56214">
        <ele>55.9</ele>
        <time>2015-02-01T12:43:24Z</time>
      </trkpt>
      <trkpt lat="49.21991" lon="2.56203">
        <ele>55.9</ele>
        <time>2015-02-01T12:43:29Z</time>
      </trkpt>
      <trkpt lat="49.21987" lon="2.56192">
        <ele>56.2</ele>
        <time>2015-02-01T12:43:33Z</time>
      </trkpt>
      <trkpt lat="49.21983" lon="2.56181">
        <ele>56.5</ele>
        <time>2015-02-01T12:43:39Z</time>
      </trkpt>
      <trkpt lat="49.2198" lon="2.56171">
        <ele>56.7</ele>
        <time>2015-02-01T12:43:45Z</time>
      </trkpt>
      <trkpt lat="49.21977" lon="2.56159">
        <ele>57.7</ele>
        <time>2015-02-01T12:43:49Z</time>
      </trkpt>
      <trkpt lat="49.21972" lon="2.56147">
        <ele>58.7</ele>
        <time>2015-02-01T12:43:54Z</time>
      </trkpt>
      <trkpt lat="49.21969" lon="2.56136">
        <ele>59.1</ele>
        <time>2015-02-01T12:43:59Z</time>
      </trkpt>
      <trkpt lat="49.21965" lon="2.56126">
        <ele>59.5</ele>
        <time>2015-02-01T12:44:05Z</time>
      </trkpt>
      <trkpt lat="49.21963" lon="2.56113">
        <ele>60.2</ele>
        <time>2015-02-01T12:44:11Z</time>
      </trkpt>
      <trkpt lat="49.2196" lon="2.56101">
        <ele>60.9</ele>
        <time>2015-02-01T12:44:17Z</time>
      </trkpt>
      <trkpt lat="49.21958" lon="2.5609">
        <ele>61</ele>
        <time>2015-02-01T12:44:23Z</time>
      </trkpt>
      <trkpt lat="49.21953" lon="2.56081">
        <ele>60.8</ele>
        <time>2015-02-01T12:44:30Z</time>
      </trkpt>
      <trkpt lat="49.21948" lon="2.5607">
        <ele>61</ele>
        <time>2015-02-01T12:44:35Z</time>
      </trkpt>
      <trkpt lat="49.21944" lon="2.5606">
        <ele>61.4</ele>
        <time>2015-02-01T12:44:40Z</time>
      </trkpt>
      <trkpt lat="49.21939" lon="2.5605">
        <ele>61.8</ele>
        <time>2015-02-01T12:44:47Z</time>
      </trkpt>
      <trkpt lat="49.21935" lon="2.56038">
        <ele>61.9</ele>
        <time>2015-02-01T12:44:52Z</time>
      </trkpt>
      <trkpt lat="49.21933" lon="2.56027">
        <ele>62</ele>
        <time>2015-02-01T12:44:58Z</time>
      </trkpt>
      <trkpt lat="49.21929" lon="2.56018">
        <ele>62.5</ele>
        <time>2015-02-01T12:45:05Z</time>
      </trkpt>
      <trkpt lat="49.21926" lon="2.56006">
        <ele>63.2</ele>
        <time>2015-02-01T12:45:11Z</time>
      </trkpt>
      <trkpt lat="49.21922" lon="2.55993">
        <ele>63.1</ele>
        <time>2015-02-01T12:45:17Z</time>
      </trkpt>
      <trkpt lat="49.21918" lon="2.55984">
        <ele>63</ele>
        <time>2015-02-01T12:45:22Z</time>
      </trkpt>
      <trkpt lat="49.21916" lon="2.55973">
        <ele>63.3</ele>
        <time>2015-02-01T12:45:28Z</time>
      </trkpt>
      <trkpt lat="49.21913" lon="2.55963">
        <ele>63.6</ele>
        <time>2015-02-01T12:45:33Z</time>
      </trkpt>
      <trkpt lat="49.21911" lon="2.55951">
        <ele>63.9</ele>
        <time>2015-02-01T12:45:38Z</time>
      </trkpt>
      <trkpt lat="49.21908" lon="2.55939">
        <ele>64.3</ele>
        <time>2015-02-01T12:45:44Z</time>
      </trkpt>
      <trkpt lat="49.21905" lon="2.55929">
        <ele>65</ele>
        <time>2015-02-01T12:45:51Z</time>
      </trkpt>
      <trkpt lat="49.21906" lon="2.55917">
        <ele>65.3</ele>
        <time>2015-02-01T12:45:58Z</time>
      </trkpt>
      <trkpt lat="49.21906" lon="2.55911">
        <ele>65.7</ele>
        <time>2015-02-01T12:46:05Z</time>
      </trkpt>
      <trkpt lat="49.21906" lon="2.55911">
        <ele>65.9</ele>
        <time>2015-02-01T12:46:12Z</time>
      </trkpt>
      <trkpt lat="49.21904" lon="2.559">
        <ele>66.4</ele>
        <time>2015-02-01T12:46:18Z</time>
      </trkpt>
      <trkpt lat="49.21908" lon="2.55899">
        <ele>65.9</ele>
        <time>2015-02-01T12:46:25Z</time>
      </trkpt>
      <trkpt lat="49.21907" lon="2.55905">
        <ele>65.6</ele>
        <time>2015-02-01T12:46:44Z</time>
      </trkpt>
      <trkpt lat="49.21907" lon="2.55904">
        <ele>65.6</ele>
        <time>2015-02-01T12:46:51Z</time>
      </trkpt>
      <trkpt lat="49.21913" lon="2.55898">
        <ele>64.9</ele>
        <time>2015-02-01T12:48:15Z</time>
      </trkpt>
      <trkpt lat="49.21915" lon="2.55889">
        <ele>64.9</ele>
        <time>2015-02-01T12:48:22Z</time>
      </trkpt>
      <trkpt lat="49.2192" lon="2.55882">
        <ele>65</ele>
        <time>2015-02-01T12:48:29Z</time>
      </trkpt>
      <trkpt lat="49.21927" lon="2.55873">
        <ele>65</ele>
        <time>2015-02-01T12:48:35Z</time>
      </trkpt>
      <trkpt lat="49.2193" lon="2.55862">
        <ele>64.9</ele>
        <time>2015-02-01T12:48:41Z</time>
      </trkpt>
      <trkpt lat="49.21937" lon="2.55855">
        <ele>64.7</ele>
        <time>2015-02-01T12:48:48Z</time>
      </trkpt>
      <trkpt lat="49.21943" lon="2.55848">
        <ele>64.7</ele>
        <time>2015-02-01T12:48:54Z</time>
      </trkpt>
      <trkpt lat="49.21949" lon="2.5584">
        <ele>64.5</ele>
        <time>2015-02-01T12:48:58Z</time>
      </trkpt>
      <trkpt lat="49.21954" lon="2.55831">
        <ele>64.3</ele>
        <time>2015-02-01T12:49:05Z</time>
      </trkpt>
      <trkpt lat="49.2196" lon="2.55822">
        <ele>64.1</ele>
        <time>2015-02-01T12:49:11Z</time>
      </trkpt>
      <trkpt lat="49.21962" lon="2.55811">
        <ele>64.3</ele>
        <time>2015-02-01T12:49:17Z</time>
      </trkpt>
      <trkpt lat="49.21967" lon="2.558">
        <ele>64.3</ele>
        <time>2015-02-01T12:49:23Z</time>
      </trkpt>
      <trkpt lat="49.21972" lon="2.55791">
        <ele>64.1</ele>
        <time>2015-02-01T12:49:28Z</time>
      </trkpt>
      <trkpt lat="49.21978" lon="2.55781">
        <ele>64</ele>
        <time>2015-02-01T12:49:35Z</time>
      </trkpt>
      <trkpt lat="49.21982" lon="2.55772">
        <ele>64</ele>
        <time>2015-02-01T12:49:40Z</time>
      </trkpt>
      <trkpt lat="49.21985" lon="2.55769">
        <ele>64.2</ele>
        <time>2015-02-01T12:49:47Z</time>
      </trkpt>
      <trkpt lat="49.21988" lon="2.55759">
        <ele>64.7</ele>
        <time>2015-02-01T12:49:53Z</time>
      </trkpt>
      <trkpt lat="49.2199" lon="2.5575">
        <ele>65</ele>
        <time>2015-02-01T12:50:00Z</time>
      </trkpt>
      <trkpt lat="49.21996" lon="2.55743">
        <ele>65.1</ele>
        <time>2015-02-01T12:50:04Z</time>
      </trkpt>
      <trkpt lat="49.22" lon="2.55734">
        <ele>65.7</ele>
        <time>2015-02-01T12:50:11Z</time>
      </trkpt>
      <trkpt lat="49.22006" lon="2.55726">
        <ele>65.6</ele>
        <time>2015-02-01T12:50:17Z</time>
      </trkpt>
      <trkpt lat="49.2201" lon="2.55715">
        <ele>65.5</ele>
        <time>2015-02-01T12:50:24Z</time>
      </trkpt>
      <trkpt lat="49.22014" lon="2.55705">
        <ele>65.3</ele>
        <time>2015-02-01T12:50:29Z</time>
      </trkpt>
      <trkpt lat="49.2202" lon="2.55695">
        <ele>65.2</ele>
        <time>2015-02-01T12:50:33Z</time>
      </trkpt>
      <trkpt lat="49.22027" lon="2.55688">
        <ele>65.2</ele>
        <time>2015-02-01T12:50:37Z</time>
      </trkpt>
      <trkpt lat="49.22029" lon="2.55682">
        <ele>65.5</ele>
        <time>2015-02-01T12:50:44Z</time>
      </trkpt>
      <trkpt lat="49.22033" lon="2.55672">
        <ele>65.5</ele>
        <time>2015-02-01T12:50:50Z</time>
      </trkpt>
      <trkpt lat="49.22035" lon="2.55664">
        <ele>65.1</ele>
        <time>2015-02-01T12:50:57Z</time>
      </trkpt>
      <trkpt lat="49.22041" lon="2.55656">
        <ele>64.8</ele>
        <time>2015-02-01T12:51:03Z</time>
      </trkpt>
      <trkpt lat="49.22045" lon="2.55646">
        <ele>64.4</ele>
        <time>2015-02-01T12:51:06Z</time>
      </trkpt>
      <trkpt lat="49.2205" lon="2.55638">
        <ele>64.1</ele>
        <time>2015-02-01T12:51:12Z</time>
      </trkpt>
      <trkpt lat="49.22055" lon="2.55628">
        <ele>64.3</ele>
        <time>2015-02-01T12:51:18Z</time>
      </trkpt>
      <trkpt lat="49.2206" lon="2.55618">
        <ele>64.3</ele>
        <time>2015-02-01T12:51:23Z</time>
      </trkpt>
      <trkpt lat="49.22066" lon="2.5561">
        <ele>64.7</ele>
        <time>2015-02-01T12:51:30Z</time>
      </trkpt>
      <trkpt lat="49.2207" lon="2.55602">
        <ele>64.6</ele>
        <time>2015-02-01T12:51:37Z</time>
      </trkpt>
      <trkpt lat="49.22076" lon="2.55594">
        <ele>64.6</ele>
        <time>2015-02-01T12:51:42Z</time>
      </trkpt>
      <trkpt lat="49.22083" lon="2.55587">
        <ele>65.3</ele>
        <time>2015-02-01T12:51:49Z</time>
      </trkpt>
      <trkpt lat="49.22088" lon="2.55576">
        <ele>66</ele>
        <time>2015-02-01T12:51:54Z</time>
      </trkpt>
      <trkpt lat="49.22093" lon="2.55567">
        <ele>66</ele>
        <time>2015-02-01T12:51:58Z</time>
      </trkpt>
      <trkpt lat="49.22098" lon="2.55559">
        <ele>65.7</ele>
        <time>2015-02-01T12:52:02Z</time>
      </trkpt>
      <trkpt lat="49.22103" lon="2.55553">
        <ele>64.7</ele>
        <time>2015-02-01T12:52:09Z</time>
      </trkpt>
      <trkpt lat="49.22108" lon="2.55544">
        <ele>64.4</ele>
        <time>2015-02-01T12:52:15Z</time>
      </trkpt>
      <trkpt lat="49.22114" lon="2.55534">
        <ele>64.3</ele>
        <time>2015-02-01T12:52:21Z</time>
      </trkpt>
      <trkpt lat="49.22118" lon="2.55524">
        <ele>65</ele>
        <time>2015-02-01T12:52:27Z</time>
      </trkpt>
      <trkpt lat="49.22124" lon="2.55517">
        <ele>65.3</ele>
        <time>2015-02-01T12:52:32Z</time>
      </trkpt>
      <trkpt lat="49.2213" lon="2.55509">
        <ele>65.5</ele>
        <time>2015-02-01T12:52:38Z</time>
      </trkpt>
      <trkpt lat="49.22137" lon="2.55501">
        <ele>65</ele>
        <time>2015-02-01T12:52:45Z</time>
      </trkpt>
      <trkpt lat="49.22142" lon="2.55493">
        <ele>64.7</ele>
        <time>2015-02-01T12:52:51Z</time>
      </trkpt>
      <trkpt lat="49.22149" lon="2.55488">
        <ele>64.7</ele>
        <time>2015-02-01T12:52:57Z</time>
      </trkpt>
      <trkpt lat="49.22155" lon="2.55479">
        <ele>64.9</ele>
        <time>2015-02-01T12:53:03Z</time>
      </trkpt>
      <trkpt lat="49.22162" lon="2.55471">
        <ele>65.5</ele>
        <time>2015-02-01T12:53:08Z</time>
      </trkpt>
      <trkpt lat="49.22167" lon="2.55463">
        <ele>66.5</ele>
        <time>2015-02-01T12:53:15Z</time>
      </trkpt>
      <trkpt lat="49.22173" lon="2.55454">
        <ele>67</ele>
        <time>2015-02-01T12:53:19Z</time>
      </trkpt>
      <trkpt lat="49.22178" lon="2.55447">
        <ele>67</ele>
        <time>2015-02-01T12:53:22Z</time>
      </trkpt>
      <trkpt lat="49.22186" lon="2.5544">
        <ele>66.6</ele>
        <time>2015-02-01T12:53:27Z</time>
      </trkpt>
      <trkpt lat="49.22192" lon="2.55435">
        <ele>66.8</ele>
        <time>2015-02-01T12:53:34Z</time>
      </trkpt>
      <trkpt lat="49.222" lon="2.55429">
        <ele>66.9</ele>
        <time>2015-02-01T12:53:40Z</time>
      </trkpt>
      <trkpt lat="49.22206" lon="2.55423">
        <ele>67.1</ele>
        <time>2015-02-01T12:53:45Z</time>
      </trkpt>
      <trkpt lat="49.22216" lon="2.55418">
        <ele>67.3</ele>
        <time>2015-02-01T12:53:50Z</time>
      </trkpt>
      <trkpt lat="49.22223" lon="2.55417">
        <ele>67.5</ele>
        <time>2015-02-01T12:53:57Z</time>
      </trkpt>
      <trkpt lat="49.2223" lon="2.55417">
        <ele>69</ele>
        <time>2015-02-01T12:54:04Z</time>
      </trkpt>
      <trkpt lat="49.22237" lon="2.55417">
        <ele>69.4</ele>
        <time>2015-02-01T12:54:11Z</time>
      </trkpt>
      <trkpt lat="49.22245" lon="2.55418">
        <ele>69.7</ele>
        <time>2015-02-01T12:54:16Z</time>
      </trkpt>
      <trkpt lat="49.22254" lon="2.55417">
        <ele>71.5</ele>
        <time>2015-02-01T12:54:22Z</time>
      </trkpt>
      <trkpt lat="49.22261" lon="2.55415">
        <ele>72.7</ele>
        <time>2015-02-01T12:54:28Z</time>
      </trkpt>
      <trkpt lat="49.22269" lon="2.55414">
        <ele>74</ele>
        <time>2015-02-01T12:54:33Z</time>
      </trkpt>
      <trkpt lat="49.22276" lon="2.55415">
        <ele>76.5</ele>
        <time>2015-02-01T12:54:38Z</time>
      </trkpt>
      <trkpt lat="49.22283" lon="2.55419">
        <ele>79.6</ele>
        <time>2015-02-01T12:54:45Z</time>
      </trkpt>
      <trkpt lat="49.22291" lon="2.55418">
        <ele>81.2</ele>
        <time>2015-02-01T12:54:51Z</time>
      </trkpt>
      <trkpt lat="49.223" lon="2.55419">
        <ele>82</ele>
        <time>2015-02-01T12:54:54Z</time>
      </trkpt>
      <trkpt lat="49.22307" lon="2.55421">
        <ele>81.5</ele>
        <time>2015-02-01T12:54:58Z</time>
      </trkpt>
      <trkpt lat="49.22315" lon="2.55422">
        <ele>80.9</ele>
        <time>2015-02-01T12:55:05Z</time>
      </trkpt>
      <trkpt lat="49.22322" lon="2.55424">
        <ele>80.8</ele>
        <time>2015-02-01T12:55:12Z</time>
      </trkpt>
      <trkpt lat="49.2233" lon="2.55424">
        <ele>80.1</ele>
        <time>2015-02-01T12:55:17Z</time>
      </trkpt>
      <trkpt lat="49.22337" lon="2.55422">
        <ele>79.3</ele>
        <time>2015-02-01T12:55:24Z</time>
      </trkpt>
      <trkpt lat="49.22345" lon="2.55416">
        <ele>78.9</ele>
        <time>2015-02-01T12:55:28Z</time>
      </trkpt>
      <trkpt lat="49.22352" lon="2.55413">
        <ele>78.4</ele>
        <time>2015-02-01T12:55:32Z</time>
      </trkpt>
      <trkpt lat="49.22359" lon="2.55414">
        <ele>77</ele>
        <time>2015-02-01T12:55:37Z</time>
      </trkpt>
      <trkpt lat="49.22367" lon="2.55414">
        <ele>75</ele>
        <time>2015-02-01T12:55:44Z</time>
      </trkpt>
      <trkpt lat="49.22375" lon="2.55414">
        <ele>74.1</ele>
        <time>2015-02-01T12:55:51Z</time>
      </trkpt>
      <trkpt lat="49.22383" lon="2.55411">
        <ele>72.7</ele>
        <time>2015-02-01T12:55:57Z</time>
      </trkpt>
      <trkpt lat="49.2239" lon="2.55407">
        <ele>71.8</ele>
        <time>2015-02-01T12:56:01Z</time>
      </trkpt>
      <trkpt lat="49.22399" lon="2.55403">
        <ele>71</ele>
        <time>2015-02-01T12:56:07Z</time>
      </trkpt>
      <trkpt lat="49.22407" lon="2.55401">
        <ele>71.5</ele>
        <time>2015-02-01T12:56:13Z</time>
      </trkpt>
      <trkpt lat="49.22415" lon="2.55402">
        <ele>71.5</ele>
        <time>2015-02-01T12:56:18Z</time>
      </trkpt>
      <trkpt lat="49.22421" lon="2.55401">
        <ele>70.8</ele>
        <time>2015-02-01T12:56:25Z</time>
      </trkpt>
      <trkpt lat="49.22429" lon="2.55398">
        <ele>70.6</ele>
        <time>2015-02-01T12:56:30Z</time>
      </trkpt>
      <trkpt lat="49.22438" lon="2.55396">
        <ele>70.5</ele>
        <time>2015-02-01T12:56:34Z</time>
      </trkpt>
      <trkpt lat="49.22444" lon="2.55393">
        <ele>70.2</ele>
        <time>2015-02-01T12:56:41Z</time>
      </trkpt>
      <trkpt lat="49.22451" lon="2.55391">
        <ele>69.7</ele>
        <time>2015-02-01T12:56:48Z</time>
      </trkpt>
      <trkpt lat="49.22459" lon="2.55388">
        <ele>69.6</ele>
        <time>2015-02-01T12:56:54Z</time>
      </trkpt>
      <trkpt lat="49.22466" lon="2.55383">
        <ele>68.8</ele>
        <time>2015-02-01T12:57:01Z</time>
      </trkpt>
      <trkpt lat="49.22474" lon="2.55383">
        <ele>68.5</ele>
        <time>2015-02-01T12:57:07Z</time>
      </trkpt>
      <trkpt lat="49.22482" lon="2.55381">
        <ele>68.5</ele>
        <time>2015-02-01T12:57:13Z</time>
      </trkpt>
      <trkpt lat="49.2249" lon="2.5538">
        <ele>67.7</ele>
        <time>2015-02-01T12:57:18Z</time>
      </trkpt>
      <trkpt lat="49.22497" lon="2.55379">
        <ele>67.3</ele>
        <time>2015-02-01T12:57:22Z</time>
      </trkpt>
      <trkpt lat="49.22506" lon="2.55378">
        <ele>67.5</ele>
        <time>2015-02-01T12:57:28Z</time>
      </trkpt>
      <trkpt lat="49.22513" lon="2.5538">
        <ele>67.5</ele>
        <time>2015-02-01T12:57:33Z</time>
      </trkpt>
      <trkpt lat="49.22521" lon="2.55383">
        <ele>67.7</ele>
        <time>2015-02-01T12:57:39Z</time>
      </trkpt>
      <trkpt lat="49.22528" lon="2.55386">
        <ele>68.6</ele>
        <time>2015-02-01T12:57:45Z</time>
      </trkpt>
      <trkpt lat="49.22536" lon="2.55392">
        <ele>69.5</ele>
        <time>2015-02-01T12:57:52Z</time>
      </trkpt>
      <trkpt lat="49.22543" lon="2.55395">
        <ele>69.4</ele>
        <time>2015-02-01T12:57:57Z</time>
      </trkpt>
      <trkpt lat="49.22551" lon="2.55399">
        <ele>69.2</ele>
        <time>2015-02-01T12:58:02Z</time>
      </trkpt>
      <trkpt lat="49.22559" lon="2.55402">
        <ele>69.9</ele>
        <time>2015-02-01T12:58:08Z</time>
      </trkpt>
      <trkpt lat="49.22567" lon="2.55405">
        <ele>71.3</ele>
        <time>2015-02-01T12:58:15Z</time>
      </trkpt>
      <trkpt lat="49.22576" lon="2.55408">
        <ele>71.7</ele>
        <time>2015-02-01T12:58:21Z</time>
      </trkpt>
      <trkpt lat="49.22583" lon="2.5541">
        <ele>70.9</ele>
        <time>2015-02-01T12:58:28Z</time>
      </trkpt>
      <trkpt lat="49.22586" lon="2.5541">
        <ele>70.7</ele>
        <time>2015-02-01T12:58:35Z</time>
      </trkpt>
      <trkpt lat="49.22584" lon="2.55414">
        <ele>71.7</ele>
        <time>2015-02-01T12:59:02Z</time>
      </trkpt>
      <trkpt lat="49.22592" lon="2.55409">
        <ele>72.2</ele>
        <time>2015-02-01T13:02:55Z</time>
      </trkpt>
      <trkpt lat="49.22599" lon="2.55404">
        <ele>71.7</ele>
        <time>2015-02-01T13:03:14Z</time>
      </trkpt>
      <trkpt lat="49.22607" lon="2.55399">
        <ele>71.3</ele>
        <time>2015-02-01T13:03:21Z</time>
      </trkpt>
      <trkpt lat="49.22614" lon="2.55392">
        <ele>71.2</ele>
        <time>2015-02-01T13:03:28Z</time>
      </trkpt>
      <trkpt lat="49.22621" lon="2.55386">
        <ele>71.8</ele>
        <time>2015-02-01T13:03:35Z</time>
      </trkpt>
      <trkpt lat="49.22627" lon="2.55382">
        <ele>72.4</ele>
        <time>2015-02-01T13:03:41Z</time>
      </trkpt>
      <trkpt lat="49.22633" lon="2.55375">
        <ele>73.2</ele>
        <time>2015-02-01T13:03:47Z</time>
      </trkpt>
      <trkpt lat="49.22639" lon="2.55368">
        <ele>73.7</ele>
        <time>2015-02-01T13:03:54Z</time>
      </trkpt>
      <trkpt lat="49.22647" lon="2.55361">
        <ele>73.9</ele>
        <time>2015-02-01T13:03:59Z</time>
      </trkpt>
      <trkpt lat="49.22653" lon="2.55354">
        <ele>74.4</ele>
        <time>2015-02-01T13:04:06Z</time>
      </trkpt>
      <trkpt lat="49.22661" lon="2.55347">
        <ele>75.2</ele>
        <time>2015-02-01T13:04:13Z</time>
      </trkpt>
      <trkpt lat="49.22667" lon="2.5534">
        <ele>74.9</ele>
        <time>2015-02-01T13:04:20Z</time>
      </trkpt>
      <trkpt lat="49.22674" lon="2.55333">
        <ele>74.7</ele>
        <time>2015-02-01T13:04:27Z</time>
      </trkpt>
      <trkpt lat="49.22681" lon="2.55327">
        <ele>74.5</ele>
        <time>2015-02-01T13:04:34Z</time>
      </trkpt>
      <trkpt lat="49.22688" lon="2.55321">
        <ele>74.6</ele>
        <time>2015-02-01T13:04:40Z</time>
      </trkpt>
      <trkpt lat="49.22695" lon="2.55317">
        <ele>75</ele>
        <time>2015-02-01T13:04:46Z</time>
      </trkpt>
      <trkpt lat="49.22703" lon="2.5531">
        <ele>75.3</ele>
        <time>2015-02-01T13:04:52Z</time>
      </trkpt>
      <trkpt lat="49.2271" lon="2.55306">
        <ele>76.1</ele>
        <time>2015-02-01T13:04:57Z</time>
      </trkpt>
      <trkpt lat="49.22716" lon="2.55298">
        <ele>76.1</ele>
        <time>2015-02-01T13:05:04Z</time>
      </trkpt>
      <trkpt lat="49.22722" lon="2.55291">
        <ele>76.6</ele>
        <time>2015-02-01T13:05:09Z</time>
      </trkpt>
      <trkpt lat="49.22728" lon="2.55284">
        <ele>77.6</ele>
        <time>2015-02-01T13:05:16Z</time>
      </trkpt>
      <trkpt lat="49.22735" lon="2.55279">
        <ele>78.3</ele>
        <time>2015-02-01T13:05:21Z</time>
      </trkpt>
      <trkpt lat="49.22741" lon="2.55272">
        <ele>78.7</ele>
        <time>2015-02-01T13:05:25Z</time>
      </trkpt>
      <trkpt lat="49.22746" lon="2.55265">
        <ele>79.7</ele>
        <time>2015-02-01T13:05:31Z</time>
      </trkpt>
      <trkpt lat="49.22753" lon="2.55259">
        <ele>80.2</ele>
        <time>2015-02-01T13:05:37Z</time>
      </trkpt>
      <trkpt lat="49.22761" lon="2.55257">
        <ele>80</ele>
        <time>2015-02-01T13:05:43Z</time>
      </trkpt>
      <trkpt lat="49.22767" lon="2.55252">
        <ele>80.4</ele>
        <time>2015-02-01T13:05:48Z</time>
      </trkpt>
      <trkpt lat="49.22775" lon="2.55248">
        <ele>80</ele>
        <time>2015-02-01T13:05:55Z</time>
      </trkpt>
      <trkpt lat="49.22781" lon="2.55243">
        <ele>80.4</ele>
        <time>2015-02-01T13:06:02Z</time>
      </trkpt>
      <trkpt lat="49.22789" lon="2.55239">
        <ele>80.7</ele>
        <time>2015-02-01T13:06:08Z</time>
      </trkpt>
      <trkpt lat="49.22795" lon="2.55233">
        <ele>81.2</ele>
        <time>2015-02-01T13:06:13Z</time>
      </trkpt>
      <trkpt lat="49.22802" lon="2.5523">
        <ele>81.7</ele>
        <time>2015-02-01T13:06:18Z</time>
      </trkpt>
      <trkpt lat="49.2281" lon="2.55229">
        <ele>82.4</ele>
        <time>2015-02-01T13:06:24Z</time>
      </trkpt>
      <trkpt lat="49.22817" lon="2.55232">
        <ele>82.5</ele>
        <time>2015-02-01T13:06:29Z</time>
      </trkpt>
      <trkpt lat="49.22825" lon="2.55236">
        <ele>81.7</ele>
        <time>2015-02-01T13:06:36Z</time>
      </trkpt>
      <trkpt lat="49.22832" lon="2.5524">
        <ele>80.8</ele>
        <time>2015-02-01T13:06:41Z</time>
      </trkpt>
      <trkpt lat="49.2284" lon="2.55243">
        <ele>79.3</ele>
        <time>2015-02-01T13:06:48Z</time>
      </trkpt>
      <trkpt lat="49.22847" lon="2.55246">
        <ele>78.8</ele>
        <time>2015-02-01T13:06:53Z</time>
      </trkpt>
      <trkpt lat="49.22855" lon="2.55248">
        <ele>76.7</ele>
        <time>2015-02-01T13:06:59Z</time>
      </trkpt>
      <trkpt lat="49.22864" lon="2.55253">
        <ele>74.6</ele>
        <time>2015-02-01T13:07:05Z</time>
      </trkpt>
      <trkpt lat="49.22871" lon="2.55253">
        <ele>72.6</ele>
        <time>2015-02-01T13:07:12Z</time>
      </trkpt>
      <trkpt lat="49.22879" lon="2.55256">
        <ele>72.7</ele>
        <time>2015-02-01T13:07:18Z</time>
      </trkpt>
      <trkpt lat="49.22887" lon="2.5526">
        <ele>73.5</ele>
        <time>2015-02-01T13:07:23Z</time>
      </trkpt>
      <trkpt lat="49.22895" lon="2.55263">
        <ele>74.9</ele>
        <time>2015-02-01T13:07:30Z</time>
      </trkpt>
      <trkpt lat="49.22902" lon="2.55267">
        <ele>75.9</ele>
        <time>2015-02-01T13:07:36Z</time>
      </trkpt>
      <trkpt lat="49.22903" lon="2.55269">
        <ele>76.2</ele>
        <time>2015-02-01T13:07:43Z</time>
      </trkpt>
      <trkpt lat="49.2291" lon="2.55272">
        <ele>76.9</ele>
        <time>2015-02-01T13:07:53Z</time>
      </trkpt>
      <trkpt lat="49.2291" lon="2.55262">
        <ele>77.5</ele>
        <time>2015-02-01T13:08:31Z</time>
      </trkpt>
      <trkpt lat="49.22908" lon="2.55257">
        <ele>77.3</ele>
        <time>2015-02-01T13:08:38Z</time>
      </trkpt>
      <trkpt lat="49.22908" lon="2.55245">
        <ele>76.7</ele>
        <time>2015-02-01T13:08:44Z</time>
      </trkpt>
      <trkpt lat="49.22909" lon="2.55232">
        <ele>76.5</ele>
        <time>2015-02-01T13:08:49Z</time>
      </trkpt>
      <trkpt lat="49.22908" lon="2.55221">
        <ele>76.2</ele>
        <time>2015-02-01T13:08:54Z</time>
      </trkpt>
      <trkpt lat="49.22902" lon="2.55213">
        <ele>76.4</ele>
        <time>2015-02-01T13:09:01Z</time>
      </trkpt>
      <trkpt lat="49.229" lon="2.55201">
        <ele>76.5</ele>
        <time>2015-02-01T13:09:07Z</time>
      </trkpt>
      <trkpt lat="49.22899" lon="2.55188">
        <ele>76.1</ele>
        <time>2015-02-01T13:09:13Z</time>
      </trkpt>
      <trkpt lat="49.22898" lon="2.55177">
        <ele>75.7</ele>
        <time>2015-02-01T13:09:18Z</time>
      </trkpt>
      <trkpt lat="49.22896" lon="2.55165">
        <ele>74.4</ele>
        <time>2015-02-01T13:09:25Z</time>
      </trkpt>
      <trkpt lat="49.22896" lon="2.55153">
        <ele>74</ele>
        <time>2015-02-01T13:09:31Z</time>
      </trkpt>
      <trkpt lat="49.22895" lon="2.5514">
        <ele>73.8</ele>
        <time>2015-02-01T13:09:37Z</time>
      </trkpt>
      <trkpt lat="49.22895" lon="2.55126">
        <ele>73.1</ele>
        <time>2015-02-01T13:09:44Z</time>
      </trkpt>
      <trkpt lat="49.22896" lon="2.55114">
        <ele>72.9</ele>
        <time>2015-02-01T13:09:49Z</time>
      </trkpt>
      <trkpt lat="49.22896" lon="2.55103">
        <ele>72.8</ele>
        <time>2015-02-01T13:09:56Z</time>
      </trkpt>
      <trkpt lat="49.22896" lon="2.55093">
        <ele>72</ele>
        <time>2015-02-01T13:10:03Z</time>
      </trkpt>
      <trkpt lat="49.22896" lon="2.55081">
        <ele>71.8</ele>
        <time>2015-02-01T13:10:10Z</time>
      </trkpt>
      <trkpt lat="49.22895" lon="2.55069">
        <ele>71.6</ele>
        <time>2015-02-01T13:10:16Z</time>
      </trkpt>
      <trkpt lat="49.22895" lon="2.55059">
        <ele>71.1</ele>
        <time>2015-02-01T13:10:23Z</time>
      </trkpt>
      <trkpt lat="49.22896" lon="2.55049">
        <ele>70.6</ele>
        <time>2015-02-01T13:10:30Z</time>
      </trkpt>
      <trkpt lat="49.22899" lon="2.55043">
        <ele>70.8</ele>
        <time>2015-02-01T13:10:37Z</time>
      </trkpt>
      <trkpt lat="49.22905" lon="2.55041">
        <ele>71</ele>
        <time>2015-02-01T13:10:44Z</time>
      </trkpt>
      <trkpt lat="49.22908" lon="2.55039">
        <ele>71.3</ele>
        <time>2015-02-01T13:10:51Z</time>
      </trkpt>
      <trkpt lat="49.22915" lon="2.55045">
        <ele>71.4</ele>
        <time>2015-02-01T13:10:56Z</time>
      </trkpt>
      <trkpt lat="49.22921" lon="2.55042">
        <ele>71.8</ele>
        <time>2015-02-01T13:11:03Z</time>
      </trkpt>
      <trkpt lat="49.22927" lon="2.55036">
        <ele>72.8</ele>
        <time>2015-02-01T13:11:10Z</time>
      </trkpt>
      <trkpt lat="49.22931" lon="2.55028">
        <ele>73.5</ele>
        <time>2015-02-01T13:11:17Z</time>
      </trkpt>
      <trkpt lat="49.22933" lon="2.55016">
        <ele>73.8</ele>
        <time>2015-02-01T13:11:23Z</time>
      </trkpt>
      <trkpt lat="49.22932" lon="2.55004">
        <ele>73.7</ele>
        <time>2015-02-01T13:11:30Z</time>
      </trkpt>
      <trkpt lat="49.2293" lon="2.54993">
        <ele>73.6</ele>
        <time>2015-02-01T13:11:37Z</time>
      </trkpt>
      <trkpt lat="49.22933" lon="2.54981">
        <ele>73.9</ele>
        <time>2015-02-01T13:11:44Z</time>
      </trkpt>
      <trkpt lat="49.22934" lon="2.5497">
        <ele>74</ele>
        <time>2015-02-01T13:11:50Z</time>
      </trkpt>
      <trkpt lat="49.22936" lon="2.54958">
        <ele>74.3</ele>
        <time>2015-02-01T13:11:57Z</time>
      </trkpt>
      <trkpt lat="49.22937" lon="2.54946">
        <ele>74.4</ele>
        <time>2015-02-01T13:12:02Z</time>
      </trkpt>
      <trkpt lat="49.22939" lon="2.54935">
        <ele>74.4</ele>
        <time>2015-02-01T13:12:08Z</time>
      </trkpt>
      <trkpt lat="49.22943" lon="2.54926">
        <ele>75.7</ele>
        <time>2015-02-01T13:12:13Z</time>
      </trkpt>
      <trkpt lat="49.22945" lon="2.54915">
        <ele>76.5</ele>
        <time>2015-02-01T13:12:20Z</time>
      </trkpt>
      <trkpt lat="49.22949" lon="2.54904">
        <ele>77.4</ele>
        <time>2015-02-01T13:12:25Z</time>
      </trkpt>
      <trkpt lat="49.22952" lon="2.54892">
        <ele>78.5</ele>
        <time>2015-02-01T13:12:32Z</time>
      </trkpt>
      <trkpt lat="49.22953" lon="2.5488">
        <ele>78.9</ele>
        <time>2015-02-01T13:12:37Z</time>
      </trkpt>
      <trkpt lat="49.22955" lon="2.54869">
        <ele>79.5</ele>
        <time>2015-02-01T13:12:42Z</time>
      </trkpt>
      <trkpt lat="49.22957" lon="2.54859">
        <ele>79.7</ele>
        <time>2015-02-01T13:12:49Z</time>
      </trkpt>
      <trkpt lat="49.22961" lon="2.54849">
        <ele>80.5</ele>
        <time>2015-02-01T13:12:55Z</time>
      </trkpt>
      <trkpt lat="49.22962" lon="2.54837">
        <ele>80.4</ele>
        <time>2015-02-01T13:13:02Z</time>
      </trkpt>
      <trkpt lat="49.22964" lon="2.54827">
        <ele>80.5</ele>
        <time>2015-02-01T13:13:08Z</time>
      </trkpt>
      <trkpt lat="49.22967" lon="2.54814">
        <ele>80.7</ele>
        <time>2015-02-01T13:13:14Z</time>
      </trkpt>
      <trkpt lat="49.22969" lon="2.54803">
        <ele>80.8</ele>
        <time>2015-02-01T13:13:19Z</time>
      </trkpt>
      <trkpt lat="49.22972" lon="2.54791">
        <ele>80</ele>
        <time>2015-02-01T13:13:26Z</time>
      </trkpt>
      <trkpt lat="49.22974" lon="2.54779">
        <ele>80.3</ele>
        <time>2015-02-01T13:13:32Z</time>
      </trkpt>
      <trkpt lat="49.22978" lon="2.54772">
        <ele>80.4</ele>
        <time>2015-02-01T13:13:39Z</time>
      </trkpt>
      <trkpt lat="49.22982" lon="2.54762">
        <ele>80.2</ele>
        <time>2015-02-01T13:13:44Z</time>
      </trkpt>
      <trkpt lat="49.22984" lon="2.54751">
        <ele>80.5</ele>
        <time>2015-02-01T13:13:51Z</time>
      </trkpt>
      <trkpt lat="49.22986" lon="2.54739">
        <ele>81.1</ele>
        <time>2015-02-01T13:13:58Z</time>
      </trkpt>
      <trkpt lat="49.22991" lon="2.5473">
        <ele>81.5</ele>
        <time>2015-02-01T13:14:02Z</time>
      </trkpt>
      <trkpt lat="49.22993" lon="2.54719">
        <ele>81.9</ele>
        <time>2015-02-01T13:14:08Z</time>
      </trkpt>
      <trkpt lat="49.22996" lon="2.54711">
        <ele>82.6</ele>
        <time>2015-02-01T13:14:15Z</time>
      </trkpt>
      <trkpt lat="49.23" lon="2.547">
        <ele>83</ele>
        <time>2015-02-01T13:14:20Z</time>
      </trkpt>
      <trkpt lat="49.23005" lon="2.54689">
        <ele>83.5</ele>
        <time>2015-02-01T13:14:26Z</time>
      </trkpt>
      <trkpt lat="49.2301" lon="2.54681">
        <ele>83.6</ele>
        <time>2015-02-01T13:14:31Z</time>
      </trkpt>
      <trkpt lat="49.23015" lon="2.54672">
        <ele>84</ele>
        <time>2015-02-01T13:14:38Z</time>
      </trkpt>
      <trkpt lat="49.23019" lon="2.54663">
        <ele>84.3</ele>
        <time>2015-02-01T13:14:42Z</time>
      </trkpt>
      <trkpt lat="49.23022" lon="2.54655">
        <ele>85.3</ele>
        <time>2015-02-01T13:14:49Z</time>
      </trkpt>
      <trkpt lat="49.23026" lon="2.54645">
        <ele>85.5</ele>
        <time>2015-02-01T13:14:54Z</time>
      </trkpt>
      <trkpt lat="49.23027" lon="2.54636">
        <ele>84.5</ele>
        <time>2015-02-01T13:15:01Z</time>
      </trkpt>
      <trkpt lat="49.23032" lon="2.54627">
        <ele>84.5</ele>
        <time>2015-02-01T13:15:06Z</time>
      </trkpt>
      <trkpt lat="49.23036" lon="2.54618">
        <ele>85.5</ele>
        <time>2015-02-01T13:15:13Z</time>
      </trkpt>
      <trkpt lat="49.23042" lon="2.54613">
        <ele>86.3</ele>
        <time>2015-02-01T13:15:19Z</time>
      </trkpt>
      <trkpt lat="49.23047" lon="2.5461">
        <ele>86.9</ele>
        <time>2015-02-01T13:15:26Z</time>
      </trkpt>
      <trkpt lat="49.23048" lon="2.54609">
        <ele>87.2</ele>
        <time>2015-02-01T13:15:33Z</time>
      </trkpt>
      <trkpt lat="49.23048" lon="2.54601">
        <ele>88.7</ele>
        <time>2015-02-01T13:15:40Z</time>
      </trkpt>
      <trkpt lat="49.23056" lon="2.54605">
        <ele>88.1</ele>
        <time>2015-02-01T13:15:54Z</time>
      </trkpt>
      <trkpt lat="49.23062" lon="2.54613">
        <ele>87.9</ele>
        <time>2015-02-01T13:15:57Z</time>
      </trkpt>
      <trkpt lat="49.23068" lon="2.54619">
        <ele>88.7</ele>
        <time>2015-02-01T13:16:02Z</time>
      </trkpt>
      <trkpt lat="49.23076" lon="2.54625">
        <ele>89.3</ele>
        <time>2015-02-01T13:16:09Z</time>
      </trkpt>
      <trkpt lat="49.23083" lon="2.54628">
        <ele>89.9</ele>
        <time>2015-02-01T13:16:15Z</time>
      </trkpt>
      <trkpt lat="49.23089" lon="2.54628">
        <ele>90.5</ele>
        <time>2015-02-01T13:16:22Z</time>
      </trkpt>
      <trkpt lat="49.23097" lon="2.54627">
        <ele>91.6</ele>
        <time>2015-02-01T13:16:28Z</time>
      </trkpt>
      <trkpt lat="49.23105" lon="2.54627">
        <ele>92.2</ele>
        <time>2015-02-01T13:16:34Z</time>
      </trkpt>
      <trkpt lat="49.23113" lon="2.54625">
        <ele>93.1</ele>
        <time>2015-02-01T13:16:39Z</time>
      </trkpt>
      <trkpt lat="49.23119" lon="2.54624">
        <ele>95.2</ele>
        <time>2015-02-01T13:16:46Z</time>
      </trkpt>
      <trkpt lat="49.23127" lon="2.54622">
        <ele>97.1</ele>
        <time>2015-02-01T13:16:53Z</time>
      </trkpt>
      <trkpt lat="49.23135" lon="2.54617">
        <ele>98.3</ele>
        <time>2015-02-01T13:16:58Z</time>
      </trkpt>
      <trkpt lat="49.23142" lon="2.54615">
        <ele>99.1</ele>
        <time>2015-02-01T13:17:02Z</time>
      </trkpt>
      <trkpt lat="49.23151" lon="2.54614">
        <ele>100.4</ele>
        <time>2015-02-01T13:17:08Z</time>
      </trkpt>
      <trkpt lat="49.2316" lon="2.54611">
        <ele>101.2</ele>
        <time>2015-02-01T13:17:13Z</time>
      </trkpt>
      <trkpt lat="49.23167" lon="2.54608">
        <ele>101.9</ele>
        <time>2015-02-01T13:17:17Z</time>
      </trkpt>
      <trkpt lat="49.23174" lon="2.54605">
        <ele>102.7</ele>
        <time>2015-02-01T13:17:21Z</time>
      </trkpt>
      <trkpt lat="49.23181" lon="2.54606">
        <ele>103.3</ele>
        <time>2015-02-01T13:17:26Z</time>
      </trkpt>
      <trkpt lat="49.2319" lon="2.54605">
        <ele>103.5</ele>
        <time>2015-02-01T13:17:31Z</time>
      </trkpt>
      <trkpt lat="49.23198" lon="2.54602">
        <ele>104.2</ele>
        <time>2015-02-01T13:17:37Z</time>
      </trkpt>
      <trkpt lat="49.23207" lon="2.54599">
        <ele>104.6</ele>
        <time>2015-02-01T13:17:42Z</time>
      </trkpt>
      <trkpt lat="49.23214" lon="2.54597">
        <ele>105</ele>
        <time>2015-02-01T13:17:46Z</time>
      </trkpt>
      <trkpt lat="49.23221" lon="2.54593">
        <ele>105.1</ele>
        <time>2015-02-01T13:17:50Z</time>
      </trkpt>
      <trkpt lat="49.23229" lon="2.5459">
        <ele>105</ele>
        <time>2015-02-01T13:17:55Z</time>
      </trkpt>
      <trkpt lat="49.23236" lon="2.54587">
        <ele>105.2</ele>
        <time>2015-02-01T13:18:02Z</time>
      </trkpt>
      <trkpt lat="49.23242" lon="2.54585">
        <ele>104.2</ele>
        <time>2015-02-01T13:18:09Z</time>
      </trkpt>
      <trkpt lat="49.23247" lon="2.54586">
        <ele>102.6</ele>
        <time>2015-02-01T13:18:16Z</time>
      </trkpt>
      <trkpt lat="49.23254" lon="2.54583">
        <ele>102</ele>
        <time>2015-02-01T13:18:21Z</time>
      </trkpt>
      <trkpt lat="49.23262" lon="2.54579">
        <ele>101.5</ele>
        <time>2015-02-01T13:18:27Z</time>
      </trkpt>
      <trkpt lat="49.23271" lon="2.54577">
        <ele>101.6</ele>
        <time>2015-02-01T13:18:33Z</time>
      </trkpt>
      <trkpt lat="49.23278" lon="2.54576">
        <ele>101.4</ele>
        <time>2015-02-01T13:18:37Z</time>
      </trkpt>
      <trkpt lat="49.23286" lon="2.54574">
        <ele>101.3</ele>
        <time>2015-02-01T13:18:43Z</time>
      </trkpt>
      <trkpt lat="49.23293" lon="2.54575">
        <ele>101.3</ele>
        <time>2015-02-01T13:18:48Z</time>
      </trkpt>
      <trkpt lat="49.23302" lon="2.54574">
        <ele>101.2</ele>
        <time>2015-02-01T13:18:52Z</time>
      </trkpt>
      <trkpt lat="49.2331" lon="2.54572">
        <ele>100.3</ele>
        <time>2015-02-01T13:18:59Z</time>
      </trkpt>
      <trkpt lat="49.23316" lon="2.54568">
        <ele>98.6</ele>
        <time>2015-02-01T13:19:06Z</time>
      </trkpt>
      <trkpt lat="49.23325" lon="2.54566">
        <ele>98.2</ele>
        <time>2015-02-01T13:19:13Z</time>
      </trkpt>
      <trkpt lat="49.23332" lon="2.54563">
        <ele>97.1</ele>
        <time>2015-02-01T13:19:19Z</time>
      </trkpt>
      <trkpt lat="49.23336" lon="2.54561">
        <ele>95.5</ele>
        <time>2015-02-01T13:19:26Z</time>
      </trkpt>
      <trkpt lat="49.23337" lon="2.54557">
        <ele>95.3</ele>
        <time>2015-02-01T13:19:33Z</time>
      </trkpt>
      <trkpt lat="49.23344" lon="2.54552">
        <ele>94.1</ele>
        <time>2015-02-01T13:20:03Z</time>
      </trkpt>
      <trkpt lat="49.23353" lon="2.5455">
        <ele>94.1</ele>
        <time>2015-02-01T13:20:10Z</time>
      </trkpt>
      <trkpt lat="49.2336" lon="2.54545">
        <ele>93.9</ele>
        <time>2015-02-01T13:20:13Z</time>
      </trkpt>
      <trkpt lat="49.23367" lon="2.54543">
        <ele>93.8</ele>
        <time>2015-02-01T13:20:18Z</time>
      </trkpt>
      <trkpt lat="49.23375" lon="2.54543">
        <ele>93.5</ele>
        <time>2015-02-01T13:20:23Z</time>
      </trkpt>
      <trkpt lat="49.23382" lon="2.5454">
        <ele>93.1</ele>
        <time>2015-02-01T13:20:29Z</time>
      </trkpt>
      <trkpt lat="49.2339" lon="2.54539">
        <ele>93.1</ele>
        <time>2015-02-01T13:20:35Z</time>
      </trkpt>
      <trkpt lat="49.23397" lon="2.54536">
        <ele>93.1</ele>
        <time>2015-02-01T13:20:40Z</time>
      </trkpt>
      <trkpt lat="49.23406" lon="2.54536">
        <ele>92.9</ele>
        <time>2015-02-01T13:20:45Z</time>
      </trkpt>
      <trkpt lat="49.23413" lon="2.54534">
        <ele>92.4</ele>
        <time>2015-02-01T13:20:50Z</time>
      </trkpt>
      <trkpt lat="49.23421" lon="2.54534">
        <ele>92.4</ele>
        <time>2015-02-01T13:20:56Z</time>
      </trkpt>
      <trkpt lat="49.23429" lon="2.54531">
        <ele>91.9</ele>
        <time>2015-02-01T13:21:02Z</time>
      </trkpt>
      <trkpt lat="49.23437" lon="2.54528">
        <ele>91.5</ele>
        <time>2015-02-01T13:21:09Z</time>
      </trkpt>
      <trkpt lat="49.23445" lon="2.54522">
        <ele>91.1</ele>
        <time>2015-02-01T13:21:16Z</time>
      </trkpt>
      <trkpt lat="49.23453" lon="2.54522">
        <ele>90.7</ele>
        <time>2015-02-01T13:21:21Z</time>
      </trkpt>
      <trkpt lat="49.2346" lon="2.54523">
        <ele>91.3</ele>
        <time>2015-02-01T13:21:27Z</time>
      </trkpt>
      <trkpt lat="49.23469" lon="2.54524">
        <ele>92</ele>
        <time>2015-02-01T13:21:34Z</time>
      </trkpt>
      <trkpt lat="49.23476" lon="2.54521">
        <ele>91.5</ele>
        <time>2015-02-01T13:21:40Z</time>
      </trkpt>
      <trkpt lat="49.23484" lon="2.54519">
        <ele>92</ele>
        <time>2015-02-01T13:21:47Z</time>
      </trkpt>
      <trkpt lat="49.23491" lon="2.54513">
        <ele>91.3</ele>
        <time>2015-02-01T13:21:52Z</time>
      </trkpt>
      <trkpt lat="49.23499" lon="2.54507">
        <ele>90.1</ele>
        <time>2015-02-01T13:21:57Z</time>
      </trkpt>
      <trkpt lat="49.23506" lon="2.54507">
        <ele>90.9</ele>
        <time>2015-02-01T13:22:04Z</time>
      </trkpt>
      <trkpt lat="49.23514" lon="2.54506">
        <ele>91.5</ele>
        <time>2015-02-01T13:22:11Z</time>
      </trkpt>
      <trkpt lat="49.23521" lon="2.54504">
        <ele>91.4</ele>
        <time>2015-02-01T13:22:18Z</time>
      </trkpt>
      <trkpt lat="49.23529" lon="2.545">
        <ele>92</ele>
        <time>2015-02-01T13:22:22Z</time>
      </trkpt>
      <trkpt lat="49.23537" lon="2.54499">
        <ele>91.8</ele>
        <time>2015-02-01T13:22:28Z</time>
      </trkpt>
      <trkpt lat="49.23544" lon="2.54495">
        <ele>91.9</ele>
        <time>2015-02-01T13:22:34Z</time>
      </trkpt>
      <trkpt lat="49.23551" lon="2.54493">
        <ele>92.2</ele>
        <time>2015-02-01T13:22:39Z</time>
      </trkpt>
      <trkpt lat="49.23558" lon="2.5449">
        <ele>92.6</ele>
        <time>2015-02-01T13:22:45Z</time>
      </trkpt>
      <trkpt lat="49.23567" lon="2.5449">
        <ele>92.8</ele>
        <time>2015-02-01T13:22:50Z</time>
      </trkpt>
      <trkpt lat="49.23575" lon="2.54491">
        <ele>93.2</ele>
        <time>2015-02-01T13:22:56Z</time>
      </trkpt>
      <trkpt lat="49.23582" lon="2.54489">
        <ele>94.2</ele>
        <time>2015-02-01T13:23:02Z</time>
      </trkpt>
      <trkpt lat="49.2359" lon="2.54486">
        <ele>95</ele>
        <time>2015-02-01T13:23:09Z</time>
      </trkpt>
      <trkpt lat="49.23597" lon="2.5448">
        <ele>95.1</ele>
        <time>2015-02-01T13:23:15Z</time>
      </trkpt>
      <trkpt lat="49.23603" lon="2.54476">
        <ele>94.7</ele>
        <time>2015-02-01T13:23:22Z</time>
      </trkpt>
      <trkpt lat="49.23609" lon="2.54473">
        <ele>95.3</ele>
        <time>2015-02-01T13:23:29Z</time>
      </trkpt>
      <trkpt lat="49.23617" lon="2.54473">
        <ele>95.7</ele>
        <time>2015-02-01T13:23:34Z</time>
      </trkpt>
      <trkpt lat="49.23624" lon="2.54473">
        <ele>96.1</ele>
        <time>2015-02-01T13:23:40Z</time>
      </trkpt>
      <trkpt lat="49.23631" lon="2.54468">
        <ele>96.2</ele>
        <time>2015-02-01T13:23:47Z</time>
      </trkpt>
      <trkpt lat="49.23638" lon="2.54467">
        <ele>96.3</ele>
        <time>2015-02-01T13:23:52Z</time>
      </trkpt>
      <trkpt lat="49.23642" lon="2.54467">
        <ele>95.8</ele>
        <time>2015-02-01T13:23:59Z</time>
      </trkpt>
      <trkpt lat="49.23651" lon="2.54467">
        <ele>95.5</ele>
        <time>2015-02-01T13:24:05Z</time>
      </trkpt>
      <trkpt lat="49.23658" lon="2.54465">
        <ele>95.3</ele>
        <time>2015-02-01T13:24:12Z</time>
      </trkpt>
      <trkpt lat="49.23665" lon="2.5446">
        <ele>93.8</ele>
        <time>2015-02-01T13:24:18Z</time>
      </trkpt>
      <trkpt lat="49.23673" lon="2.54458">
        <ele>92.9</ele>
        <time>2015-02-01T13:24:24Z</time>
      </trkpt>
      <trkpt lat="49.23681" lon="2.54454">
        <ele>92</ele>
        <time>2015-02-01T13:24:30Z</time>
      </trkpt>
      <trkpt lat="49.23688" lon="2.54451">
        <ele>91.6</ele>
        <time>2015-02-01T13:24:33Z</time>
      </trkpt>
      <trkpt lat="49.23696" lon="2.54449">
        <ele>91</ele>
        <time>2015-02-01T13:24:38Z</time>
      </trkpt>
      <trkpt lat="49.23703" lon="2.54445">
        <ele>90.4</ele>
        <time>2015-02-01T13:24:45Z</time>
      </trkpt>
      <trkpt lat="49.23711" lon="2.54443">
        <ele>90.4</ele>
        <time>2015-02-01T13:24:51Z</time>
      </trkpt>
      <trkpt lat="49.23717" lon="2.54444">
        <ele>90.5</ele>
        <time>2015-02-01T13:24:58Z</time>
      </trkpt>
      <trkpt lat="49.23725" lon="2.54441">
        <ele>90.7</ele>
        <time>2015-02-01T13:25:05Z</time>
      </trkpt>
      <trkpt lat="49.23733" lon="2.54437">
        <ele>90.9</ele>
        <time>2015-02-01T13:25:12Z</time>
      </trkpt>
      <trkpt lat="49.23741" lon="2.54441">
        <ele>91.5</ele>
        <time>2015-02-01T13:25:18Z</time>
      </trkpt>
      <trkpt lat="49.23749" lon="2.54445">
        <ele>91.8</ele>
        <time>2015-02-01T13:25:22Z</time>
      </trkpt>
      <trkpt lat="49.23756" lon="2.54444">
        <ele>91.8</ele>
        <time>2015-02-01T13:25:28Z</time>
      </trkpt>
      <trkpt lat="49.23759" lon="2.54441">
        <ele>92.2</ele>
        <time>2015-02-01T13:25:35Z</time>
      </trkpt>
      <trkpt lat="49.23759" lon="2.54441">
        <ele>91.6</ele>
        <time>2015-02-01T13:25:42Z</time>
      </trkpt>
      <trkpt lat="49.23761" lon="2.54439">
        <ele>91.5</ele>
        <time>2015-02-01T13:25:49Z</time>
      </trkpt>
      <trkpt lat="49.23762" lon="2.54427">
        <ele>91.7</ele>
        <time>2015-02-01T13:25:55Z</time>
      </trkpt>
      <trkpt lat="49.2376" lon="2.54424">
        <ele>92.1</ele>
        <time>2015-02-01T13:26:02Z</time>
      </trkpt>
      <trkpt lat="49.23766" lon="2.54435">
        <ele>93</ele>
        <time>2015-02-01T13:27:24Z</time>
      </trkpt>
      <trkpt lat="49.23772" lon="2.54441">
        <ele>92.6</ele>
        <time>2015-02-01T13:27:29Z</time>
      </trkpt>
      <trkpt lat="49.23778" lon="2.54443">
        <ele>91.9</ele>
        <time>2015-02-01T13:27:36Z</time>
      </trkpt>
      <trkpt lat="49.23784" lon="2.54444">
        <ele>92.1</ele>
        <time>2015-02-01T13:27:43Z</time>
      </trkpt>
      <trkpt lat="49.23791" lon="2.54445">
        <ele>92.1</ele>
        <time>2015-02-01T13:27:50Z</time>
      </trkpt>
      <trkpt lat="49.23798" lon="2.54444">
        <ele>92.5</ele>
        <time>2015-02-01T13:27:57Z</time>
      </trkpt>
      <trkpt lat="49.23805" lon="2.54443">
        <ele>92.3</ele>
        <time>2015-02-01T13:28:03Z</time>
      </trkpt>
      <trkpt lat="49.23813" lon="2.54441">
        <ele>92.9</ele>
        <time>2015-02-01T13:28:08Z</time>
      </trkpt>
      <trkpt lat="49.23821" lon="2.54438">
        <ele>92</ele>
        <time>2015-02-01T13:28:11Z</time>
      </trkpt>
      <trkpt lat="49.23828" lon="2.5444">
        <ele>91.2</ele>
        <time>2015-02-01T13:28:18Z</time>
      </trkpt>
      <trkpt lat="49.23835" lon="2.54441">
        <ele>91.3</ele>
        <time>2015-02-01T13:28:25Z</time>
      </trkpt>
      <trkpt lat="49.23842" lon="2.54438">
        <ele>91.5</ele>
        <time>2015-02-01T13:28:32Z</time>
      </trkpt>
      <trkpt lat="49.23849" lon="2.54438">
        <ele>93.6</ele>
        <time>2015-02-01T13:28:39Z</time>
      </trkpt>
      <trkpt lat="49.23858" lon="2.54437">
        <ele>93.5</ele>
        <time>2015-02-01T13:28:42Z</time>
      </trkpt>
      <trkpt lat="49.23863" lon="2.54432">
        <ele>94</ele>
        <time>2015-02-01T13:28:49Z</time>
      </trkpt>
      <trkpt lat="49.23871" lon="2.54429">
        <ele>94.6</ele>
        <time>2015-02-01T13:28:56Z</time>
      </trkpt>
      <trkpt lat="49.23876" lon="2.54429">
        <ele>95.3</ele>
        <time>2015-02-01T13:29:03Z</time>
      </trkpt>
      <trkpt lat="49.23884" lon="2.54427">
        <ele>95.6</ele>
        <time>2015-02-01T13:29:10Z</time>
      </trkpt>
      <trkpt lat="49.23892" lon="2.54426">
        <ele>96</ele>
        <time>2015-02-01T13:29:17Z</time>
      </trkpt>
      <trkpt lat="49.23899" lon="2.54425">
        <ele>96.4</ele>
        <time>2015-02-01T13:29:21Z</time>
      </trkpt>
      <trkpt lat="49.23907" lon="2.54424">
        <ele>97.4</ele>
        <time>2015-02-01T13:29:26Z</time>
      </trkpt>
      <trkpt lat="49.23916" lon="2.54424">
        <ele>97.3</ele>
        <time>2015-02-01T13:29:33Z</time>
      </trkpt>
      <trkpt lat="49.23923" lon="2.54422">
        <ele>96.2</ele>
        <time>2015-02-01T13:29:38Z</time>
      </trkpt>
      <trkpt lat="49.23928" lon="2.54422">
        <ele>96.2</ele>
        <time>2015-02-01T13:29:45Z</time>
      </trkpt>
      <trkpt lat="49.23936" lon="2.54419">
        <ele>96.4</ele>
        <time>2015-02-01T13:29:51Z</time>
      </trkpt>
      <trkpt lat="49.23944" lon="2.54415">
        <ele>95.8</ele>
        <time>2015-02-01T13:29:55Z</time>
      </trkpt>
      <trkpt lat="49.23951" lon="2.54411">
        <ele>95.5</ele>
        <time>2015-02-01T13:30:02Z</time>
      </trkpt>
      <trkpt lat="49.23959" lon="2.54409">
        <ele>95.6</ele>
        <time>2015-02-01T13:30:07Z</time>
      </trkpt>
      <trkpt lat="49.23965" lon="2.54409">
        <ele>95.8</ele>
        <time>2015-02-01T13:30:14Z</time>
      </trkpt>
      <trkpt lat="49.23973" lon="2.54408">
        <ele>96.6</ele>
        <time>2015-02-01T13:30:18Z</time>
      </trkpt>
      <trkpt lat="49.2398" lon="2.54407">
        <ele>97.4</ele>
        <time>2015-02-01T13:30:22Z</time>
      </trkpt>
      <trkpt lat="49.23988" lon="2.54405">
        <ele>98.2</ele>
        <time>2015-02-01T13:30:27Z</time>
      </trkpt>
      <trkpt lat="49.23996" lon="2.54402">
        <ele>98.7</ele>
        <time>2015-02-01T13:30:34Z</time>
      </trkpt>
      <trkpt lat="49.24004" lon="2.54398">
        <ele>98.5</ele>
        <time>2015-02-01T13:30:41Z</time>
      </trkpt>
      <trkpt lat="49.24011" lon="2.54395">
        <ele>98.4</ele>
        <time>2015-02-01T13:30:48Z</time>
      </trkpt>
      <trkpt lat="49.24019" lon="2.54395">
        <ele>99</ele>
        <time>2015-02-01T13:30:55Z</time>
      </trkpt>
      <trkpt lat="49.24028" lon="2.54396">
        <ele>98.8</ele>
        <time>2015-02-01T13:31:00Z</time>
      </trkpt>
      <trkpt lat="49.24036" lon="2.54398">
        <ele>99.4</ele>
        <time>2015-02-01T13:31:06Z</time>
      </trkpt>
      <trkpt lat="49.2404" lon="2.54394">
        <ele>99.6</ele>
        <time>2015-02-01T13:31:13Z</time>
      </trkpt>
      <trkpt lat="49.24046" lon="2.54393">
        <ele>98.8</ele>
        <time>2015-02-01T13:31:20Z</time>
      </trkpt>
      <trkpt lat="49.24054" lon="2.5439">
        <ele>97.6</ele>
        <time>2015-02-01T13:31:27Z</time>
      </trkpt>
      <trkpt lat="49.24062" lon="2.54387">
        <ele>97.6</ele>
        <time>2015-02-01T13:31:34Z</time>
      </trkpt>
      <trkpt lat="49.24069" lon="2.54383">
        <ele>97.4</ele>
        <time>2015-02-01T13:31:39Z</time>
      </trkpt>
      <trkpt lat="49.24078" lon="2.54382">
        <ele>97</ele>
        <time>2015-02-01T13:31:44Z</time>
      </trkpt>
      <trkpt lat="49.24085" lon="2.54379">
        <ele>96.4</ele>
        <time>2015-02-01T13:31:49Z</time>
      </trkpt>
      <trkpt lat="49.24092" lon="2.54376">
        <ele>96.5</ele>
        <time>2015-02-01T13:31:53Z</time>
      </trkpt>
      <trkpt lat="49.24099" lon="2.54373">
        <ele>96.9</ele>
        <time>2015-02-01T13:31:57Z</time>
      </trkpt>
      <trkpt lat="49.24106" lon="2.5437">
        <ele>97.2</ele>
        <time>2015-02-01T13:32:02Z</time>
      </trkpt>
      <trkpt lat="49.24114" lon="2.54367">
        <ele>96.8</ele>
        <time>2015-02-01T13:32:09Z</time>
      </trkpt>
      <trkpt lat="49.24118" lon="2.54366">
        <ele>97</ele>
        <time>2015-02-01T13:32:16Z</time>
      </trkpt>
      <trkpt lat="49.24125" lon="2.54367">
        <ele>97.8</ele>
        <time>2015-02-01T13:32:23Z</time>
      </trkpt>
      <trkpt lat="49.24131" lon="2.54366">
        <ele>98.2</ele>
        <time>2015-02-01T13:32:30Z</time>
      </trkpt>
      <trkpt lat="49.24138" lon="2.54367">
        <ele>98.8</ele>
        <time>2015-02-01T13:32:36Z</time>
      </trkpt>
      <trkpt lat="49.24146" lon="2.54365">
        <ele>98.8</ele>
        <time>2015-02-01T13:32:40Z</time>
      </trkpt>
      <trkpt lat="49.24154" lon="2.54364">
        <ele>98.6</ele>
        <time>2015-02-01T13:32:45Z</time>
      </trkpt>
      <trkpt lat="49.24161" lon="2.54359">
        <ele>98.6</ele>
        <time>2015-02-01T13:32:51Z</time>
      </trkpt>
      <trkpt lat="49.24169" lon="2.54358">
        <ele>97.8</ele>
        <time>2015-02-01T13:32:57Z</time>
      </trkpt>
      <trkpt lat="49.24176" lon="2.54356">
        <ele>97.2</ele>
        <time>2015-02-01T13:33:03Z</time>
      </trkpt>
      <trkpt lat="49.24184" lon="2.54359">
        <ele>96.6</ele>
        <time>2015-02-01T13:33:07Z</time>
      </trkpt>
      <trkpt lat="49.2419" lon="2.54361">
        <ele>95.4</ele>
        <time>2015-02-01T13:33:14Z</time>
      </trkpt>
      <trkpt lat="49.24198" lon="2.54366">
        <ele>95.4</ele>
        <time>2015-02-01T13:33:18Z</time>
      </trkpt>
      <trkpt lat="49.24202" lon="2.5437">
        <ele>95.5</ele>
        <time>2015-02-01T13:33:25Z</time>
      </trkpt>
      <trkpt lat="49.24208" lon="2.54375">
        <ele>95.5</ele>
        <time>2015-02-01T13:33:32Z</time>
      </trkpt>
      <trkpt lat="49.24215" lon="2.54381">
        <ele>95.6</ele>
        <time>2015-02-01T13:33:39Z</time>
      </trkpt>
      <trkpt lat="49.24222" lon="2.54382">
        <ele>96</ele>
        <time>2015-02-01T13:33:46Z</time>
      </trkpt>
      <trkpt lat="49.2423" lon="2.54385">
        <ele>95.4</ele>
        <time>2015-02-01T13:33:51Z</time>
      </trkpt>
      <trkpt lat="49.24237" lon="2.5439">
        <ele>95.5</ele>
        <time>2015-02-01T13:33:55Z</time>
      </trkpt>
      <trkpt lat="49.24243" lon="2.54395">
        <ele>95.1</ele>
        <time>2015-02-01T13:34:00Z</time>
      </trkpt>
      <trkpt lat="49.2425" lon="2.54398">
        <ele>94.8</ele>
        <time>2015-02-01T13:34:07Z</time>
      </trkpt>
      <trkpt lat="49.24257" lon="2.54403">
        <ele>94.8</ele>
        <time>2015-02-01T13:34:14Z</time>
      </trkpt>
      <trkpt lat="49.24263" lon="2.54406">
        <ele>94.9</ele>
        <time>2015-02-01T13:34:21Z</time>
      </trkpt>
      <trkpt lat="49.24268" lon="2.54413">
        <ele>95.3</ele>
        <time>2015-02-01T13:34:25Z</time>
      </trkpt>
      <trkpt lat="49.24274" lon="2.54418">
        <ele>95.1</ele>
        <time>2015-02-01T13:34:32Z</time>
      </trkpt>
      <trkpt lat="49.24281" lon="2.54425">
        <ele>95.4</ele>
        <time>2015-02-01T13:34:37Z</time>
      </trkpt>
      <trkpt lat="49.24288" lon="2.54428">
        <ele>95.9</ele>
        <time>2015-02-01T13:34:41Z</time>
      </trkpt>
      <trkpt lat="49.24295" lon="2.5443">
        <ele>96.5</ele>
        <time>2015-02-01T13:34:48Z</time>
      </trkpt>
      <trkpt lat="49.24303" lon="2.54432">
        <ele>97.3</ele>
        <time>2015-02-01T13:34:52Z</time>
      </trkpt>
      <trkpt lat="49.24312" lon="2.54436">
        <ele>98.3</ele>
        <time>2015-02-01T13:34:58Z</time>
      </trkpt>
      <trkpt lat="49.2432" lon="2.54439">
        <ele>99.1</ele>
        <time>2015-02-01T13:35:05Z</time>
      </trkpt>
      <trkpt lat="49.24327" lon="2.54441">
        <ele>99.7</ele>
        <time>2015-02-01T13:35:12Z</time>
      </trkpt>
      <trkpt lat="49.24334" lon="2.54444">
        <ele>100.9</ele>
        <time>2015-02-01T13:35:18Z</time>
      </trkpt>
      <trkpt lat="49.24342" lon="2.54447">
        <ele>101.4</ele>
        <time>2015-02-01T13:35:25Z</time>
      </trkpt>
      <trkpt lat="49.24349" lon="2.54451">
        <ele>101.8</ele>
        <time>2015-02-01T13:35:30Z</time>
      </trkpt>
      <trkpt lat="49.24356" lon="2.54453">
        <ele>101.9</ele>
        <time>2015-02-01T13:35:35Z</time>
      </trkpt>
      <trkpt lat="49.24364" lon="2.54459">
        <ele>102.9</ele>
        <time>2015-02-01T13:35:41Z</time>
      </trkpt>
      <trkpt lat="49.24371" lon="2.54466">
        <ele>103.4</ele>
        <time>2015-02-01T13:35:46Z</time>
      </trkpt>
      <trkpt lat="49.24378" lon="2.54468">
        <ele>103.6</ele>
        <time>2015-02-01T13:35:52Z</time>
      </trkpt>
      <trkpt lat="49.24384" lon="2.54475">
        <ele>103.9</ele>
        <time>2015-02-01T13:35:59Z</time>
      </trkpt>
      <trkpt lat="49.24391" lon="2.5448">
        <ele>104.6</ele>
        <time>2015-02-01T13:36:06Z</time>
      </trkpt>
      <trkpt lat="49.24399" lon="2.54484">
        <ele>105.4</ele>
        <time>2015-02-01T13:36:12Z</time>
      </trkpt>
      <trkpt lat="49.24407" lon="2.54486">
        <ele>106.5</ele>
        <time>2015-02-01T13:36:17Z</time>
      </trkpt>
      <trkpt lat="49.24414" lon="2.54488">
        <ele>106.9</ele>
        <time>2015-02-01T13:36:20Z</time>
      </trkpt>
      <trkpt lat="49.24419" lon="2.54488">
        <ele>106.5</ele>
        <time>2015-02-01T13:36:27Z</time>
      </trkpt>
      <trkpt lat="49.24427" lon="2.54492">
        <ele>106.7</ele>
        <time>2015-02-01T13:36:34Z</time>
      </trkpt>
      <trkpt lat="49.24435" lon="2.54496">
        <ele>107.2</ele>
        <time>2015-02-01T13:36:40Z</time>
      </trkpt>
      <trkpt lat="49.24441" lon="2.545">
        <ele>108.5</ele>
        <time>2015-02-01T13:36:47Z</time>
      </trkpt>
      <trkpt lat="49.24448" lon="2.54505">
        <ele>109.6</ele>
        <time>2015-02-01T13:36:52Z</time>
      </trkpt>
      <trkpt lat="49.24455" lon="2.54508">
        <ele>110.2</ele>
        <time>2015-02-01T13:36:58Z</time>
      </trkpt>
      <trkpt lat="49.24461" lon="2.54514">
        <ele>111.2</ele>
        <time>2015-02-01T13:37:05Z</time>
      </trkpt>
      <trkpt lat="49.24469" lon="2.5452">
        <ele>111.6</ele>
        <time>2015-02-01T13:37:12Z</time>
      </trkpt>
      <trkpt lat="49.24474" lon="2.54526">
        <ele>111.4</ele>
        <time>2015-02-01T13:37:19Z</time>
      </trkpt>
      <trkpt lat="49.24481" lon="2.54529">
        <ele>111.7</ele>
        <time>2015-02-01T13:37:26Z</time>
      </trkpt>
      <trkpt lat="49.24488" lon="2.54532">
        <ele>111.6</ele>
        <time>2015-02-01T13:37:32Z</time>
      </trkpt>
      <trkpt lat="49.24495" lon="2.54537">
        <ele>111.7</ele>
        <time>2015-02-01T13:37:37Z</time>
      </trkpt>
      <trkpt lat="49.24503" lon="2.54541">
        <ele>112</ele>
        <time>2015-02-01T13:37:42Z</time>
      </trkpt>
      <trkpt lat="49.2451" lon="2.54545">
        <ele>112.3</ele>
        <time>2015-02-01T13:37:47Z</time>
      </trkpt>
      <trkpt lat="49.24519" lon="2.54549">
        <ele>112.4</ele>
        <time>2015-02-01T13:37:53Z</time>
      </trkpt>
      <trkpt lat="49.24526" lon="2.54552">
        <ele>112.3</ele>
        <time>2015-02-01T13:37:58Z</time>
      </trkpt>
      <trkpt lat="49.24535" lon="2.54555">
        <ele>112.4</ele>
        <time>2015-02-01T13:38:05Z</time>
      </trkpt>
      <trkpt lat="49.24541" lon="2.54559">
        <ele>112.8</ele>
        <time>2015-02-01T13:38:12Z</time>
      </trkpt>
      <trkpt lat="49.24548" lon="2.54564">
        <ele>113.6</ele>
        <time>2015-02-01T13:38:16Z</time>
      </trkpt>
      <trkpt lat="49.24555" lon="2.54567">
        <ele>113.8</ele>
        <time>2015-02-01T13:38:21Z</time>
      </trkpt>
      <trkpt lat="49.24561" lon="2.54575">
        <ele>112.4</ele>
        <time>2015-02-01T13:38:28Z</time>
      </trkpt>
      <trkpt lat="49.24563" lon="2.54578">
        <ele>111.5</ele>
        <time>2015-02-01T13:38:35Z</time>
      </trkpt>
      <trkpt lat="49.2457" lon="2.5458">
        <ele>111</ele>
        <time>2015-02-01T13:38:42Z</time>
      </trkpt>
      <trkpt lat="49.24575" lon="2.5458">
        <ele>109.8</ele>
        <time>2015-02-01T13:39:05Z</time>
      </trkpt>
      <trkpt lat="49.24576" lon="2.54588">
        <ele>106.4</ele>
        <time>2015-02-01T13:39:51Z</time>
      </trkpt>
      <trkpt lat="49.24582" lon="2.54584">
        <ele>105.8</ele>
        <time>2015-02-01T13:40:01Z</time>
      </trkpt>
      <trkpt lat="49.2459" lon="2.5458">
        <ele>105</ele>
        <time>2015-02-01T13:40:06Z</time>
      </trkpt>
      <trkpt lat="49.24592" lon="2.54578">
        <ele>105.1</ele>
        <time>2015-02-01T13:40:13Z</time>
      </trkpt>
      <trkpt lat="49.24595" lon="2.5457">
        <ele>105.1</ele>
        <time>2015-02-01T13:40:29Z</time>
      </trkpt>
      <trkpt lat="49.24591" lon="2.54584">
        <ele>108.4</ele>
        <time>2015-02-01T13:41:07Z</time>
      </trkpt>
      <trkpt lat="49.24588" lon="2.54585">
        <ele>111.4</ele>
        <time>2015-02-01T13:40:35Z</time>
      </trkpt>
      <trkpt lat="49.24578" lon="2.54585">
        <ele>112.7</ele>
        <time>2015-02-01T13:41:53Z</time>
      </trkpt>
      <trkpt lat="49.24582" lon="2.54584">
        <ele>111.8</ele>
        <time>2015-02-01T13:42:27Z</time>
      </trkpt>
      <trkpt lat="49.24592" lon="2.54586">
        <ele>111.8</ele>
        <time>2015-02-01T13:42:43Z</time>
      </trkpt>
      <trkpt lat="49.24594" lon="2.54585">
        <ele>111.6</ele>
        <time>2015-02-01T13:42:50Z</time>
      </trkpt>
      <trkpt lat="49.24591" lon="2.54587">
        <ele>111.4</ele>
        <time>2015-02-01T13:43:06Z</time>
      </trkpt>
      <trkpt lat="49.24581" lon="2.5459">
        <ele>112.8</ele>
        <time>2015-02-01T13:43:23Z</time>
      </trkpt>
      <trkpt lat="49.24578" lon="2.54592">
        <ele>113.1</ele>
        <time>2015-02-01T13:43:30Z</time>
      </trkpt>
      <trkpt lat="49.24578" lon="2.54592">
        <ele>113.1</ele>
        <time>2015-02-01T13:43:37Z</time>
      </trkpt>
      <trkpt lat="49.24585" lon="2.5459">
        <ele>114.2</ele>
        <time>2015-02-01T13:44:08Z</time>
      </trkpt>
      <trkpt lat="49.24585" lon="2.54586">
        <ele>114.5</ele>
        <time>2015-02-01T13:44:22Z</time>
      </trkpt>
      <trkpt lat="49.24585" lon="2.54583">
        <ele>115.6</ele>
        <time>2015-02-01T13:44:29Z</time>
      </trkpt>
      <trkpt lat="49.2458" lon="2.54584">
        <ele>115.9</ele>
        <time>2015-02-01T13:44:36Z</time>
      </trkpt>
      <trkpt lat="49.24585" lon="2.54586">
        <ele>116.5</ele>
        <time>2015-02-01T13:45:05Z</time>
      </trkpt>
      <trkpt lat="49.24586" lon="2.54591">
        <ele>115.9</ele>
        <time>2015-02-01T13:45:12Z</time>
      </trkpt>
      <trkpt lat="49.24592" lon="2.54595">
        <ele>114.7</ele>
        <time>2015-02-01T13:45:19Z</time>
      </trkpt>
      <trkpt lat="49.24599" lon="2.54599">
        <ele>113.3</ele>
        <time>2015-02-01T13:45:26Z</time>
      </trkpt>
      <trkpt lat="49.24604" lon="2.54597">
        <ele>112.2</ele>
        <time>2015-02-01T13:45:33Z</time>
      </trkpt>
      <trkpt lat="49.24612" lon="2.54599">
        <ele>111.7</ele>
        <time>2015-02-01T13:45:38Z</time>
      </trkpt>
      <trkpt lat="49.24618" lon="2.54603">
        <ele>111</ele>
        <time>2015-02-01T13:45:45Z</time>
      </trkpt>
      <trkpt lat="49.24622" lon="2.54607">
        <ele>109.7</ele>
        <time>2015-02-01T13:45:52Z</time>
      </trkpt>
      <trkpt lat="49.24628" lon="2.54611">
        <ele>109</ele>
        <time>2015-02-01T13:45:59Z</time>
      </trkpt>
      <trkpt lat="49.24638" lon="2.54618">
        <ele>108.5</ele>
        <time>2015-02-01T13:46:04Z</time>
      </trkpt>
      <trkpt lat="49.24644" lon="2.54624">
        <ele>109.1</ele>
        <time>2015-02-01T13:46:10Z</time>
      </trkpt>
      <trkpt lat="49.24652" lon="2.54629">
        <ele>108.8</ele>
        <time>2015-02-01T13:46:17Z</time>
      </trkpt>
      <trkpt lat="49.24659" lon="2.54632">
        <ele>108.6</ele>
        <time>2015-02-01T13:46:22Z</time>
      </trkpt>
      <trkpt lat="49.24666" lon="2.54636">
        <ele>108.4</ele>
        <time>2015-02-01T13:46:28Z</time>
      </trkpt>
      <trkpt lat="49.24672" lon="2.54639">
        <ele>107.7</ele>
        <time>2015-02-01T13:46:35Z</time>
      </trkpt>
      <trkpt lat="49.24676" lon="2.54642">
        <ele>106.9</ele>
        <time>2015-02-01T13:46:42Z</time>
      </trkpt>
      <trkpt lat="49.24681" lon="2.54642">
        <ele>106.5</ele>
        <time>2015-02-01T13:46:49Z</time>
      </trkpt>
      <trkpt lat="49.24689" lon="2.54647">
        <ele>105.4</ele>
        <time>2015-02-01T13:46:56Z</time>
      </trkpt>
      <trkpt lat="49.24696" lon="2.54649">
        <ele>104.5</ele>
        <time>2015-02-01T13:47:01Z</time>
      </trkpt>
      <trkpt lat="49.24704" lon="2.54653">
        <ele>103.4</ele>
        <time>2015-02-01T13:47:04Z</time>
      </trkpt>
      <trkpt lat="49.24706" lon="2.5466">
        <ele>102</ele>
        <time>2015-02-01T13:47:11Z</time>
      </trkpt>
      <trkpt lat="49.24712" lon="2.54665">
        <ele>100.2</ele>
        <time>2015-02-01T13:47:18Z</time>
      </trkpt>
      <trkpt lat="49.2472" lon="2.54669">
        <ele>98.4</ele>
        <time>2015-02-01T13:47:25Z</time>
      </trkpt>
      <trkpt lat="49.24727" lon="2.54673">
        <ele>98.3</ele>
        <time>2015-02-01T13:47:29Z</time>
      </trkpt>
      <trkpt lat="49.24734" lon="2.54676">
        <ele>97.1</ele>
        <time>2015-02-01T13:47:36Z</time>
      </trkpt>
      <trkpt lat="49.24741" lon="2.54677">
        <ele>95.7</ele>
        <time>2015-02-01T13:47:43Z</time>
      </trkpt>
      <trkpt lat="49.24747" lon="2.54683">
        <ele>95.3</ele>
        <time>2015-02-01T13:47:50Z</time>
      </trkpt>
      <trkpt lat="49.24753" lon="2.54687">
        <ele>95.1</ele>
        <time>2015-02-01T13:47:56Z</time>
      </trkpt>
      <trkpt lat="49.24758" lon="2.54692">
        <ele>94.8</ele>
        <time>2015-02-01T13:48:03Z</time>
      </trkpt>
      <trkpt lat="49.24765" lon="2.54697">
        <ele>94.5</ele>
        <time>2015-02-01T13:48:09Z</time>
      </trkpt>
      <trkpt lat="49.24772" lon="2.54702">
        <ele>93.6</ele>
        <time>2015-02-01T13:48:13Z</time>
      </trkpt>
      <trkpt lat="49.24779" lon="2.54705">
        <ele>93.5</ele>
        <time>2015-02-01T13:48:18Z</time>
      </trkpt>
      <trkpt lat="49.24787" lon="2.54706">
        <ele>93.1</ele>
        <time>2015-02-01T13:48:23Z</time>
      </trkpt>
      <trkpt lat="49.24794" lon="2.54709">
        <ele>92.4</ele>
        <time>2015-02-01T13:48:28Z</time>
      </trkpt>
      <trkpt lat="49.24803" lon="2.54713">
        <ele>92</ele>
        <time>2015-02-01T13:48:35Z</time>
      </trkpt>
      <trkpt lat="49.2481" lon="2.54717">
        <ele>90.4</ele>
        <time>2015-02-01T13:48:42Z</time>
      </trkpt>
      <trkpt lat="49.24817" lon="2.54725">
        <ele>89.1</ele>
        <time>2015-02-01T13:48:49Z</time>
      </trkpt>
      <trkpt lat="49.24824" lon="2.5473">
        <ele>87.8</ele>
        <time>2015-02-01T13:48:55Z</time>
      </trkpt>
      <trkpt lat="49.24832" lon="2.54734">
        <ele>87.3</ele>
        <time>2015-02-01T13:49:00Z</time>
      </trkpt>
      <trkpt lat="49.24838" lon="2.5474">
        <ele>86</ele>
        <time>2015-02-01T13:49:07Z</time>
      </trkpt>
      <trkpt lat="49.24844" lon="2.54746">
        <ele>85.5</ele>
        <time>2015-02-01T13:49:13Z</time>
      </trkpt>
      <trkpt lat="49.24851" lon="2.54749">
        <ele>84.9</ele>
        <time>2015-02-01T13:49:16Z</time>
      </trkpt>
      <trkpt lat="49.24858" lon="2.54755">
        <ele>85.3</ele>
        <time>2015-02-01T13:49:22Z</time>
      </trkpt>
      <trkpt lat="49.24866" lon="2.5476">
        <ele>84.8</ele>
        <time>2015-02-01T13:49:28Z</time>
      </trkpt>
      <trkpt lat="49.24873" lon="2.54761">
        <ele>84.4</ele>
        <time>2015-02-01T13:49:35Z</time>
      </trkpt>
      <trkpt lat="49.24882" lon="2.54761">
        <ele>84.6</ele>
        <time>2015-02-01T13:49:42Z</time>
      </trkpt>
      <trkpt lat="49.24887" lon="2.54762">
        <ele>84.9</ele>
        <time>2015-02-01T13:49:49Z</time>
      </trkpt>
      <trkpt lat="49.24893" lon="2.54768">
        <ele>85.1</ele>
        <time>2015-02-01T13:49:56Z</time>
      </trkpt>
      <trkpt lat="49.24901" lon="2.54773">
        <ele>84.4</ele>
        <time>2015-02-01T13:50:03Z</time>
      </trkpt>
      <trkpt lat="49.24906" lon="2.54776">
        <ele>83.9</ele>
        <time>2015-02-01T13:50:10Z</time>
      </trkpt>
      <trkpt lat="49.24913" lon="2.54779">
        <ele>83.3</ele>
        <time>2015-02-01T13:50:17Z</time>
      </trkpt>
      <trkpt lat="49.24916" lon="2.5478">
        <ele>83.6</ele>
        <time>2015-02-01T13:50:24Z</time>
      </trkpt>
      <trkpt lat="49.2492" lon="2.54783">
        <ele>82.8</ele>
        <time>2015-02-01T13:50:31Z</time>
      </trkpt>
      <trkpt lat="49.24925" lon="2.54785">
        <ele>82</ele>
        <time>2015-02-01T13:50:38Z</time>
      </trkpt>
      <trkpt lat="49.24926" lon="2.54789">
        <ele>81.5</ele>
        <time>2015-02-01T13:50:45Z</time>
      </trkpt>
      <trkpt lat="49.24933" lon="2.54791">
        <ele>81.6</ele>
        <time>2015-02-01T13:50:52Z</time>
      </trkpt>
      <trkpt lat="49.2494" lon="2.54797">
        <ele>81.9</ele>
        <time>2015-02-01T13:50:59Z</time>
      </trkpt>
      <trkpt lat="49.24947" lon="2.54795">
        <ele>82</ele>
        <time>2015-02-01T13:51:06Z</time>
      </trkpt>
      <trkpt lat="49.24952" lon="2.54796">
        <ele>82.3</ele>
        <time>2015-02-01T13:51:13Z</time>
      </trkpt>
      <trkpt lat="49.24955" lon="2.548">
        <ele>82.3</ele>
        <time>2015-02-01T13:51:20Z</time>
      </trkpt>
      <trkpt lat="49.24958" lon="2.54807">
        <ele>82</ele>
        <time>2015-02-01T13:51:27Z</time>
      </trkpt>
      <trkpt lat="49.24964" lon="2.54813">
        <ele>82.2</ele>
        <time>2015-02-01T13:51:34Z</time>
      </trkpt>
      <trkpt lat="49.24969" lon="2.54817">
        <ele>82.4</ele>
        <time>2015-02-01T13:51:41Z</time>
      </trkpt>
      <trkpt lat="49.24974" lon="2.5482">
        <ele>82.1</ele>
        <time>2015-02-01T13:51:48Z</time>
      </trkpt>
      <trkpt lat="49.24978" lon="2.54824">
        <ele>82.1</ele>
        <time>2015-02-01T13:51:55Z</time>
      </trkpt>
      <trkpt lat="49.24985" lon="2.54828">
        <ele>82</ele>
        <time>2015-02-01T13:52:02Z</time>
      </trkpt>
      <trkpt lat="49.24994" lon="2.54832">
        <ele>82.2</ele>
        <time>2015-02-01T13:52:08Z</time>
      </trkpt>
      <trkpt lat="49.25002" lon="2.54836">
        <ele>82.5</ele>
        <time>2015-02-01T13:52:12Z</time>
      </trkpt>
      <trkpt lat="49.25008" lon="2.54841">
        <ele>82.9</ele>
        <time>2015-02-01T13:52:19Z</time>
      </trkpt>
      <trkpt lat="49.25015" lon="2.54846">
        <ele>83.2</ele>
        <time>2015-02-01T13:52:26Z</time>
      </trkpt>
      <trkpt lat="49.2502" lon="2.5485">
        <ele>83.7</ele>
        <time>2015-02-01T13:52:33Z</time>
      </trkpt>
      <trkpt lat="49.25024" lon="2.54852">
        <ele>83.4</ele>
        <time>2015-02-01T13:52:40Z</time>
      </trkpt>
      <trkpt lat="49.25031" lon="2.54857">
        <ele>83.1</ele>
        <time>2015-02-01T13:52:47Z</time>
      </trkpt>
      <trkpt lat="49.25041" lon="2.54863">
        <ele>83.3</ele>
        <time>2015-02-01T13:52:52Z</time>
      </trkpt>
      <trkpt lat="49.25047" lon="2.54868">
        <ele>83.3</ele>
        <time>2015-02-01T13:52:57Z</time>
      </trkpt>
      <trkpt lat="49.25052" lon="2.5487">
        <ele>83.3</ele>
        <time>2015-02-01T13:53:04Z</time>
      </trkpt>
      <trkpt lat="49.25059" lon="2.54866">
        <ele>82.7</ele>
        <time>2015-02-01T13:53:11Z</time>
      </trkpt>
      <trkpt lat="49.25064" lon="2.54868">
        <ele>81.9</ele>
        <time>2015-02-01T13:53:18Z</time>
      </trkpt>
      <trkpt lat="49.25066" lon="2.54867">
        <ele>82.3</ele>
        <time>2015-02-01T13:53:25Z</time>
      </trkpt>
      <trkpt lat="49.25072" lon="2.54869">
        <ele>82.3</ele>
        <time>2015-02-01T13:53:54Z</time>
      </trkpt>
      <trkpt lat="49.25079" lon="2.54874">
        <ele>82.3</ele>
        <time>2015-02-01T13:54:01Z</time>
      </trkpt>
      <trkpt lat="49.25086" lon="2.54881">
        <ele>82.5</ele>
        <time>2015-02-01T13:54:07Z</time>
      </trkpt>
      <trkpt lat="49.25093" lon="2.54884">
        <ele>82.6</ele>
        <time>2015-02-01T13:54:14Z</time>
      </trkpt>
      <trkpt lat="49.25101" lon="2.54887">
        <ele>82.7</ele>
        <time>2015-02-01T13:54:21Z</time>
      </trkpt>
      <trkpt lat="49.25107" lon="2.54891">
        <ele>82.2</ele>
        <time>2015-02-01T13:54:28Z</time>
      </trkpt>
      <trkpt lat="49.25113" lon="2.54895">
        <ele>82.1</ele>
        <time>2015-02-01T13:54:35Z</time>
      </trkpt>
      <trkpt lat="49.25117" lon="2.54905">
        <ele>82.2</ele>
        <time>2015-02-01T13:54:42Z</time>
      </trkpt>
      <trkpt lat="49.25121" lon="2.54908">
        <ele>81.9</ele>
        <time>2015-02-01T13:54:49Z</time>
      </trkpt>
      <trkpt lat="49.2512" lon="2.54913">
        <ele>81.7</ele>
        <time>2015-02-01T13:54:56Z</time>
      </trkpt>
      <trkpt lat="49.25121" lon="2.54913">
        <ele>81.6</ele>
        <time>2015-02-01T13:55:03Z</time>
      </trkpt>
      <trkpt lat="49.25123" lon="2.54924">
        <ele>81</ele>
        <time>2015-02-01T13:55:23Z</time>
      </trkpt>
      <trkpt lat="49.25129" lon="2.54927">
        <ele>81</ele>
        <time>2015-02-01T13:55:30Z</time>
      </trkpt>
      <trkpt lat="49.25137" lon="2.54925">
        <ele>81</ele>
        <time>2015-02-01T13:55:35Z</time>
      </trkpt>
      <trkpt lat="49.25144" lon="2.54922">
        <ele>80.9</ele>
        <time>2015-02-01T13:55:40Z</time>
      </trkpt>
      <trkpt lat="49.25153" lon="2.54922">
        <ele>81</ele>
        <time>2015-02-01T13:55:46Z</time>
      </trkpt>
      <trkpt lat="49.25162" lon="2.54926">
        <ele>80.9</ele>
        <time>2015-02-01T13:55:52Z</time>
      </trkpt>
      <trkpt lat="49.25169" lon="2.54934">
        <ele>80.8</ele>
        <time>2015-02-01T13:55:59Z</time>
      </trkpt>
      <trkpt lat="49.25173" lon="2.54941">
        <ele>81</ele>
        <time>2015-02-01T13:56:06Z</time>
      </trkpt>
      <trkpt lat="49.25181" lon="2.54949">
        <ele>81.2</ele>
        <time>2015-02-01T13:56:13Z</time>
      </trkpt>
      <trkpt lat="49.25188" lon="2.54953">
        <ele>81.2</ele>
        <time>2015-02-01T13:56:19Z</time>
      </trkpt>
      <trkpt lat="49.25196" lon="2.54956">
        <ele>81.6</ele>
        <time>2015-02-01T13:56:26Z</time>
      </trkpt>
      <trkpt lat="49.25204" lon="2.54957">
        <ele>81.6</ele>
        <time>2015-02-01T13:56:29Z</time>
      </trkpt>
      <trkpt lat="49.25211" lon="2.54959">
        <ele>82</ele>
        <time>2015-02-01T13:56:34Z</time>
      </trkpt>
      <trkpt lat="49.25219" lon="2.54961">
        <ele>82.3</ele>
        <time>2015-02-01T13:56:40Z</time>
      </trkpt>
      <trkpt lat="49.25224" lon="2.54965">
        <ele>82.8</ele>
        <time>2015-02-01T13:56:47Z</time>
      </trkpt>
      <trkpt lat="49.25232" lon="2.5497">
        <ele>83</ele>
        <time>2015-02-01T13:56:54Z</time>
      </trkpt>
      <trkpt lat="49.2524" lon="2.5497">
        <ele>83.2</ele>
        <time>2015-02-01T13:57:00Z</time>
      </trkpt>
      <trkpt lat="49.25247" lon="2.54976">
        <ele>83.3</ele>
        <time>2015-02-01T13:57:06Z</time>
      </trkpt>
      <trkpt lat="49.25253" lon="2.54983">
        <ele>83.1</ele>
        <time>2015-02-01T13:57:12Z</time>
      </trkpt>
      <trkpt lat="49.25257" lon="2.54991">
        <ele>82.1</ele>
        <time>2015-02-01T13:57:19Z</time>
      </trkpt>
      <trkpt lat="49.25258" lon="2.54992">
        <ele>82.2</ele>
        <time>2015-02-01T13:57:26Z</time>
      </trkpt>
      <trkpt lat="49.25263" lon="2.54995">
        <ele>82.8</ele>
        <time>2015-02-01T13:57:33Z</time>
      </trkpt>
      <trkpt lat="49.25271" lon="2.54996">
        <ele>83</ele>
        <time>2015-02-01T13:57:39Z</time>
      </trkpt>
      <trkpt lat="49.25278" lon="2.55001">
        <ele>83.2</ele>
        <time>2015-02-01T13:57:45Z</time>
      </trkpt>
      <trkpt lat="49.25286" lon="2.55003">
        <ele>83.2</ele>
        <time>2015-02-01T13:57:49Z</time>
      </trkpt>
      <trkpt lat="49.2529" lon="2.55006">
        <ele>83.2</ele>
        <time>2015-02-01T13:57:56Z</time>
      </trkpt>
      <trkpt lat="49.25295" lon="2.55013">
        <ele>82.7</ele>
        <time>2015-02-01T13:58:03Z</time>
      </trkpt>
      <trkpt lat="49.25302" lon="2.55015">
        <ele>81.8</ele>
        <time>2015-02-01T13:58:10Z</time>
      </trkpt>
      <trkpt lat="49.25307" lon="2.55017">
        <ele>81.3</ele>
        <time>2015-02-01T13:58:17Z</time>
      </trkpt>
      <trkpt lat="49.25314" lon="2.55018">
        <ele>81.4</ele>
        <time>2015-02-01T13:58:24Z</time>
      </trkpt>
      <trkpt lat="49.25321" lon="2.55024">
        <ele>81.4</ele>
        <time>2015-02-01T13:58:30Z</time>
      </trkpt>
      <trkpt lat="49.25323" lon="2.55026">
        <ele>80.9</ele>
        <time>2015-02-01T13:58:37Z</time>
      </trkpt>
      <trkpt lat="49.25329" lon="2.55028">
        <ele>81.4</ele>
        <time>2015-02-01T13:58:53Z</time>
      </trkpt>
      <trkpt lat="49.25335" lon="2.55033">
        <ele>81.6</ele>
        <time>2015-02-01T13:59:00Z</time>
      </trkpt>
      <trkpt lat="49.25343" lon="2.55037">
        <ele>81.6</ele>
        <time>2015-02-01T13:59:06Z</time>
      </trkpt>
      <trkpt lat="49.25347" lon="2.55041">
        <ele>81.2</ele>
        <time>2015-02-01T13:59:13Z</time>
      </trkpt>
      <trkpt lat="49.25356" lon="2.55047">
        <ele>81.1</ele>
        <time>2015-02-01T13:59:19Z</time>
      </trkpt>
      <trkpt lat="49.25363" lon="2.55053">
        <ele>81</ele>
        <time>2015-02-01T13:59:24Z</time>
      </trkpt>
      <trkpt lat="49.25371" lon="2.55056">
        <ele>80.9</ele>
        <time>2015-02-01T13:59:29Z</time>
      </trkpt>
      <trkpt lat="49.25378" lon="2.55059">
        <ele>80.9</ele>
        <time>2015-02-01T13:59:34Z</time>
      </trkpt>
      <trkpt lat="49.25386" lon="2.55063">
        <ele>80.8</ele>
        <time>2015-02-01T13:59:41Z</time>
      </trkpt>
      <trkpt lat="49.25394" lon="2.55067">
        <ele>80.7</ele>
        <time>2015-02-01T13:59:47Z</time>
      </trkpt>
      <trkpt lat="49.25402" lon="2.55071">
        <ele>80.9</ele>
        <time>2015-02-01T13:59:54Z</time>
      </trkpt>
      <trkpt lat="49.2541" lon="2.55074">
        <ele>81.1</ele>
        <time>2015-02-01T14:00:00Z</time>
      </trkpt>
      <trkpt lat="49.25418" lon="2.55077">
        <ele>81.1</ele>
        <time>2015-02-01T14:00:06Z</time>
      </trkpt>
      <trkpt lat="49.25423" lon="2.5508">
        <ele>80.9</ele>
        <time>2015-02-01T14:00:13Z</time>
      </trkpt>
      <trkpt lat="49.25429" lon="2.55086">
        <ele>80.2</ele>
        <time>2015-02-01T14:00:20Z</time>
      </trkpt>
      <trkpt lat="49.25434" lon="2.55094">
        <ele>80.3</ele>
        <time>2015-02-01T14:00:27Z</time>
      </trkpt>
      <trkpt lat="49.25434" lon="2.55093">
        <ele>80.5</ele>
        <time>2015-02-01T14:00:34Z</time>
      </trkpt>
      <trkpt lat="49.25435" lon="2.55095">
        <ele>80.4</ele>
        <time>2015-02-01T14:02:16Z</time>
      </trkpt>
      <trkpt lat="49.25439" lon="2.55102">
        <ele>80.3</ele>
        <time>2015-02-01T14:02:23Z</time>
      </trkpt>
      <trkpt lat="49.25441" lon="2.55108">
        <ele>80.2</ele>
        <time>2015-02-01T14:02:30Z</time>
      </trkpt>
      <trkpt lat="49.25446" lon="2.55114">
        <ele>80.2</ele>
        <time>2015-02-01T14:02:37Z</time>
      </trkpt>
      <trkpt lat="49.25452" lon="2.55117">
        <ele>80.4</ele>
        <time>2015-02-01T14:02:44Z</time>
      </trkpt>
      <trkpt lat="49.25459" lon="2.55122">
        <ele>80.3</ele>
        <time>2015-02-01T14:02:49Z</time>
      </trkpt>
      <trkpt lat="49.25465" lon="2.55132">
        <ele>80</ele>
        <time>2015-02-01T14:02:55Z</time>
      </trkpt>
      <trkpt lat="49.25472" lon="2.55137">
        <ele>79.8</ele>
        <time>2015-02-01T14:03:01Z</time>
      </trkpt>
      <trkpt lat="49.25479" lon="2.55142">
        <ele>79.6</ele>
        <time>2015-02-01T14:03:07Z</time>
      </trkpt>
      <trkpt lat="49.25486" lon="2.55148">
        <ele>79.4</ele>
        <time>2015-02-01T14:03:11Z</time>
      </trkpt>
      <trkpt lat="49.25493" lon="2.55153">
        <ele>78.5</ele>
        <time>2015-02-01T14:03:17Z</time>
      </trkpt>
      <trkpt lat="49.25499" lon="2.55155">
        <ele>77.5</ele>
        <time>2015-02-01T14:03:24Z</time>
      </trkpt>
      <trkpt lat="49.25504" lon="2.55162">
        <ele>77.4</ele>
        <time>2015-02-01T14:03:31Z</time>
      </trkpt>
      <trkpt lat="49.2551" lon="2.55168">
        <ele>77.3</ele>
        <time>2015-02-01T14:03:36Z</time>
      </trkpt>
      <trkpt lat="49.25518" lon="2.55174">
        <ele>77.3</ele>
        <time>2015-02-01T14:03:41Z</time>
      </trkpt>
      <trkpt lat="49.25525" lon="2.55178">
        <ele>77</ele>
        <time>2015-02-01T14:03:47Z</time>
      </trkpt>
      <trkpt lat="49.25532" lon="2.55181">
        <ele>76.7</ele>
        <time>2015-02-01T14:03:53Z</time>
      </trkpt>
      <trkpt lat="49.25538" lon="2.55186">
        <ele>77</ele>
        <time>2015-02-01T14:04:00Z</time>
      </trkpt>
      <trkpt lat="49.25545" lon="2.55192">
        <ele>76.6</ele>
        <time>2015-02-01T14:04:07Z</time>
      </trkpt>
      <trkpt lat="49.25551" lon="2.55197">
        <ele>76.3</ele>
        <time>2015-02-01T14:04:13Z</time>
      </trkpt>
      <trkpt lat="49.25559" lon="2.55202">
        <ele>76.7</ele>
        <time>2015-02-01T14:04:20Z</time>
      </trkpt>
      <trkpt lat="49.25566" lon="2.55206">
        <ele>76.8</ele>
        <time>2015-02-01T14:04:24Z</time>
      </trkpt>
      <trkpt lat="49.25572" lon="2.55212">
        <ele>77</ele>
        <time>2015-02-01T14:04:29Z</time>
      </trkpt>
      <trkpt lat="49.2558" lon="2.55215">
        <ele>76.7</ele>
        <time>2015-02-01T14:04:35Z</time>
      </trkpt>
      <trkpt lat="49.25586" lon="2.55221">
        <ele>76.3</ele>
        <time>2015-02-01T14:04:42Z</time>
      </trkpt>
      <trkpt lat="49.25593" lon="2.55226">
        <ele>76.2</ele>
        <time>2015-02-01T14:04:49Z</time>
      </trkpt>
      <trkpt lat="49.256" lon="2.55227">
        <ele>77.1</ele>
        <time>2015-02-01T14:04:56Z</time>
      </trkpt>
      <trkpt lat="49.25604" lon="2.55216">
        <ele>77.9</ele>
        <time>2015-02-01T14:05:02Z</time>
      </trkpt>
      <trkpt lat="49.25606" lon="2.55204">
        <ele>77.6</ele>
        <time>2015-02-01T14:05:07Z</time>
      </trkpt>
      <trkpt lat="49.25608" lon="2.55194">
        <ele>77.6</ele>
        <time>2015-02-01T14:05:14Z</time>
      </trkpt>
      <trkpt lat="49.25617" lon="2.55192">
        <ele>77</ele>
        <time>2015-02-01T14:05:20Z</time>
      </trkpt>
      <trkpt lat="49.25624" lon="2.55194">
        <ele>76.1</ele>
        <time>2015-02-01T14:05:27Z</time>
      </trkpt>
      <trkpt lat="49.25628" lon="2.55197">
        <ele>75.7</ele>
        <time>2015-02-01T14:05:34Z</time>
      </trkpt>
      <trkpt lat="49.25634" lon="2.55203">
        <ele>74.8</ele>
        <time>2015-02-01T14:05:50Z</time>
      </trkpt>
      <trkpt lat="49.25641" lon="2.55208">
        <ele>74.7</ele>
        <time>2015-02-01T14:05:54Z</time>
      </trkpt>
      <trkpt lat="49.25648" lon="2.55212">
        <ele>74.5</ele>
        <time>2015-02-01T14:05:59Z</time>
      </trkpt>
      <trkpt lat="49.25656" lon="2.55213">
        <ele>74.4</ele>
        <time>2015-02-01T14:06:06Z</time>
      </trkpt>
      <trkpt lat="49.25664" lon="2.55216">
        <ele>75.4</ele>
        <time>2015-02-01T14:06:12Z</time>
      </trkpt>
      <trkpt lat="49.2567" lon="2.55221">
        <ele>76.1</ele>
        <time>2015-02-01T14:06:17Z</time>
      </trkpt>
      <trkpt lat="49.25677" lon="2.55225">
        <ele>75.8</ele>
        <time>2015-02-01T14:06:23Z</time>
      </trkpt>
      <trkpt lat="49.25683" lon="2.55229">
        <ele>75.9</ele>
        <time>2015-02-01T14:06:30Z</time>
      </trkpt>
      <trkpt lat="49.2569" lon="2.55234">
        <ele>76.6</ele>
        <time>2015-02-01T14:06:35Z</time>
      </trkpt>
      <trkpt lat="49.25697" lon="2.55239">
        <ele>77.4</ele>
        <time>2015-02-01T14:06:39Z</time>
      </trkpt>
      <trkpt lat="49.25705" lon="2.55242">
        <ele>77.4</ele>
        <time>2015-02-01T14:06:44Z</time>
      </trkpt>
      <trkpt lat="49.25712" lon="2.55245">
        <ele>76.1</ele>
        <time>2015-02-01T14:06:52Z</time>
      </trkpt>
      <trkpt lat="49.25718" lon="2.5525">
        <ele>76</ele>
        <time>2015-02-01T14:06:57Z</time>
      </trkpt>
      <trkpt lat="49.25725" lon="2.55253">
        <ele>75.9</ele>
        <time>2015-02-01T14:07:04Z</time>
      </trkpt>
      <trkpt lat="49.25732" lon="2.55256">
        <ele>76</ele>
        <time>2015-02-01T14:07:09Z</time>
      </trkpt>
      <trkpt lat="49.25739" lon="2.55262">
        <ele>76.3</ele>
        <time>2015-02-01T14:07:15Z</time>
      </trkpt>
      <trkpt lat="49.25745" lon="2.55266">
        <ele>75.9</ele>
        <time>2015-02-01T14:07:22Z</time>
      </trkpt>
      <trkpt lat="49.25752" lon="2.5527">
        <ele>76</ele>
        <time>2015-02-01T14:07:27Z</time>
      </trkpt>
      <trkpt lat="49.2576" lon="2.55274">
        <ele>76.5</ele>
        <time>2015-02-01T14:07:34Z</time>
      </trkpt>
      <trkpt lat="49.25767" lon="2.55278">
        <ele>76.5</ele>
        <time>2015-02-01T14:07:40Z</time>
      </trkpt>
      <trkpt lat="49.25771" lon="2.5528">
        <ele>76.6</ele>
        <time>2015-02-01T14:07:47Z</time>
      </trkpt>
      <trkpt lat="49.25775" lon="2.55283">
        <ele>77.1</ele>
        <time>2015-02-01T14:07:54Z</time>
      </trkpt>
      <trkpt lat="49.25778" lon="2.55287">
        <ele>77.3</ele>
        <time>2015-02-01T14:08:01Z</time>
      </trkpt>
      <trkpt lat="49.25782" lon="2.55292">
        <ele>77.8</ele>
        <time>2015-02-01T14:08:08Z</time>
      </trkpt>
      <trkpt lat="49.25789" lon="2.55293">
        <ele>78.2</ele>
        <time>2015-02-01T14:08:15Z</time>
      </trkpt>
      <trkpt lat="49.25795" lon="2.55297">
        <ele>78.3</ele>
        <time>2015-02-01T14:08:22Z</time>
      </trkpt>
      <trkpt lat="49.25796" lon="2.55298">
        <ele>78.1</ele>
        <time>2015-02-01T14:08:29Z</time>
      </trkpt>
      <trkpt lat="49.25805" lon="2.55302">
        <ele>78.4</ele>
        <time>2015-02-01T14:09:40Z</time>
      </trkpt>
      <trkpt lat="49.25812" lon="2.55306">
        <ele>77.9</ele>
        <time>2015-02-01T14:09:45Z</time>
      </trkpt>
      <trkpt lat="49.25819" lon="2.55311">
        <ele>77.4</ele>
        <time>2015-02-01T14:09:51Z</time>
      </trkpt>
      <trkpt lat="49.25824" lon="2.55315">
        <ele>77.1</ele>
        <time>2015-02-01T14:09:58Z</time>
      </trkpt>
      <trkpt lat="49.25829" lon="2.55317">
        <ele>76.8</ele>
        <time>2015-02-01T14:10:05Z</time>
      </trkpt>
      <trkpt lat="49.25834" lon="2.55323">
        <ele>76.4</ele>
        <time>2015-02-01T14:10:12Z</time>
      </trkpt>
      <trkpt lat="49.25842" lon="2.55327">
        <ele>76.1</ele>
        <time>2015-02-01T14:10:18Z</time>
      </trkpt>
      <trkpt lat="49.25848" lon="2.55333">
        <ele>76.1</ele>
        <time>2015-02-01T14:10:25Z</time>
      </trkpt>
      <trkpt lat="49.25854" lon="2.55339">
        <ele>76.1</ele>
        <time>2015-02-01T14:10:30Z</time>
      </trkpt>
      <trkpt lat="49.25862" lon="2.55346">
        <ele>76.3</ele>
        <time>2015-02-01T14:10:36Z</time>
      </trkpt>
      <trkpt lat="49.2587" lon="2.55347">
        <ele>76.4</ele>
        <time>2015-02-01T14:10:42Z</time>
      </trkpt>
      <trkpt lat="49.25879" lon="2.55348">
        <ele>76.6</ele>
        <time>2015-02-01T14:10:48Z</time>
      </trkpt>
      <trkpt lat="49.25886" lon="2.55353">
        <ele>76.6</ele>
        <time>2015-02-01T14:10:55Z</time>
      </trkpt>
      <trkpt lat="49.25893" lon="2.55359">
        <ele>76.7</ele>
        <time>2015-02-01T14:11:02Z</time>
      </trkpt>
      <trkpt lat="49.25898" lon="2.55364">
        <ele>76.8</ele>
        <time>2015-02-01T14:11:09Z</time>
      </trkpt>
      <trkpt lat="49.25906" lon="2.55368">
        <ele>77</ele>
        <time>2015-02-01T14:11:16Z</time>
      </trkpt>
      <trkpt lat="49.25913" lon="2.55371">
        <ele>76.9</ele>
        <time>2015-02-01T14:11:23Z</time>
      </trkpt>
      <trkpt lat="49.25921" lon="2.55373">
        <ele>76.9</ele>
        <time>2015-02-01T14:11:30Z</time>
      </trkpt>
      <trkpt lat="49.25927" lon="2.55377">
        <ele>77</ele>
        <time>2015-02-01T14:11:36Z</time>
      </trkpt>
      <trkpt lat="49.25935" lon="2.55381">
        <ele>77.5</ele>
        <time>2015-02-01T14:11:43Z</time>
      </trkpt>
      <trkpt lat="49.25943" lon="2.55383">
        <ele>78.4</ele>
        <time>2015-02-01T14:11:48Z</time>
      </trkpt>
      <trkpt lat="49.2595" lon="2.55385">
        <ele>78.8</ele>
        <time>2015-02-01T14:11:53Z</time>
      </trkpt>
      <trkpt lat="49.25955" lon="2.55382">
        <ele>79.2</ele>
        <time>2015-02-01T14:12:00Z</time>
      </trkpt>
      <trkpt lat="49.2596" lon="2.55378">
        <ele>79.4</ele>
        <time>2015-02-01T14:12:07Z</time>
      </trkpt>
      <trkpt lat="49.25965" lon="2.55369">
        <ele>79.8</ele>
        <time>2015-02-01T14:12:14Z</time>
      </trkpt>
      <trkpt lat="49.25969" lon="2.55363">
        <ele>80.4</ele>
        <time>2015-02-01T14:12:21Z</time>
      </trkpt>
      <trkpt lat="49.25974" lon="2.5536">
        <ele>80.9</ele>
        <time>2015-02-01T14:12:28Z</time>
      </trkpt>
      <trkpt lat="49.25983" lon="2.55354">
        <ele>81</ele>
        <time>2015-02-01T14:12:34Z</time>
      </trkpt>
      <trkpt lat="49.25989" lon="2.55348">
        <ele>81</ele>
        <time>2015-02-01T14:12:40Z</time>
      </trkpt>
      <trkpt lat="49.25995" lon="2.5534">
        <ele>81.2</ele>
        <time>2015-02-01T14:12:45Z</time>
      </trkpt>
      <trkpt lat="49.26001" lon="2.55332">
        <ele>81.6</ele>
        <time>2015-02-01T14:12:52Z</time>
      </trkpt>
      <trkpt lat="49.26006" lon="2.55323">
        <ele>82</ele>
        <time>2015-02-01T14:12:57Z</time>
      </trkpt>
      <trkpt lat="49.26011" lon="2.55316">
        <ele>82.2</ele>
        <time>2015-02-01T14:13:04Z</time>
      </trkpt>
      <trkpt lat="49.26017" lon="2.55309">
        <ele>82.5</ele>
        <time>2015-02-01T14:13:09Z</time>
      </trkpt>
      <trkpt lat="49.26022" lon="2.55299">
        <ele>82.6</ele>
        <time>2015-02-01T14:13:14Z</time>
      </trkpt>
      <trkpt lat="49.26028" lon="2.55292">
        <ele>82.5</ele>
        <time>2015-02-01T14:13:19Z</time>
      </trkpt>
      <trkpt lat="49.26033" lon="2.55283">
        <ele>82.8</ele>
        <time>2015-02-01T14:13:25Z</time>
      </trkpt>
      <trkpt lat="49.26038" lon="2.55275">
        <ele>83.1</ele>
        <time>2015-02-01T14:13:32Z</time>
      </trkpt>
      <trkpt lat="49.26043" lon="2.55267">
        <ele>83.3</ele>
        <time>2015-02-01T14:13:39Z</time>
      </trkpt>
      <trkpt lat="49.26048" lon="2.55259">
        <ele>83.3</ele>
        <time>2015-02-01T14:13:45Z</time>
      </trkpt>
      <trkpt lat="49.26053" lon="2.5525">
        <ele>83.3</ele>
        <time>2015-02-01T14:13:52Z</time>
      </trkpt>
      <trkpt lat="49.26057" lon="2.5524">
        <ele>83.4</ele>
        <time>2015-02-01T14:13:58Z</time>
      </trkpt>
      <trkpt lat="49.26061" lon="2.55228">
        <ele>83.3</ele>
        <time>2015-02-01T14:14:02Z</time>
      </trkpt>
      <trkpt lat="49.26068" lon="2.55221">
        <ele>83.3</ele>
        <time>2015-02-01T14:14:08Z</time>
      </trkpt>
      <trkpt lat="49.26074" lon="2.55216">
        <ele>83.4</ele>
        <time>2015-02-01T14:14:13Z</time>
      </trkpt>
      <trkpt lat="49.2608" lon="2.55208">
        <ele>83.7</ele>
        <time>2015-02-01T14:14:20Z</time>
      </trkpt>
      <trkpt lat="49.26085" lon="2.552">
        <ele>83.9</ele>
        <time>2015-02-01T14:14:27Z</time>
      </trkpt>
      <trkpt lat="49.2609" lon="2.55194">
        <ele>84.2</ele>
        <time>2015-02-01T14:14:34Z</time>
      </trkpt>
      <trkpt lat="49.26097" lon="2.55189">
        <ele>84.4</ele>
        <time>2015-02-01T14:14:40Z</time>
      </trkpt>
      <trkpt lat="49.26104" lon="2.55181">
        <ele>84.8</ele>
        <time>2015-02-01T14:14:45Z</time>
      </trkpt>
      <trkpt lat="49.26108" lon="2.5517">
        <ele>85.3</ele>
        <time>2015-02-01T14:14:52Z</time>
      </trkpt>
      <trkpt lat="49.26113" lon="2.55162">
        <ele>85.4</ele>
        <time>2015-02-01T14:14:56Z</time>
      </trkpt>
      <trkpt lat="49.2612" lon="2.55156">
        <ele>85.5</ele>
        <time>2015-02-01T14:15:00Z</time>
      </trkpt>
      <trkpt lat="49.26127" lon="2.55152">
        <ele>85.7</ele>
        <time>2015-02-01T14:15:04Z</time>
      </trkpt>
      <trkpt lat="49.26132" lon="2.55145">
        <ele>85.8</ele>
        <time>2015-02-01T14:15:11Z</time>
      </trkpt>
      <trkpt lat="49.26137" lon="2.55136">
        <ele>85.7</ele>
        <time>2015-02-01T14:15:16Z</time>
      </trkpt>
      <trkpt lat="49.2614" lon="2.55124">
        <ele>86</ele>
        <time>2015-02-01T14:15:23Z</time>
      </trkpt>
      <trkpt lat="49.26147" lon="2.55116">
        <ele>86.2</ele>
        <time>2015-02-01T14:15:28Z</time>
      </trkpt>
      <trkpt lat="49.26152" lon="2.55107">
        <ele>86.4</ele>
        <time>2015-02-01T14:15:35Z</time>
      </trkpt>
      <trkpt lat="49.26157" lon="2.55097">
        <ele>86.7</ele>
        <time>2015-02-01T14:15:41Z</time>
      </trkpt>
      <trkpt lat="49.26162" lon="2.55089">
        <ele>87</ele>
        <time>2015-02-01T14:15:47Z</time>
      </trkpt>
      <trkpt lat="49.26166" lon="2.5508">
        <ele>87.4</ele>
        <time>2015-02-01T14:15:54Z</time>
      </trkpt>
      <trkpt lat="49.26171" lon="2.55073">
        <ele>87.5</ele>
        <time>2015-02-01T14:16:01Z</time>
      </trkpt>
      <trkpt lat="49.26177" lon="2.55065">
        <ele>87.6</ele>
        <time>2015-02-01T14:16:06Z</time>
      </trkpt>
      <trkpt lat="49.26183" lon="2.55055">
        <ele>87.7</ele>
        <time>2015-02-01T14:16:10Z</time>
      </trkpt>
      <trkpt lat="49.2619" lon="2.55047">
        <ele>88.1</ele>
        <time>2015-02-01T14:16:16Z</time>
      </trkpt>
      <trkpt lat="49.26194" lon="2.55042">
        <ele>88.5</ele>
        <time>2015-02-01T14:16:23Z</time>
      </trkpt>
      <trkpt lat="49.262" lon="2.55037">
        <ele>88.7</ele>
        <time>2015-02-01T14:16:30Z</time>
      </trkpt>
      <trkpt lat="49.26204" lon="2.55027">
        <ele>88.6</ele>
        <time>2015-02-01T14:16:35Z</time>
      </trkpt>
      <trkpt lat="49.26208" lon="2.55013">
        <ele>88.6</ele>
        <time>2015-02-01T14:16:39Z</time>
      </trkpt>
      <trkpt lat="49.26214" lon="2.55004">
        <ele>88.8</ele>
        <time>2015-02-01T14:16:43Z</time>
      </trkpt>
      <trkpt lat="49.26221" lon="2.55">
        <ele>88.9</ele>
        <time>2015-02-01T14:16:47Z</time>
      </trkpt>
      <trkpt lat="49.26223" lon="2.54991">
        <ele>88.6</ele>
        <time>2015-02-01T14:16:54Z</time>
      </trkpt>
      <trkpt lat="49.26229" lon="2.54981">
        <ele>88</ele>
        <time>2015-02-01T14:17:00Z</time>
      </trkpt>
      <trkpt lat="49.26234" lon="2.54971">
        <ele>87.8</ele>
        <time>2015-02-01T14:17:06Z</time>
      </trkpt>
      <trkpt lat="49.26235" lon="2.54959">
        <ele>87.2</ele>
        <time>2015-02-01T14:17:11Z</time>
      </trkpt>
      <trkpt lat="49.2624" lon="2.5495">
        <ele>86.7</ele>
        <time>2015-02-01T14:17:17Z</time>
      </trkpt>
      <trkpt lat="49.26242" lon="2.54939">
        <ele>86.6</ele>
        <time>2015-02-01T14:17:22Z</time>
      </trkpt>
      <trkpt lat="49.26241" lon="2.54927">
        <ele>85.5</ele>
        <time>2015-02-01T14:17:29Z</time>
      </trkpt>
      <trkpt lat="49.26242" lon="2.54916">
        <ele>85.1</ele>
        <time>2015-02-01T14:17:34Z</time>
      </trkpt>
      <trkpt lat="49.26245" lon="2.54905">
        <ele>84.5</ele>
        <time>2015-02-01T14:17:38Z</time>
      </trkpt>
      <trkpt lat="49.26246" lon="2.54892">
        <ele>83.5</ele>
        <time>2015-02-01T14:17:45Z</time>
      </trkpt>
      <trkpt lat="49.26245" lon="2.54881">
        <ele>83</ele>
        <time>2015-02-01T14:17:51Z</time>
      </trkpt>
      <trkpt lat="49.26248" lon="2.5487">
        <ele>82</ele>
        <time>2015-02-01T14:17:57Z</time>
      </trkpt>
      <trkpt lat="49.2625" lon="2.54857">
        <ele>79.9</ele>
        <time>2015-02-01T14:18:04Z</time>
      </trkpt>
      <trkpt lat="49.26253" lon="2.54846">
        <ele>79.5</ele>
        <time>2015-02-01T14:18:09Z</time>
      </trkpt>
      <trkpt lat="49.26256" lon="2.54837">
        <ele>79.1</ele>
        <time>2015-02-01T14:18:16Z</time>
      </trkpt>
      <trkpt lat="49.26257" lon="2.54824">
        <ele>78.9</ele>
        <time>2015-02-01T14:18:22Z</time>
      </trkpt>
      <trkpt lat="49.26259" lon="2.54812">
        <ele>78.5</ele>
        <time>2015-02-01T14:18:27Z</time>
      </trkpt>
      <trkpt lat="49.26261" lon="2.54802">
        <ele>77.9</ele>
        <time>2015-02-01T14:18:31Z</time>
      </trkpt>
      <trkpt lat="49.26264" lon="2.54794">
        <ele>77.5</ele>
        <time>2015-02-01T14:18:38Z</time>
      </trkpt>
      <trkpt lat="49.26267" lon="2.54782">
        <ele>77.6</ele>
        <time>2015-02-01T14:18:44Z</time>
      </trkpt>
      <trkpt lat="49.2627" lon="2.54772">
        <ele>77.5</ele>
        <time>2015-02-01T14:18:50Z</time>
      </trkpt>
      <trkpt lat="49.26272" lon="2.54761">
        <ele>77</ele>
        <time>2015-02-01T14:18:57Z</time>
      </trkpt>
      <trkpt lat="49.26273" lon="2.54749">
        <ele>77</ele>
        <time>2015-02-01T14:19:03Z</time>
      </trkpt>
      <trkpt lat="49.26275" lon="2.54738">
        <ele>77</ele>
        <time>2015-02-01T14:19:10Z</time>
      </trkpt>
      <trkpt lat="49.26277" lon="2.54737">
        <ele>77.9</ele>
        <time>2015-02-01T14:19:46Z</time>
      </trkpt>
      <trkpt lat="49.2628" lon="2.54736">
        <ele>78.5</ele>
        <time>2015-02-01T14:19:53Z</time>
      </trkpt>
      <trkpt lat="49.26283" lon="2.54737">
        <ele>78.6</ele>
        <time>2015-02-01T14:20:00Z</time>
      </trkpt>
      <trkpt lat="49.26276" lon="2.54737">
        <ele>80.1</ele>
        <time>2015-02-01T14:20:16Z</time>
      </trkpt>
      <trkpt lat="49.26282" lon="2.54737">
        <ele>79.9</ele>
        <time>2015-02-01T14:20:29Z</time>
      </trkpt>
      <trkpt lat="49.26282" lon="2.5474">
        <ele>80</ele>
        <time>2015-02-01T14:20:48Z</time>
      </trkpt>
      <trkpt lat="49.26282" lon="2.54739">
        <ele>80</ele>
        <time>2015-02-01T14:20:55Z</time>
      </trkpt>
      <trkpt lat="49.26283" lon="2.54736">
        <ele>80.3</ele>
        <time>2015-02-01T14:21:25Z</time>
      </trkpt>
      <trkpt lat="49.2628" lon="2.54742">
        <ele>80.3</ele>
        <time>2015-02-01T14:21:55Z</time>
      </trkpt>
      <trkpt lat="49.26278" lon="2.54733">
        <ele>81.3</ele>
        <time>2015-02-01T14:22:16Z</time>
      </trkpt>
      <trkpt lat="49.26275" lon="2.54733">
        <ele>82</ele>
        <time>2015-02-01T14:22:32Z</time>
      </trkpt>
      <trkpt lat="49.26277" lon="2.54722">
        <ele>80.1</ele>
        <time>2015-02-01T14:22:57Z</time>
      </trkpt>
      <trkpt lat="49.26282" lon="2.54713">
        <ele>79.5</ele>
        <time>2015-02-01T14:23:01Z</time>
      </trkpt>
      <trkpt lat="49.26285" lon="2.54702">
        <ele>79.1</ele>
        <time>2015-02-01T14:23:07Z</time>
      </trkpt>
      <trkpt lat="49.26288" lon="2.54693">
        <ele>78.9</ele>
        <time>2015-02-01T14:23:14Z</time>
      </trkpt>
      <trkpt lat="49.26292" lon="2.54683">
        <ele>79.2</ele>
        <time>2015-02-01T14:23:20Z</time>
      </trkpt>
      <trkpt lat="49.26298" lon="2.54675">
        <ele>79.3</ele>
        <time>2015-02-01T14:23:27Z</time>
      </trkpt>
      <trkpt lat="49.26303" lon="2.54667">
        <ele>79.4</ele>
        <time>2015-02-01T14:23:34Z</time>
      </trkpt>
      <trkpt lat="49.26306" lon="2.54656">
        <ele>79</ele>
        <time>2015-02-01T14:23:40Z</time>
      </trkpt>
      <trkpt lat="49.26312" lon="2.54648">
        <ele>79</ele>
        <time>2015-02-01T14:23:45Z</time>
      </trkpt>
      <trkpt lat="49.26316" lon="2.5464">
        <ele>78.4</ele>
        <time>2015-02-01T14:23:52Z</time>
      </trkpt>
      <trkpt lat="49.2632" lon="2.54631">
        <ele>78.5</ele>
        <time>2015-02-01T14:23:59Z</time>
      </trkpt>
      <trkpt lat="49.26324" lon="2.54622">
        <ele>78.8</ele>
        <time>2015-02-01T14:24:05Z</time>
      </trkpt>
      <trkpt lat="49.26329" lon="2.54613">
        <ele>79</ele>
        <time>2015-02-01T14:24:10Z</time>
      </trkpt>
      <trkpt lat="49.26335" lon="2.54605">
        <ele>78.8</ele>
        <time>2015-02-01T14:24:15Z</time>
      </trkpt>
      <trkpt lat="49.2634" lon="2.54595">
        <ele>78.8</ele>
        <time>2015-02-01T14:24:22Z</time>
      </trkpt>
      <trkpt lat="49.26344" lon="2.54585">
        <ele>78.5</ele>
        <time>2015-02-01T14:24:28Z</time>
      </trkpt>
      <trkpt lat="49.2635" lon="2.54577">
        <ele>78.5</ele>
        <time>2015-02-01T14:24:34Z</time>
      </trkpt>
      <trkpt lat="49.26355" lon="2.54568">
        <ele>78</ele>
        <time>2015-02-01T14:24:40Z</time>
      </trkpt>
      <trkpt lat="49.2636" lon="2.54557">
        <ele>77.8</ele>
        <time>2015-02-01T14:24:46Z</time>
      </trkpt>
      <trkpt lat="49.26365" lon="2.54547">
        <ele>77.9</ele>
        <time>2015-02-01T14:24:52Z</time>
      </trkpt>
      <trkpt lat="49.2637" lon="2.54539">
        <ele>77.9</ele>
        <time>2015-02-01T14:24:58Z</time>
      </trkpt>
      <trkpt lat="49.26375" lon="2.54529">
        <ele>78</ele>
        <time>2015-02-01T14:25:05Z</time>
      </trkpt>
      <trkpt lat="49.26379" lon="2.54521">
        <ele>78</ele>
        <time>2015-02-01T14:25:12Z</time>
      </trkpt>
      <trkpt lat="49.26385" lon="2.54513">
        <ele>77.9</ele>
        <time>2015-02-01T14:25:17Z</time>
      </trkpt>
      <trkpt lat="49.26389" lon="2.54505">
        <ele>78.1</ele>
        <time>2015-02-01T14:25:24Z</time>
      </trkpt>
      <trkpt lat="49.26394" lon="2.54496">
        <ele>78.4</ele>
        <time>2015-02-01T14:25:29Z</time>
      </trkpt>
      <trkpt lat="49.26399" lon="2.54486">
        <ele>78.8</ele>
        <time>2015-02-01T14:25:34Z</time>
      </trkpt>
      <trkpt lat="49.26403" lon="2.54476">
        <ele>78.5</ele>
        <time>2015-02-01T14:25:41Z</time>
      </trkpt>
      <trkpt lat="49.26408" lon="2.54468">
        <ele>78.4</ele>
        <time>2015-02-01T14:25:48Z</time>
      </trkpt>
      <trkpt lat="49.26413" lon="2.5446">
        <ele>78.1</ele>
        <time>2015-02-01T14:25:53Z</time>
      </trkpt>
      <trkpt lat="49.26418" lon="2.54452">
        <ele>77.4</ele>
        <time>2015-02-01T14:26:00Z</time>
      </trkpt>
      <trkpt lat="49.26423" lon="2.54443">
        <ele>77.3</ele>
        <time>2015-02-01T14:26:05Z</time>
      </trkpt>
      <trkpt lat="49.26429" lon="2.54434">
        <ele>76.6</ele>
        <time>2015-02-01T14:26:12Z</time>
      </trkpt>
      <trkpt lat="49.26434" lon="2.54425">
        <ele>75.7</ele>
        <time>2015-02-01T14:26:17Z</time>
      </trkpt>
      <trkpt lat="49.26439" lon="2.54417">
        <ele>74.9</ele>
        <time>2015-02-01T14:26:23Z</time>
      </trkpt>
      <trkpt lat="49.26444" lon="2.54409">
        <ele>74.4</ele>
        <time>2015-02-01T14:26:29Z</time>
      </trkpt>
      <trkpt lat="49.26449" lon="2.54401">
        <ele>74.6</ele>
        <time>2015-02-01T14:26:34Z</time>
      </trkpt>
      <trkpt lat="49.26453" lon="2.5439">
        <ele>74.2</ele>
        <time>2015-02-01T14:26:41Z</time>
      </trkpt>
      <trkpt lat="49.26458" lon="2.54381">
        <ele>74.2</ele>
        <time>2015-02-01T14:26:46Z</time>
      </trkpt>
      <trkpt lat="49.26464" lon="2.54373">
        <ele>74.8</ele>
        <time>2015-02-01T14:26:53Z</time>
      </trkpt>
      <trkpt lat="49.2647" lon="2.54364">
        <ele>74.9</ele>
        <time>2015-02-01T14:27:00Z</time>
      </trkpt>
      <trkpt lat="49.26476" lon="2.54355">
        <ele>74.9</ele>
        <time>2015-02-01T14:27:05Z</time>
      </trkpt>
      <trkpt lat="49.26477" lon="2.54343">
        <ele>75.2</ele>
        <time>2015-02-01T14:27:12Z</time>
      </trkpt>
      <trkpt lat="49.26479" lon="2.54334">
        <ele>75.6</ele>
        <time>2015-02-01T14:27:19Z</time>
      </trkpt>
      <trkpt lat="49.26485" lon="2.54326">
        <ele>75.7</ele>
        <time>2015-02-01T14:27:24Z</time>
      </trkpt>
      <trkpt lat="49.26491" lon="2.54319">
        <ele>76</ele>
        <time>2015-02-01T14:27:28Z</time>
      </trkpt>
      <trkpt lat="49.26497" lon="2.54309">
        <ele>76.6</ele>
        <time>2015-02-01T14:27:33Z</time>
      </trkpt>
      <trkpt lat="49.26502" lon="2.543">
        <ele>77.2</ele>
        <time>2015-02-01T14:27:38Z</time>
      </trkpt>
      <trkpt lat="49.26507" lon="2.5429">
        <ele>78</ele>
        <time>2015-02-01T14:27:43Z</time>
      </trkpt>
      <trkpt lat="49.26513" lon="2.54281">
        <ele>78.8</ele>
        <time>2015-02-01T14:27:49Z</time>
      </trkpt>
      <trkpt lat="49.26518" lon="2.5427">
        <ele>78.1</ele>
        <time>2015-02-01T14:27:54Z</time>
      </trkpt>
      <trkpt lat="49.26524" lon="2.54262">
        <ele>77.2</ele>
        <time>2015-02-01T14:28:00Z</time>
      </trkpt>
      <trkpt lat="49.26528" lon="2.54254">
        <ele>76.9</ele>
        <time>2015-02-01T14:28:07Z</time>
      </trkpt>
      <trkpt lat="49.26534" lon="2.54244">
        <ele>77.8</ele>
        <time>2015-02-01T14:28:14Z</time>
      </trkpt>
      <trkpt lat="49.26539" lon="2.54235">
        <ele>78.8</ele>
        <time>2015-02-01T14:28:19Z</time>
      </trkpt>
      <trkpt lat="49.26544" lon="2.54227">
        <ele>79.5</ele>
        <time>2015-02-01T14:28:24Z</time>
      </trkpt>
      <trkpt lat="49.26548" lon="2.54217">
        <ele>79.9</ele>
        <time>2015-02-01T14:28:30Z</time>
      </trkpt>
      <trkpt lat="49.26555" lon="2.54208">
        <ele>80.2</ele>
        <time>2015-02-01T14:28:35Z</time>
      </trkpt>
      <trkpt lat="49.26559" lon="2.54198">
        <ele>80</ele>
        <time>2015-02-01T14:28:40Z</time>
      </trkpt>
      <trkpt lat="49.26563" lon="2.54188">
        <ele>78.7</ele>
        <time>2015-02-01T14:28:47Z</time>
      </trkpt>
      <trkpt lat="49.26567" lon="2.54178">
        <ele>78.4</ele>
        <time>2015-02-01T14:28:54Z</time>
      </trkpt>
      <trkpt lat="49.26572" lon="2.54168">
        <ele>78.5</ele>
        <time>2015-02-01T14:28:59Z</time>
      </trkpt>
      <trkpt lat="49.26577" lon="2.54159">
        <ele>78.5</ele>
        <time>2015-02-01T14:29:06Z</time>
      </trkpt>
      <trkpt lat="49.26582" lon="2.54152">
        <ele>78.2</ele>
        <time>2015-02-01T14:29:13Z</time>
      </trkpt>
      <trkpt lat="49.26588" lon="2.54142">
        <ele>78.4</ele>
        <time>2015-02-01T14:29:18Z</time>
      </trkpt>
      <trkpt lat="49.26594" lon="2.54133">
        <ele>78.5</ele>
        <time>2015-02-01T14:29:23Z</time>
      </trkpt>
      <trkpt lat="49.26599" lon="2.54125">
        <ele>78.6</ele>
        <time>2015-02-01T14:29:28Z</time>
      </trkpt>
      <trkpt lat="49.26604" lon="2.54115">
        <ele>78.7</ele>
        <time>2015-02-01T14:29:35Z</time>
      </trkpt>
      <trkpt lat="49.26609" lon="2.54105">
        <ele>78.6</ele>
        <time>2015-02-01T14:29:42Z</time>
      </trkpt>
      <trkpt lat="49.26615" lon="2.54097">
        <ele>78.6</ele>
        <time>2015-02-01T14:29:47Z</time>
      </trkpt>
      <trkpt lat="49.26616" lon="2.54092">
        <ele>79.2</ele>
        <time>2015-02-01T14:29:54Z</time>
      </trkpt>
      <trkpt lat="49.2662" lon="2.54086">
        <ele>79.5</ele>
        <time>2015-02-01T14:30:01Z</time>
      </trkpt>
      <trkpt lat="49.26623" lon="2.54076">
        <ele>79.9</ele>
        <time>2015-02-01T14:30:08Z</time>
      </trkpt>
      <trkpt lat="49.26629" lon="2.54068">
        <ele>79.9</ele>
        <time>2015-02-01T14:30:14Z</time>
      </trkpt>
      <trkpt lat="49.26635" lon="2.54059">
        <ele>79.6</ele>
        <time>2015-02-01T14:30:19Z</time>
      </trkpt>
      <trkpt lat="49.26639" lon="2.5405">
        <ele>79.4</ele>
        <time>2015-02-01T14:30:25Z</time>
      </trkpt>
      <trkpt lat="49.26644" lon="2.54042">
        <ele>79.4</ele>
        <time>2015-02-01T14:30:31Z</time>
      </trkpt>
      <trkpt lat="49.26648" lon="2.54032">
        <ele>79.4</ele>
        <time>2015-02-01T14:30:36Z</time>
      </trkpt>
      <trkpt lat="49.26653" lon="2.54023">
        <ele>79.1</ele>
        <time>2015-02-01T14:30:43Z</time>
      </trkpt>
      <trkpt lat="49.26657" lon="2.54016">
        <ele>78.6</ele>
        <time>2015-02-01T14:30:50Z</time>
      </trkpt>
      <trkpt lat="49.26661" lon="2.54008">
        <ele>77.9</ele>
        <time>2015-02-01T14:30:57Z</time>
      </trkpt>
      <trkpt lat="49.26665" lon="2.53998">
        <ele>77.9</ele>
        <time>2015-02-01T14:31:02Z</time>
      </trkpt>
      <trkpt lat="49.2667" lon="2.53989">
        <ele>78</ele>
        <time>2015-02-01T14:31:07Z</time>
      </trkpt>
      <trkpt lat="49.26675" lon="2.53979">
        <ele>77.8</ele>
        <time>2015-02-01T14:31:14Z</time>
      </trkpt>
      <trkpt lat="49.26679" lon="2.53969">
        <ele>78</ele>
        <time>2015-02-01T14:31:19Z</time>
      </trkpt>
      <trkpt lat="49.26684" lon="2.5396">
        <ele>78.6</ele>
        <time>2015-02-01T14:31:25Z</time>
      </trkpt>
      <trkpt lat="49.26687" lon="2.5395">
        <ele>78.9</ele>
        <time>2015-02-01T14:31:31Z</time>
      </trkpt>
      <trkpt lat="49.26692" lon="2.53941">
        <ele>79</ele>
        <time>2015-02-01T14:31:37Z</time>
      </trkpt>
      <trkpt lat="49.26698" lon="2.53935">
        <ele>79.3</ele>
        <time>2015-02-01T14:31:43Z</time>
      </trkpt>
      <trkpt lat="49.26704" lon="2.53927">
        <ele>79.8</ele>
        <time>2015-02-01T14:31:47Z</time>
      </trkpt>
      <trkpt lat="49.26709" lon="2.5392">
        <ele>79.6</ele>
        <time>2015-02-01T14:31:52Z</time>
      </trkpt>
      <trkpt lat="49.26713" lon="2.53912">
        <ele>79.3</ele>
        <time>2015-02-01T14:31:59Z</time>
      </trkpt>
      <trkpt lat="49.26717" lon="2.53903">
        <ele>78.6</ele>
        <time>2015-02-01T14:32:04Z</time>
      </trkpt>
      <trkpt lat="49.26722" lon="2.53894">
        <ele>77.5</ele>
        <time>2015-02-01T14:32:11Z</time>
      </trkpt>
      <trkpt lat="49.26727" lon="2.53884">
        <ele>77.7</ele>
        <time>2015-02-01T14:32:17Z</time>
      </trkpt>
      <trkpt lat="49.2673" lon="2.53874">
        <ele>77.2</ele>
        <time>2015-02-01T14:32:23Z</time>
      </trkpt>
      <trkpt lat="49.26729" lon="2.53867">
        <ele>76.9</ele>
        <time>2015-02-01T14:32:30Z</time>
      </trkpt>
      <trkpt lat="49.26725" lon="2.53865">
        <ele>76.7</ele>
        <time>2015-02-01T14:33:54Z</time>
      </trkpt>
      <trkpt lat="49.26729" lon="2.53869">
        <ele>76.2</ele>
        <time>2015-02-01T14:33:41Z</time>
      </trkpt>
      <trkpt lat="49.26734" lon="2.53862">
        <ele>75.9</ele>
        <time>2015-02-01T14:36:44Z</time>
      </trkpt>
      <trkpt lat="49.26737" lon="2.53852">
        <ele>75.9</ele>
        <time>2015-02-01T14:36:51Z</time>
      </trkpt>
      <trkpt lat="49.26738" lon="2.53848">
        <ele>76</ele>
        <time>2015-02-01T14:36:58Z</time>
      </trkpt>
      <trkpt lat="49.2674" lon="2.53838">
        <ele>76.2</ele>
        <time>2015-02-01T14:37:17Z</time>
      </trkpt>
      <trkpt lat="49.26743" lon="2.53827">
        <ele>76.3</ele>
        <time>2015-02-01T14:37:24Z</time>
      </trkpt>
      <trkpt lat="49.26746" lon="2.53817">
        <ele>76.3</ele>
        <time>2015-02-01T14:37:29Z</time>
      </trkpt>
      <trkpt lat="49.26749" lon="2.53806">
        <ele>76.2</ele>
        <time>2015-02-01T14:37:35Z</time>
      </trkpt>
      <trkpt lat="49.26751" lon="2.53795">
        <ele>76.3</ele>
        <time>2015-02-01T14:37:41Z</time>
      </trkpt>
      <trkpt lat="49.26752" lon="2.53782">
        <ele>75.9</ele>
        <time>2015-02-01T14:37:47Z</time>
      </trkpt>
      <trkpt lat="49.26753" lon="2.53769">
        <ele>75.4</ele>
        <time>2015-02-01T14:37:53Z</time>
      </trkpt>
      <trkpt lat="49.26753" lon="2.53758">
        <ele>74.9</ele>
        <time>2015-02-01T14:37:59Z</time>
      </trkpt>
      <trkpt lat="49.26753" lon="2.53745">
        <ele>74.6</ele>
        <time>2015-02-01T14:38:05Z</time>
      </trkpt>
      <trkpt lat="49.26751" lon="2.53734">
        <ele>74</ele>
        <time>2015-02-01T14:38:12Z</time>
      </trkpt>
      <trkpt lat="49.26751" lon="2.53722">
        <ele>73.1</ele>
        <time>2015-02-01T14:38:19Z</time>
      </trkpt>
      <trkpt lat="49.26752" lon="2.5371">
        <ele>72.3</ele>
        <time>2015-02-01T14:38:25Z</time>
      </trkpt>
      <trkpt lat="49.26752" lon="2.53699">
        <ele>71.9</ele>
        <time>2015-02-01T14:38:31Z</time>
      </trkpt>
      <trkpt lat="49.26752" lon="2.53688">
        <ele>71.7</ele>
        <time>2015-02-01T14:38:37Z</time>
      </trkpt>
      <trkpt lat="49.26751" lon="2.53676">
        <ele>71.3</ele>
        <time>2015-02-01T14:38:43Z</time>
      </trkpt>
      <trkpt lat="49.26752" lon="2.53664">
        <ele>70.7</ele>
        <time>2015-02-01T14:38:50Z</time>
      </trkpt>
      <trkpt lat="49.26753" lon="2.53652">
        <ele>70.6</ele>
        <time>2015-02-01T14:38:56Z</time>
      </trkpt>
      <trkpt lat="49.26753" lon="2.53641">
        <ele>71.4</ele>
        <time>2015-02-01T14:39:02Z</time>
      </trkpt>
      <trkpt lat="49.26753" lon="2.53628">
        <ele>71.7</ele>
        <time>2015-02-01T14:39:09Z</time>
      </trkpt>
      <trkpt lat="49.26753" lon="2.53616">
        <ele>71.9</ele>
        <time>2015-02-01T14:39:15Z</time>
      </trkpt>
      <trkpt lat="49.26753" lon="2.53605">
        <ele>71.9</ele>
        <time>2015-02-01T14:39:21Z</time>
      </trkpt>
      <trkpt lat="49.26755" lon="2.53593">
        <ele>71.9</ele>
        <time>2015-02-01T14:39:27Z</time>
      </trkpt>
      <trkpt lat="49.26757" lon="2.53583">
        <ele>72.5</ele>
        <time>2015-02-01T14:39:34Z</time>
      </trkpt>
      <trkpt lat="49.26758" lon="2.53571">
        <ele>74.2</ele>
        <time>2015-02-01T14:39:41Z</time>
      </trkpt>
      <trkpt lat="49.26761" lon="2.53561">
        <ele>75.2</ele>
        <time>2015-02-01T14:39:48Z</time>
      </trkpt>
      <trkpt lat="49.26766" lon="2.5355">
        <ele>75.8</ele>
        <time>2015-02-01T14:39:54Z</time>
      </trkpt>
      <trkpt lat="49.26767" lon="2.53538">
        <ele>75.8</ele>
        <time>2015-02-01T14:40:00Z</time>
      </trkpt>
      <trkpt lat="49.2677" lon="2.53528">
        <ele>75.2</ele>
        <time>2015-02-01T14:40:06Z</time>
      </trkpt>
      <trkpt lat="49.26773" lon="2.53518">
        <ele>74.8</ele>
        <time>2015-02-01T14:40:13Z</time>
      </trkpt>
      <trkpt lat="49.26777" lon="2.53506">
        <ele>74.4</ele>
        <time>2015-02-01T14:40:19Z</time>
      </trkpt>
      <trkpt lat="49.2678" lon="2.53494">
        <ele>74.3</ele>
        <time>2015-02-01T14:40:24Z</time>
      </trkpt>
      <trkpt lat="49.26783" lon="2.53486">
        <ele>74.2</ele>
        <time>2015-02-01T14:40:31Z</time>
      </trkpt>
      <trkpt lat="49.26787" lon="2.53475">
        <ele>74.7</ele>
        <time>2015-02-01T14:40:37Z</time>
      </trkpt>
      <trkpt lat="49.26789" lon="2.53465">
        <ele>75</ele>
        <time>2015-02-01T14:40:44Z</time>
      </trkpt>
      <trkpt lat="49.26792" lon="2.53455">
        <ele>75.2</ele>
        <time>2015-02-01T14:40:49Z</time>
      </trkpt>
      <trkpt lat="49.26796" lon="2.53445">
        <ele>75</ele>
        <time>2015-02-01T14:40:53Z</time>
      </trkpt>
      <trkpt lat="49.26797" lon="2.53435">
        <ele>75</ele>
        <time>2015-02-01T14:41:00Z</time>
      </trkpt>
      <trkpt lat="49.26799" lon="2.53423">
        <ele>74.7</ele>
        <time>2015-02-01T14:41:06Z</time>
      </trkpt>
      <trkpt lat="49.26802" lon="2.53412">
        <ele>74.6</ele>
        <time>2015-02-01T14:41:11Z</time>
      </trkpt>
      <trkpt lat="49.26807" lon="2.53402">
        <ele>74.4</ele>
        <time>2015-02-01T14:41:17Z</time>
      </trkpt>
      <trkpt lat="49.26811" lon="2.5339">
        <ele>74.1</ele>
        <time>2015-02-01T14:41:24Z</time>
      </trkpt>
      <trkpt lat="49.26815" lon="2.53381">
        <ele>74.2</ele>
        <time>2015-02-01T14:41:29Z</time>
      </trkpt>
      <trkpt lat="49.2682" lon="2.53371">
        <ele>74.1</ele>
        <time>2015-02-01T14:41:33Z</time>
      </trkpt>
      <trkpt lat="49.2682" lon="2.5336">
        <ele>74.4</ele>
        <time>2015-02-01T14:41:40Z</time>
      </trkpt>
      <trkpt lat="49.2682" lon="2.53348">
        <ele>74.1</ele>
        <time>2015-02-01T14:41:45Z</time>
      </trkpt>
      <trkpt lat="49.26823" lon="2.53337">
        <ele>74.2</ele>
        <time>2015-02-01T14:41:50Z</time>
      </trkpt>
      <trkpt lat="49.26828" lon="2.53327">
        <ele>74.4</ele>
        <time>2015-02-01T14:41:56Z</time>
      </trkpt>
      <trkpt lat="49.26829" lon="2.53315">
        <ele>74.6</ele>
        <time>2015-02-01T14:42:02Z</time>
      </trkpt>
      <trkpt lat="49.26832" lon="2.53304">
        <ele>74.7</ele>
        <time>2015-02-01T14:42:07Z</time>
      </trkpt>
      <trkpt lat="49.26836" lon="2.53293">
        <ele>74.4</ele>
        <time>2015-02-01T14:42:13Z</time>
      </trkpt>
      <trkpt lat="49.26838" lon="2.53284">
        <ele>73.5</ele>
        <time>2015-02-01T14:42:20Z</time>
      </trkpt>
      <trkpt lat="49.26842" lon="2.53271">
        <ele>73.7</ele>
        <time>2015-02-01T14:42:26Z</time>
      </trkpt>
      <trkpt lat="49.26846" lon="2.53262">
        <ele>73.9</ele>
        <time>2015-02-01T14:42:31Z</time>
      </trkpt>
      <trkpt lat="49.26849" lon="2.53251">
        <ele>73.9</ele>
        <time>2015-02-01T14:42:36Z</time>
      </trkpt>
      <trkpt lat="49.26852" lon="2.53241">
        <ele>74.5</ele>
        <time>2015-02-01T14:42:42Z</time>
      </trkpt>
      <trkpt lat="49.26856" lon="2.53231">
        <ele>74.9</ele>
        <time>2015-02-01T14:42:48Z</time>
      </trkpt>
      <trkpt lat="49.26857" lon="2.5322">
        <ele>75</ele>
        <time>2015-02-01T14:42:53Z</time>
      </trkpt>
      <trkpt lat="49.26861" lon="2.53208">
        <ele>75</ele>
        <time>2015-02-01T14:43:00Z</time>
      </trkpt>
      <trkpt lat="49.26866" lon="2.532">
        <ele>75.2</ele>
        <time>2015-02-01T14:43:06Z</time>
      </trkpt>
      <trkpt lat="49.26866" lon="2.53193">
        <ele>75.4</ele>
        <time>2015-02-01T14:43:13Z</time>
      </trkpt>
      <trkpt lat="49.2687" lon="2.53183">
        <ele>76</ele>
        <time>2015-02-01T14:43:19Z</time>
      </trkpt>
      <trkpt lat="49.26872" lon="2.53172">
        <ele>77</ele>
        <time>2015-02-01T14:43:25Z</time>
      </trkpt>
      <trkpt lat="49.26874" lon="2.53163">
        <ele>78.1</ele>
        <time>2015-02-01T14:43:32Z</time>
      </trkpt>
      <trkpt lat="49.26879" lon="2.53153">
        <ele>79.1</ele>
        <time>2015-02-01T14:43:39Z</time>
      </trkpt>
      <trkpt lat="49.26883" lon="2.53143">
        <ele>80.4</ele>
        <time>2015-02-01T14:43:46Z</time>
      </trkpt>
      <trkpt lat="49.26887" lon="2.53131">
        <ele>81.2</ele>
        <time>2015-02-01T14:43:51Z</time>
      </trkpt>
      <trkpt lat="49.26888" lon="2.5312">
        <ele>81.7</ele>
        <time>2015-02-01T14:43:56Z</time>
      </trkpt>
      <trkpt lat="49.26892" lon="2.53109">
        <ele>82.8</ele>
        <time>2015-02-01T14:44:03Z</time>
      </trkpt>
      <trkpt lat="49.26894" lon="2.531">
        <ele>83.8</ele>
        <time>2015-02-01T14:44:10Z</time>
      </trkpt>
      <trkpt lat="49.26899" lon="2.53091">
        <ele>84.2</ele>
        <time>2015-02-01T14:44:15Z</time>
      </trkpt>
      <trkpt lat="49.26901" lon="2.5308">
        <ele>84.6</ele>
        <time>2015-02-01T14:44:21Z</time>
      </trkpt>
      <trkpt lat="49.26904" lon="2.53068">
        <ele>84.8</ele>
        <time>2015-02-01T14:44:25Z</time>
      </trkpt>
      <trkpt lat="49.26908" lon="2.53058">
        <ele>84.6</ele>
        <time>2015-02-01T14:44:29Z</time>
      </trkpt>
      <trkpt lat="49.2691" lon="2.53047">
        <ele>84.6</ele>
        <time>2015-02-01T14:44:34Z</time>
      </trkpt>
      <trkpt lat="49.26911" lon="2.53036">
        <ele>84.7</ele>
        <time>2015-02-01T14:44:40Z</time>
      </trkpt>
      <trkpt lat="49.26913" lon="2.53024">
        <ele>84.9</ele>
        <time>2015-02-01T14:44:47Z</time>
      </trkpt>
      <trkpt lat="49.26917" lon="2.53015">
        <ele>85.7</ele>
        <time>2015-02-01T14:44:54Z</time>
      </trkpt>
      <trkpt lat="49.2692" lon="2.53002">
        <ele>86.2</ele>
        <time>2015-02-01T14:44:59Z</time>
      </trkpt>
      <trkpt lat="49.26924" lon="2.52991">
        <ele>86.3</ele>
        <time>2015-02-01T14:45:05Z</time>
      </trkpt>
      <trkpt lat="49.26927" lon="2.5298">
        <ele>86.2</ele>
        <time>2015-02-01T14:45:10Z</time>
      </trkpt>
      <trkpt lat="49.26928" lon="2.5297">
        <ele>86.5</ele>
        <time>2015-02-01T14:45:17Z</time>
      </trkpt>
      <trkpt lat="49.26928" lon="2.52961">
        <ele>86.5</ele>
        <time>2015-02-01T14:45:24Z</time>
      </trkpt>
      <trkpt lat="49.26929" lon="2.52953">
        <ele>85.7</ele>
        <time>2015-02-01T14:45:31Z</time>
      </trkpt>
      <trkpt lat="49.26931" lon="2.52942">
        <ele>85.6</ele>
        <time>2015-02-01T14:45:36Z</time>
      </trkpt>
      <trkpt lat="49.26934" lon="2.52931">
        <ele>85.2</ele>
        <time>2015-02-01T14:45:42Z</time>
      </trkpt>
      <trkpt lat="49.26937" lon="2.52922">
        <ele>84.5</ele>
        <time>2015-02-01T14:45:49Z</time>
      </trkpt>
      <trkpt lat="49.26939" lon="2.52911">
        <ele>84.1</ele>
        <time>2015-02-01T14:45:54Z</time>
      </trkpt>
      <trkpt lat="49.26942" lon="2.529">
        <ele>84.1</ele>
        <time>2015-02-01T14:45:59Z</time>
      </trkpt>
      <trkpt lat="49.26945" lon="2.52889">
        <ele>84.3</ele>
        <time>2015-02-01T14:46:04Z</time>
      </trkpt>
      <trkpt lat="49.26949" lon="2.52881">
        <ele>83.5</ele>
        <time>2015-02-01T14:46:11Z</time>
      </trkpt>
      <trkpt lat="49.26954" lon="2.52872">
        <ele>82.8</ele>
        <time>2015-02-01T14:46:18Z</time>
      </trkpt>
      <trkpt lat="49.26959" lon="2.52865">
        <ele>82.3</ele>
        <time>2015-02-01T14:46:23Z</time>
      </trkpt>
      <trkpt lat="49.26964" lon="2.52856">
        <ele>81.1</ele>
        <time>2015-02-01T14:46:29Z</time>
      </trkpt>
      <trkpt lat="49.26968" lon="2.52846">
        <ele>80.4</ele>
        <time>2015-02-01T14:46:34Z</time>
      </trkpt>
      <trkpt lat="49.26972" lon="2.52836">
        <ele>79.8</ele>
        <time>2015-02-01T14:46:39Z</time>
      </trkpt>
      <trkpt lat="49.26975" lon="2.52827">
        <ele>79.1</ele>
        <time>2015-02-01T14:46:46Z</time>
      </trkpt>
      <trkpt lat="49.26977" lon="2.52815">
        <ele>79.4</ele>
        <time>2015-02-01T14:46:52Z</time>
      </trkpt>
      <trkpt lat="49.2698" lon="2.52803">
        <ele>79.2</ele>
        <time>2015-02-01T14:46:57Z</time>
      </trkpt>
      <trkpt lat="49.26984" lon="2.52791">
        <ele>79.3</ele>
        <time>2015-02-01T14:47:02Z</time>
      </trkpt>
      <trkpt lat="49.26988" lon="2.52781">
        <ele>79.5</ele>
        <time>2015-02-01T14:47:08Z</time>
      </trkpt>
      <trkpt lat="49.26988" lon="2.5277">
        <ele>79.2</ele>
        <time>2015-02-01T14:47:15Z</time>
      </trkpt>
      <trkpt lat="49.26986" lon="2.52759">
        <ele>79.2</ele>
        <time>2015-02-01T14:47:20Z</time>
      </trkpt>
      <trkpt lat="49.26985" lon="2.52748">
        <ele>78.8</ele>
        <time>2015-02-01T14:47:25Z</time>
      </trkpt>
      <trkpt lat="49.26982" lon="2.5274">
        <ele>77.8</ele>
        <time>2015-02-01T14:47:32Z</time>
      </trkpt>
      <trkpt lat="49.26977" lon="2.52728">
        <ele>77.2</ele>
        <time>2015-02-01T14:47:38Z</time>
      </trkpt>
      <trkpt lat="49.26976" lon="2.52715">
        <ele>77</ele>
        <time>2015-02-01T14:47:44Z</time>
      </trkpt>
      <trkpt lat="49.26979" lon="2.52705">
        <ele>76.2</ele>
        <time>2015-02-01T14:47:49Z</time>
      </trkpt>
      <trkpt lat="49.2698" lon="2.52693">
        <ele>75.6</ele>
        <time>2015-02-01T14:47:56Z</time>
      </trkpt>
      <trkpt lat="49.26981" lon="2.52682">
        <ele>75.3</ele>
        <time>2015-02-01T14:48:03Z</time>
      </trkpt>
      <trkpt lat="49.2698" lon="2.52673">
        <ele>74.9</ele>
        <time>2015-02-01T14:48:10Z</time>
      </trkpt>
      <trkpt lat="49.26985" lon="2.52664">
        <ele>74.6</ele>
        <time>2015-02-01T14:48:17Z</time>
      </trkpt>
      <trkpt lat="49.26991" lon="2.52657">
        <ele>74.3</ele>
        <time>2015-02-01T14:48:23Z</time>
      </trkpt>
      <trkpt lat="49.26997" lon="2.52648">
        <ele>75</ele>
        <time>2015-02-01T14:48:29Z</time>
      </trkpt>
      <trkpt lat="49.27002" lon="2.52638">
        <ele>75.2</ele>
        <time>2015-02-01T14:48:35Z</time>
      </trkpt>
      <trkpt lat="49.27008" lon="2.5263">
        <ele>75.4</ele>
        <time>2015-02-01T14:48:41Z</time>
      </trkpt>
      <trkpt lat="49.27015" lon="2.52622">
        <ele>75.5</ele>
        <time>2015-02-01T14:48:44Z</time>
      </trkpt>
      <trkpt lat="49.2702" lon="2.52614">
        <ele>75.4</ele>
        <time>2015-02-01T14:48:51Z</time>
      </trkpt>
      <trkpt lat="49.27026" lon="2.52606">
        <ele>75.3</ele>
        <time>2015-02-01T14:48:58Z</time>
      </trkpt>
      <trkpt lat="49.2703" lon="2.52598">
        <ele>74.4</ele>
        <time>2015-02-01T14:49:05Z</time>
      </trkpt>
      <trkpt lat="49.27034" lon="2.52589">
        <ele>73.1</ele>
        <time>2015-02-01T14:49:11Z</time>
      </trkpt>
      <trkpt lat="49.2704" lon="2.52581">
        <ele>72.9</ele>
        <time>2015-02-01T14:49:16Z</time>
      </trkpt>
      <trkpt lat="49.27047" lon="2.52576">
        <ele>72.5</ele>
        <time>2015-02-01T14:49:22Z</time>
      </trkpt>
      <trkpt lat="49.27054" lon="2.52571">
        <ele>71.9</ele>
        <time>2015-02-01T14:49:28Z</time>
      </trkpt>
      <trkpt lat="49.27058" lon="2.52566">
        <ele>70.9</ele>
        <time>2015-02-01T14:49:35Z</time>
      </trkpt>
      <trkpt lat="49.27064" lon="2.52558">
        <ele>70.2</ele>
        <time>2015-02-01T14:49:41Z</time>
      </trkpt>
      <trkpt lat="49.2707" lon="2.52548">
        <ele>69.9</ele>
        <time>2015-02-01T14:49:47Z</time>
      </trkpt>
      <trkpt lat="49.27076" lon="2.5254">
        <ele>69.6</ele>
        <time>2015-02-01T14:49:53Z</time>
      </trkpt>
      <trkpt lat="49.2708" lon="2.52531">
        <ele>69.1</ele>
        <time>2015-02-01T14:50:00Z</time>
      </trkpt>
      <trkpt lat="49.27084" lon="2.52522">
        <ele>69.3</ele>
        <time>2015-02-01T14:50:06Z</time>
      </trkpt>
      <trkpt lat="49.27087" lon="2.52512">
        <ele>69.3</ele>
        <time>2015-02-01T14:50:13Z</time>
      </trkpt>
      <trkpt lat="49.27091" lon="2.52503">
        <ele>69.1</ele>
        <time>2015-02-01T14:50:20Z</time>
      </trkpt>
      <trkpt lat="49.27096" lon="2.52492">
        <ele>69</ele>
        <time>2015-02-01T14:50:25Z</time>
      </trkpt>
      <trkpt lat="49.27094" lon="2.52483">
        <ele>68.3</ele>
        <time>2015-02-01T14:50:32Z</time>
      </trkpt>
      <trkpt lat="49.27096" lon="2.52473">
        <ele>67.7</ele>
        <time>2015-02-01T14:50:39Z</time>
      </trkpt>
      <trkpt lat="49.27098" lon="2.52465">
        <ele>67.1</ele>
        <time>2015-02-01T14:50:46Z</time>
      </trkpt>
      <trkpt lat="49.27102" lon="2.52454">
        <ele>66.6</ele>
        <time>2015-02-01T14:50:53Z</time>
      </trkpt>
      <trkpt lat="49.27104" lon="2.52442">
        <ele>66.2</ele>
        <time>2015-02-01T14:50:56Z</time>
      </trkpt>
      <trkpt lat="49.27106" lon="2.5243">
        <ele>65.5</ele>
        <time>2015-02-01T14:51:01Z</time>
      </trkpt>
      <trkpt lat="49.27106" lon="2.52418">
        <ele>64.6</ele>
        <time>2015-02-01T14:51:06Z</time>
      </trkpt>
      <trkpt lat="49.2711" lon="2.52408">
        <ele>63.5</ele>
        <time>2015-02-01T14:51:13Z</time>
      </trkpt>
      <trkpt lat="49.27114" lon="2.52398">
        <ele>62.4</ele>
        <time>2015-02-01T14:51:17Z</time>
      </trkpt>
      <trkpt lat="49.27117" lon="2.52387">
        <ele>61.4</ele>
        <time>2015-02-01T14:51:22Z</time>
      </trkpt>
      <trkpt lat="49.2712" lon="2.52374">
        <ele>59.8</ele>
        <time>2015-02-01T14:51:29Z</time>
      </trkpt>
      <trkpt lat="49.27122" lon="2.52363">
        <ele>58.3</ele>
        <time>2015-02-01T14:51:34Z</time>
      </trkpt>
      <trkpt lat="49.27126" lon="2.52355">
        <ele>57.3</ele>
        <time>2015-02-01T14:51:40Z</time>
      </trkpt>
      <trkpt lat="49.27127" lon="2.52344">
        <ele>56.4</ele>
        <time>2015-02-01T14:51:47Z</time>
      </trkpt>
      <trkpt lat="49.27129" lon="2.52335">
        <ele>55.5</ele>
        <time>2015-02-01T14:51:54Z</time>
      </trkpt>
      <trkpt lat="49.27129" lon="2.5233">
        <ele>54.8</ele>
        <time>2015-02-01T14:52:01Z</time>
      </trkpt>
      <trkpt lat="49.27125" lon="2.52321">
        <ele>54.4</ele>
        <time>2015-02-01T14:52:05Z</time>
      </trkpt>
      <trkpt lat="49.27131" lon="2.52314">
        <ele>53.6</ele>
        <time>2015-02-01T14:52:11Z</time>
      </trkpt>
      <trkpt lat="49.27137" lon="2.52308">
        <ele>52.7</ele>
        <time>2015-02-01T14:52:15Z</time>
      </trkpt>
      <trkpt lat="49.27144" lon="2.52302">
        <ele>50.7</ele>
        <time>2015-02-01T14:52:21Z</time>
      </trkpt>
      <trkpt lat="49.27147" lon="2.52302">
        <ele>49.3</ele>
        <time>2015-02-01T14:52:28Z</time>
      </trkpt>
      <trkpt lat="49.27152" lon="2.52304">
        <ele>45</ele>
        <time>2015-02-01T14:54:15Z</time>
      </trkpt>
      <trkpt lat="49.27158" lon="2.52299">
        <ele>43.9</ele>
        <time>2015-02-01T14:54:22Z</time>
      </trkpt>
      <trkpt lat="49.27164" lon="2.52293">
        <ele>43</ele>
        <time>2015-02-01T14:54:29Z</time>
      </trkpt>
      <trkpt lat="49.27169" lon="2.52289">
        <ele>41.6</ele>
        <time>2015-02-01T14:54:36Z</time>
      </trkpt>
      <trkpt lat="49.27176" lon="2.52284">
        <ele>41</ele>
        <time>2015-02-01T14:54:43Z</time>
      </trkpt>
      <trkpt lat="49.27184" lon="2.52283">
        <ele>40.3</ele>
        <time>2015-02-01T14:54:49Z</time>
      </trkpt>
      <trkpt lat="49.27191" lon="2.52277">
        <ele>40</ele>
        <time>2015-02-01T14:54:54Z</time>
      </trkpt>
      <trkpt lat="49.27198" lon="2.52273">
        <ele>39.8</ele>
        <time>2015-02-01T14:54:59Z</time>
      </trkpt>
      <trkpt lat="49.27205" lon="2.52268">
        <ele>39.1</ele>
        <time>2015-02-01T14:55:04Z</time>
      </trkpt>
      <trkpt lat="49.27207" lon="2.52257">
        <ele>37.9</ele>
        <time>2015-02-01T14:55:10Z</time>
      </trkpt>
      <trkpt lat="49.27214" lon="2.52251">
        <ele>37.1</ele>
        <time>2015-02-01T14:55:16Z</time>
      </trkpt>
      <trkpt lat="49.27222" lon="2.52251">
        <ele>35.9</ele>
        <time>2015-02-01T14:55:22Z</time>
      </trkpt>
      <trkpt lat="49.2723" lon="2.52244">
        <ele>33.9</ele>
        <time>2015-02-01T14:55:29Z</time>
      </trkpt>
      <trkpt lat="49.27236" lon="2.52239">
        <ele>32.9</ele>
        <time>2015-02-01T14:55:34Z</time>
      </trkpt>
      <trkpt lat="49.27244" lon="2.52236">
        <ele>31.7</ele>
        <time>2015-02-01T14:55:41Z</time>
      </trkpt>
      <trkpt lat="49.27251" lon="2.52232">
        <ele>30.9</ele>
        <time>2015-02-01T14:55:48Z</time>
      </trkpt>
      <trkpt lat="49.27257" lon="2.52225">
        <ele>30.4</ele>
        <time>2015-02-01T14:55:55Z</time>
      </trkpt>
      <trkpt lat="49.27262" lon="2.52222">
        <ele>30.8</ele>
        <time>2015-02-01T14:56:02Z</time>
      </trkpt>
      <trkpt lat="49.27265" lon="2.52211">
        <ele>31.3</ele>
        <time>2015-02-01T14:56:09Z</time>
      </trkpt>
      <trkpt lat="49.27261" lon="2.52201">
        <ele>32.2</ele>
        <time>2015-02-01T14:56:15Z</time>
      </trkpt>
      <trkpt lat="49.27259" lon="2.5219">
        <ele>32.3</ele>
        <time>2015-02-01T14:56:19Z</time>
      </trkpt>
      <trkpt lat="49.27259" lon="2.52178">
        <ele>32</ele>
        <time>2015-02-01T14:56:26Z</time>
      </trkpt>
      <trkpt lat="49.27257" lon="2.52168">
        <ele>31.6</ele>
        <time>2015-02-01T14:56:31Z</time>
      </trkpt>
      <trkpt lat="49.27252" lon="2.52159">
        <ele>31</ele>
        <time>2015-02-01T14:56:38Z</time>
      </trkpt>
      <trkpt lat="49.27248" lon="2.52149">
        <ele>30</ele>
        <time>2015-02-01T14:56:45Z</time>
      </trkpt>
      <trkpt lat="49.27245" lon="2.52142">
        <ele>29.9</ele>
        <time>2015-02-01T14:56:52Z</time>
      </trkpt>
      <trkpt lat="49.27243" lon="2.52139">
        <ele>29.6</ele>
        <time>2015-02-01T14:56:59Z</time>
      </trkpt>
      <trkpt lat="49.27244" lon="2.5213">
        <ele>29.3</ele>
        <time>2015-02-01T14:57:22Z</time>
      </trkpt>
      <trkpt lat="49.27245" lon="2.52128">
        <ele>29.9</ele>
        <time>2015-02-01T14:57:29Z</time>
      </trkpt>
      <trkpt lat="49.27252" lon="2.5213">
        <ele>30.4</ele>
        <time>2015-02-01T14:58:12Z</time>
      </trkpt>
      <trkpt lat="49.2726" lon="2.52133">
        <ele>30.8</ele>
        <time>2015-02-01T14:58:19Z</time>
      </trkpt>
      <trkpt lat="49.27268" lon="2.52132">
        <ele>30.8</ele>
        <time>2015-02-01T14:58:26Z</time>
      </trkpt>
      <trkpt lat="49.27275" lon="2.52128">
        <ele>29.6</ele>
        <time>2015-02-01T14:58:32Z</time>
      </trkpt>
      <trkpt lat="49.27282" lon="2.52127">
        <ele>29.4</ele>
        <time>2015-02-01T14:58:39Z</time>
      </trkpt>
      <trkpt lat="49.27291" lon="2.52125">
        <ele>28.3</ele>
        <time>2015-02-01T14:58:45Z</time>
      </trkpt>
      <trkpt lat="49.27296" lon="2.5212">
        <ele>26</ele>
        <time>2015-02-01T14:58:52Z</time>
      </trkpt>
      <trkpt lat="49.27298" lon="2.52119">
        <ele>26.5</ele>
        <time>2015-02-01T14:59:23Z</time>
      </trkpt>
      <trkpt lat="49.27303" lon="2.52111">
        <ele>26</ele>
        <time>2015-02-01T14:58:52Z</time>
      </trkpt>
    </trkseg>
  </trk>
</gpx>